     2.11           OBSERVATION DATA    G (GPS)             RINEX VERSION / TYPE
teqc 2010Oct21 OPUS Account 20111025 13:33:55UTC            PGM / RUN BY / DATE
K 1521                                                      MARKER NAME
1123                                                        MARKER NUMBER
CSMIDDLETON NGS                                             OBSERVER / AGENCY
4624K01647 TRIMBLE NETR5 4.41                               REC # / TYPE / VERS
12694052 TRM41249.00 NONE                                   ANT # / TYPE
  -740019.0992 -5463802.2989  3195714.5259                  APPROX POSITION XYZ
        2.0040        0.0000        0.0000                  ANTENNA: DELTA H/E/N
     1     1                                                WAVELENGTH FACT L1/2
     5    L1    L2    C1    P1    P2                        # / TYPES OF OBSERV
    15                                                      LEAP SECONDS
  2011     7    23    15    18   30.0000000     GPS         TIME OF FIRST OBS
                                                            END OF HEADER
 11  7 23 15 18 30.0000000  0 10G06G31G14G13G16G32G24G03G20G23
 125453884.06556  97756331.41953  23873085.0314                   23873094.5944
 122125003.51717  95162369.54117  23239615.867
                                  25241337.250
 126431973.81755  98518628.42952  24059248.7424                   24059256.9104
 107234520.70258  83559394.60156  20406050.6094                   20406057.6644
 110586147.45658  86171055.00156  21043844.6024                   21043852.8054
 130970033.30656 102054646.43652  24922777.8204                   24922789.6454
 126121706.48856  98276712.13353  24000165.7274                   24000176.0634
 110144589.06358  85826981.71156  20959818.8444                   20959825.3364
 115105689.98458  89692766.41655  21903884.4694                   21903890.0704
 11  7 23 15 19  0.0000000  0  9G06G31G13G16G32G24G03G20G23
 125379910.01246  97698689.41043  23859008.2894                   23859018.7774
 122196315.396 7  95217937.196 7  23253186.188
 126346351.87846  98451910.13742  24042954.7194                   24042964.0394
 107199402.49448  83532029.77346  20399368.8444                   20399374.8484
 110624999.42048  86201329.23446  21051237.2894                   21051246.1604
 131035196.81745 102105423.17142  24935177.2114                   24935190.9534
 126030637.53046  98205749.40943  23982836.8364                   23982846.7074
 110148482.84648  85830015.81046  20960559.7664                   20960566.6054
 115032746.83448  89635927.62345  21890003.6884                   21890009.4064
 11  7 23 15 19 30.0000000  0  9G06G31G13G16G32G24G03G20G23
 125305992.97746  97641091.79543  23844942.3524                   23844952.1214
 122267602.459 7  95273485.517 7  23266751.727
 126260678.49946  98385151.74342  24026650.8834                   24026660.9494
 107164880.53147  83505129.56646  20392799.1414                   20392805.6954
 110664335.38648  86231980.59946  21058723.4064                   21058731.2854
 131100270.48846 102156129.85042  24947561.6884                   24947573.2034
 125939508.33746  98134739.76743  23965495.4304                   23965506.1484
 110152956.32748  85833501.64346  20961410.9064                   20961417.5824
 114959897.39248  89579161.84245  21876140.6024                   21876146.1254
 11  7 23 15 20  0.0000000  0  9G06G31G13G16G32G24G03G20G23
 125232135.47246  97583540.58043  23830887.5554                   23830897.4414
 122338864.305 7  95329014.162 7  23280311.656
 126174955.19346  98318354.41443  24010339.1484                   24010348.9224
 107130956.15347  83478695.00146  20386343.5474                   20386350.0394
 110704154.49548  86263008.45946  21066300.7344                   21066308.4144
 131165252.14446 102206764.85643  24959927.6804                   24959938.5164
 125848322.26845  98063685.78542  23948141.6564                   23948153.7154
 110158009.61648  85837439.25546  20962372.6724                   20962379.6294
 114887143.46248  89522470.46945  21862296.1564                   21862301.5904
 11  7 23 15 20 30.0000000  0  9G06G31G13G16G32G24G03G20G23
 125158340.35346  97526037.97743  23816843.4534                   23816854.3794
 122410099.993 7  95384522.435 7  23293868.086
 126089182.23246  98251518.40343  23994016.8134                   23994026.0744
 107097629.73648  83452726.38946  20380001.3674                   20380008.0704
 110744455.17148  86294411.56946  21073969.2734                   21073977.4964
 131230139.03145 102257325.86143  24972276.2814                   24972287.0004
 125757081.38846  97992589.12642  23930778.7504                   23930789.7504
 110163641.80148  85841827.94246  20963444.1254                   20963451.0474
 114814486.20248  89465854.43845  21848470.2114                   21848475.3484
 11  7 23 15 21  0.0000000  0  9G06G31G13G16G32G24G03G20G23
 125084610.03146  97468585.88543  23802814.9384                   23802823.8914
 122481308.306 7  95440009.381 7  23307418.453
 126003359.96746  98184643.87343  23977685.7664                   23977694.2774
 107064901.72748  83427224.06346  20373773.7034                   20373780.5664
 110785235.82048  86326188.67746  21081730.3594                   21081738.1844
 131294928.09546 102307810.76242  24984604.0554                   24984615.9924
 125665788.26146  97921451.64943  23913407.2344                   23913417.3714
 110169852.31348  85846667.31446  20964626.1414                   20964633.0474
 114741927.13648  89409314.91345  21834662.2274                   21834667.2774
 11  7 23 15 21 30.0000000  0  9G06G31G13G16G32G24G03G20G23
 125010947.05346  97411186.24943  23788796.1094                   23788806.7584
 122552488.038 7  95495474.079 7  23320963.516
 125917488.86046  98117731.43843  23961344.7274                   23961353.6914
 107032772.50047  83402188.32246  20367659.5784                   20367665.8364
 110826494.68148  86358338.41146  21089581.3674                   21089589.0314
 131359616.40145 102358217.10042  24996914.1334                   24996925.9184
 125574445.62146  97850275.66543  23896025.1884                   23896036.1374
 110176640.12348  85851956.51646  20965917.9844                   20965925.2344
 114669467.33348  89352852.76045  21820873.6644                   21820879.3954
 11  7 23 15 22  0.0000000  0  9G06G31G13G16G32G24G03G20G23
 124937354.64847  97353841.60243  23774792.2814                   23774802.2894
 122623639.237 7  95550916.509 6  23334503.047
 125831570.56946  98050782.14043  23944995.3834                   23945003.8714
 107001243.52947  83377620.29846  20361660.0784                   20361666.7034
 110868231.06748  86390860.24246  21097523.3134                   21097531.7774
 131424201.89245 102408543.37042  25009202.3674                   25009216.8164
 125483056.50546  97779063.45043  23878634.8284                   23878645.4414
 110184005.04248  85857695.39046  20967319.3364                   20967326.6214
 114597109.19948  89296469.82745  21807104.5554                   21807110.2234
 11  7 23 15 22 30.0000000  0  9G06G31G13G16G32G24G03G20G23
 124863835.82546  97296554.30743  23760802.5704                   23760811.8984
 122694761.103 7  95606336.067 6  23348037.555
 125745605.84946  97983796.68943  23928636.9534                   23928645.2074
 106970315.35547  83353520.43846  20355774.5004                   20355780.6804
 110910443.58148  86423753.09246  21105556.2424                   21105564.0314
 131488682.05055 102458787.62752  25021473.7814                   25021487.4264
 125391623.69346  97707817.20543  23861235.0164                   23861245.6804
 110191946.85048  85863883.80546  20968831.1174                   20968837.2894
 114524854.30948  89240167.34545  21793354.6804                   21793359.8244
 11  7 23 15 23  0.0000000  0  9G06G31G13G16G32G24G03G20G23
 124790393.94847  97239326.94943  23746827.2034                   23746835.6294
 122765852.850 7  95661732.220 6  23361565.359
 125659595.80346  97916775.91242  23912269.7194                   23912278.0084
 106939989.58147  83329889.97646  20350003.3754                   20350009.7034
 110953131.42648  86457016.33146  21113679.6334                   21113687.4774
 131553055.05146 102508948.29242  25033723.4144                   25033736.7894
 125300150.37246  97636539.40243  23843829.0474                   23843839.2194
 110200465.40648  85870521.63646  20970451.7274                   20970458.6604
 114452704.78048  89183946.94645  21779625.3134                   21779630.8484
 11  7 23 15 23 30.0000000  0  9G06G31G13G16G32G24G03G20G23
 124717031.68147  97182161.62443  23732866.5314                   23732875.7894
 122836914.058 7  95717104.521 6  23375087.781
 125573541.23446  97849720.45742  23895892.6414                   23895902.6134
 106910266.43847  83306729.11746  20344347.6884                   20344353.9774
 110996292.94948  86490648.65446  21121893.4924                   21121901.5044
 131617317.77246 102559022.96442  25045952.0164                   25045965.3094
 125208639.21146  97565232.04443  23826414.8364                   23826424.5744
 110209560.10148  85877608.38546  20972182.3674                   20972188.9304
 114380662.17348  89127809.87345  21765915.8914                   21765921.2934
 11  7 23 15 24  0.0000000  0  9G06G31G13G16G32G24G03G20G23
 124643752.20546  97125060.87543  23718921.2344                   23718931.5004
 122907944.260 7  95772452.721 6  23388604.742
 125487443.32146  97782631.27242  23879508.6564                   23879518.7504
 106881146.76147  83284038.46046  20338806.1884                   20338812.8524
 111039926.94048  86524649.14546  21130196.1804                   21130204.3954
 131681468.332 5                  25058160.703
 125117093.19046  97493897.56443  23808993.9064                   23809004.3554
 110219230.18848  85885143.50246  20974022.4774                   20974029.0824
 114308728.43348  89071757.62345  21752227.2664                   21752232.8204
 11  7 23 15 24 30.0000000  0  9G06G31G13G16G32G24G03G20G23
 124570558.44446  97068026.91043  23704993.2194                   23705003.1054
 122978942.900 7  95827776.300 7  23402114.984
 125401303.07446  97715509.08543  23863116.5004                   23863126.4304
 106852631.23347  83261818.59446  20333379.8134                   20333386.6604
 111084032.20647  86559016.87046  21138589.0474                   21138597.5044
 131745503.863 6                  25070345.891
 125025515.34546  97422538.27943  23791567.2894                   23791577.4774
 110229475.40248  85893126.79446  20975971.7344                   20975978.4884
 114236905.14448  89015791.46745  21738559.1644                   21738565.5904
 11  7 23 15 25  0.0000000  0  9G06G31G13G16G32G24G03G20G23
 124497453.27546  97011061.95043  23691081.4304                   23691091.3674
 123049909.250 7  95883074.698 6  23415619.383
 125315121.43746  97648354.61543  23846718.0634                   23846726.1764
 106824720.55147  83240070.00646  20328068.7734                   20328075.1174
 111128607.49348  86593750.82146  21147071.4304                   21147079.8014
 131809422.299 6                  25082509.797
 124933908.75346  97351156.66443  23774134.6954                   23774145.4574
 110240295.04248  85901557.69446  20978030.8674                   20978038.0044
 114165194.20248  88959912.83245  21724913.7894                   21724919.5124
 11  7 23 15 25 30.0000000  0  9G06G31G13G16G32G24G03G20G23
 124424440.06346  96954168.62943  23677187.1564                   23677197.2544
 123120842.891 7  95938347.633 6  23429118.500
 125228899.80346  97581168.94543  23830309.3914                   23830319.2034
 106797416.05048  83218793.77646  20322872.7114                   20322879.1764
 111173651.52348  86628850.04846  21155642.7894                   21155651.1724
 131873221.129 6                  25094650.086
 124842276.18347  97279754.79744  23756698.4614                   23756708.4654
 110251688.89848  85910436.02246  20980199.0084                   20980206.4654
 114093597.88148  88904123.51345  21711289.0704                   21711294.6254
 11  7 23 15 26  0.0000000  0  9G06G31G13G16G32G24G03G20G23
 124351521.43646  96897348.96044  23663311.8284                   23663320.8594
 123191743.129 7  95993594.526 7  23442609.727
 125142638.95846  97513952.73843  23813896.1484                   23813904.7584
 106770717.73547  83197989.90446  20317791.8984                   20317798.6684
 111219162.72947  86664313.30946  21164303.2194                   21164311.8164
 131936898.112 5                  25106767.938
 124750620.26346  97208334.64943  23739255.1564                   23739266.2304
 110263656.25648  85919761.22846  20982476.4224                   20982482.5944
 114022117.99348  88848424.92845  21697687.1024                   21697692.3714
 11  7 23 15 26 30.0000000  0  9G06G31G13G16G32G24G03G20G23
 124278700.60246  96840605.55544  23649455.0864                   23649464.5234
 123262609.696 7  96048815.202 6  23456095.773
 125056339.75446  97446706.72943  23797472.1644                   23797482.1914
 106744626.46248  83177659.05946  20312827.3754                   20312833.8714
 111265139.78048  86700139.55346  21173052.6884                   21173060.9064
 132000450.79846 102857577.63153  25118860.8284                   25118872.0944
 124658944.57646  97136899.16543  23721810.8754                   23721820.9304
 110276196.50148  85929532.83246  20984863.0474                   20984869.0044
 113950755.92348  88792818.14345  21684107.2274                   21684112.5554
 11  7 23 15 27  0.0000000  0  9G06G31G13G16G32G24G03G20G23
 124205980.39846  96783940.56244  23635615.5864                   23635625.9844
 123333441.910 7  96104009.082 7  23469574.664
 124970003.47146  97379431.73842  23781043.6884                   23781052.7304
 106719142.86147  83157801.72746  20307978.0164                   20307984.7464
 111311581.59248  86736327.94446  21181890.5554                   21181898.7814
 132063876.48845 102907000.13242  25130930.8594                   25130942.5824
 124567251.84846  97065450.36343  23704361.1644                   23704372.5864
 110289308.68348  85939750.12046  20987358.0704                   20987364.4534
 113879513.57247  88737304.63245  21670549.9534                   21670555.0704
 11  7 23 15 27 30.0000000  0  9G06G31G13G16G32G24G03G20G23
 124133364.08346  96727356.52043  23621797.1254                   23621807.3364
 123404239.027 7  96159175.643 6  23483046.898
 124883630.88445  97312128.46742  23764607.1564                   23764616.4414
 106694267.25248  83138418.14846  20303244.0004                   20303250.3714
 111358486.39248  86772877.11446  21190816.1724                   21190824.6604
 132127173.10545 102956322.09342  25142976.6884                   25142987.7464
 124475545.00846  96993990.61444  23686911.0004                   23686921.4534
 110302992.31448  85950412.67746  20989962.1644                   20989969.1884
 113808392.74848  88681885.80745  21657016.7114                   21657021.9304
 11  7 23 15 28  0.0000000  0  9G06G31G13G16G32G24G03G20G23
 124060854.56946  96670855.68543  23607998.5164                   23608009.3014
 123475000.674 7  96214314.552 6  23496512.344
 124797223.40756  97244798.04152  23748164.8524                   23748174.0434
 106670000.66647  83119509.12846  20298626.3204                   20298632.6954
 111405852.95648  86809786.11846  21199829.4304                   21199837.7934
 132190338.51955 103005541.63152  25154995.6564                   25155008.1294
 124383827.05946  96922522.20143  23669457.9694                   23669467.1214
 110317246.70048  85961519.99646  20992674.4924                   20992681.3284
 113737395.61948  88626563.41345  21643506.4534                   21643511.4384
 11  7 23 15 28 30.0000000  0  9G06G31G13G16G32G24G03G20G23
 123988454.53946  96614440.13643  23594221.5944                   23594231.3554
 123545726.038 7  96269425.202 6  23509970.914
 124710781.60446  97177440.81843  23731715.5944                   23731723.7734
 106646342.75548  83101074.41346  20294124.4774                   20294130.5824
 111453679.53048  86847053.54246  21208930.7664                   21208938.9884
 132253369.83045 103054656.87042  25166990.2814                   25167003.5784
 124292100.90146  96851047.35343  23652002.4614                   23652012.0904
 110332071.27948  85973071.61846  20995495.3674                   20995502.3484
 113666523.51848  88571338.43545  21630019.9304                   21630024.9654
 11  7 23 15 29  0.0000000  0  9G06G31G13G16G32G24G03G20G23
 123916167.17646  96558112.41743  23580465.0474                   23580475.3674
 123616415.044 7  96324507.519 7  23523421.781
 124624306.95546  97110058.01843  23715259.7814                   23715268.1214
 106623294.58148  83083114.81146  20289738.4614                   20289744.8014
 111501964.66048  86884678.29146  21218119.0084                   21218127.5124
 132316264.95445 103103665.93542  25178959.7504                   25178971.4414
 124200369.46146  96779568.42943  23634546.0084                   23634556.1564
 110347465.04048  85985066.71946  20998425.2034                   20998431.9264
 113595779.08347  88516212.92645  21616556.7734                   21616563.1764
 11  7 23 15 29 30.0000000  0  9G06G31G13G16G32G24G03G20G23
 123843995.44746  96501874.77743  23566731.6564                   23566741.5824
 123687066.635 7  96379560.677 6  23536866.984
 124537800.23746  97042650.23643  23698797.9384                   23698807.2114
 106600856.19048  83065630.37546  20285468.5084                   20285475.2734
 111550706.98648  86922659.30846  21227394.4384                   21227402.8444
 132379021.41446 103152566.87342  25190901.5784                   25190914.2384
 124108635.83846  96708087.76643  23617090.2274                   23617100.3794
 110363426.86948  85997504.49146  21001462.4614                   21001469.5204
 113525163.58748  88461187.87845  21603119.7114                   21603125.0434
 11  7 23 15 30  0.0000000  0  9G06G31G13G16G32G24G03G20G23
 123771942.54546  96445729.69443  23553020.2274                   23553030.5274
 123757680.663 7  96434584.573 6  23550304.852
 124451262.79946  96975218.59243  23682330.5634                   23682339.6684
 106579028.49347  83048621.81246  20281314.5314                   20281321.8674
 111599904.84048  86960995.28546  21236756.4844                   21236764.3284
 132441636.93145 103201358.10842  25202816.4614                   25202829.2584
 124016902.60946  96636607.43343  23599633.2894                   23599643.7074
 110379956.52048  86010384.72846  21004607.6414                   21004614.4654
 113454679.43048  88406265.16245  21589707.1724                   21589712.5554
 11  7 23 15 30 30.0000000  0  9G06G31G13G16G32G24G03G20G23
 123700011.32646  96389679.42443  23539333.0474                   23539341.7664
 123828256.899 7  96489579.034 6  23563734.461
 124364695.46046  96907763.58943  23665857.0004                   23665866.3054
 106557811.70447  83032089.27046  20277277.0784                   20277283.6914
 111649556.84848  86999685.14446  21246204.5864                   21246212.9924
 132504109.47945 103250037.79042  25214704.6334                   25214718.3594
 123925173.37946  96565130.18343  23582178.5474                   23582187.9734
 110397052.75547  86023706.45446  21007861.1334                   21007868.1024
 113384328.10847  88351445.95245  21576319.4844                   21576324.4614
 11  7 23 15 31  0.0000000  0  9G06G31G13G16G32G24G03G20G23
 123628204.53347  96333726.13543  23525668.4454                   23525677.9264
 123898794.170 7  96544543.110 7  23577157.680
 124278099.83547  96840286.56644  23649378.2894                   23649387.2584
 106537205.82647  83016032.74846  20273356.1334                   20273362.5634
 111699661.24247  87038727.50745  21255739.4924                   21255747.7384
 132566436.17345 103298604.00342  25226565.6254                   25226578.1804
 123833450.59447  96493657.94843  23564723.8364                   23564732.6684
 110414714.56648  86037468.88446  21011222.1724                   21011228.6684
 113314111.31947  88296731.59845  21562957.1954                   21562962.8954
 11  7 23 15 31 30.0000000  0  9G06G31G13G16G32G24G03G20G23
 123556525.51646  96277872.39843  23512027.4844                   23512037.1764
 123969292.403 7  96599476.793 6  23590572.891
 124191476.77746  96772788.13743  23632895.2424                   23632903.3484
 106517211.56447  83000452.82746  20269551.0704                   20269558.1374
 111750216.77147  87078121.39645  21265360.2424                   21265368.2234
 132628615.39745 103347055.10442  25238398.9384                   25238410.5474
 123741737.67047  96422193.37444  23547271.3524                   23547280.9494
 110432941.66947  86051671.81346  21014690.5554                   21014698.1684
 113244031.19348  88242123.73345  21549622.1334                   21549626.9264
 11  7 23 15 32  0.0000000  0  9G06G31G13G16G32G24G03G20G23
 123484977.18746  96222120.51343  23498412.7664                   23498422.4144
 124039751.012 6  96654379.584 7  23603980.617
 124104827.31147  96705269.08143  23616405.9224                   23616414.2114
 106497829.04247  82985349.58246  20265863.1024                   20265869.8284
 111801221.34248  87117865.19945  21275066.0234                   21275074.0434
 132690644.13545 103395388.98142  25250201.6484                   25250215.3014
 123650037.22946  96350738.55943  23529822.0474                   23529831.1294
 110451732.58348  86066314.07846  21018266.8444                   21018273.2584
 113174089.80148  88187623.98045  21536312.2974                   21536317.5274
 11  7 23 15 32 30.0000000  0  9G06G31G13G16G32G24G03G20G23
 123413562.63646  96166472.90044  23484822.8134                   23484831.6844
 124110169.851 7  96709251.354 6  23617380.977
 124018152.66447  96637730.45443  23599912.1254                   23599920.7934
 106479058.77048  82970723.41746  20262290.9694                   20262297.8794
 111852673.84148  87157958.04245  21284857.1334                   21284865.2384
 132752520.401 5                  25261975.500
 123558352.78447  96279296.21944  23512374.4064                   23512383.7194
 110471087.10448  86081395.50646  21021949.7344                   21021956.2854
 113104289.15148  88133233.87846  21523030.1644                   21523035.7154
 11  7 23 15 33  0.0000000  0  9G06G31G13G16G32G24G03G20G23
 123342284.88147  96110931.81944  23471259.8524                   23471268.5514
 124180548.440 7  96764091.815 7  23630773.813
 123931453.89946  96570172.99043  23583414.2194                   23583422.8094
 106460900.93847  82956574.46846  20258835.7814                   20258842.8914
 111904572.60347  87198398.60345  21294732.6254                   21294741.0744
 132814242.17814                  25273719.773
 123466687.33846  96207868.62944  23494930.8594                   23494940.5864
 110491003.66248  86096914.88746  21025739.0864                   21025746.1094
 113034631.13148  88078954.90045  21509774.4224                   21509779.5594
 11  7 23 15 33 30.0000000  0  9G06G31G13G16G32G24G03G20G23
 123271146.65847  96055499.48543  23457721.6644                   23457732.1454
 124250886.025 7  96818900.296 7  23644158.359
 123844732.35347  96502597.81443  23566911.0554                   23566919.6484
 106443355.60548  82942902.79546  20255497.1254                   20255503.7194
 111956915.74547  87239185.43646  21304693.7424                   21304701.5664
 132875806.663 5                  25285437.641
 123375043.71346  96136458.06443  23477492.6174                   23477501.5314
 110511481.24648  86112871.42146  21029636.2344                   21029642.6684
 112965117.32248  88024788.34045  21496546.1484                   21496551.0744
 11  7 23 15 34  0.0000000  0  8G06G31G13G16G32G03G20G23
 123200151.28147  96000178.43443  23444211.9844                   23444221.6334
 124321182.314 7  96873676.633 6  23657535.086
 123757989.25347  96435005.80643  23550404.8524                   23550412.4734
 106426422.89248  82929708.47146  20252274.6484                   20252281.3554
 112009701.63547  87280317.27146  21314738.5314                   21314746.5824
 123283424.99046  96065066.88043  23460057.6414                   23460067.4614
 110532519.52947  86129264.89146  21033639.4064                   21033646.4344
 112895749.38548  87970735.43145  21483345.6804                   21483351.4924
 11  7 23 15 34 30.0000000  0  8G06G31G13G16G32G03G20G23
 123129301.28746  95944970.71044  23430730.2664                   23430740.0944
 124391436.324 7  96928419.961 7  23670904.320
 123671225.54546  96367397.74643  23533894.2734                   23533902.3404
 106410102.59848  82916991.37146  20249169.4064                   20249175.8134
 112062928.30448  87321792.57746  21324867.4774                   21324875.6914
 123191833.85946  95993697.26844  23442628.2734                   23442638.5164
 110554116.31947  86146093.53446  21037749.0554                   21037756.2544
 112826530.12248  87916798.37046  21470174.0234                   21470180.1454
 11  7 23 15 35  0.0000000  0  8G06G31G13G16G32G03G20G23
 123058600.70546  95889879.39243  23417275.2194                   23417285.9024
 124461649.008 7  96983131.109 6  23684265.141
 123584443.07246  96299775.08843  23517379.3914                   23517388.0354
 106394396.15348  82904752.59446  20246180.2974                   20246187.0634
 112116595.02348  87363610.77946  21335079.8594                   21335087.6954
 123100274.31447  95922352.23143  23425205.6724                   23425214.3204
 110576271.42748  86163357.25046  21041965.1724                   21041972.1604
 112757461.92148  87862979.01546  21457030.8984                   21457036.6414
 11  7 23 15 35 30.0000000  0  8G06G31G13G16G32G03G20G23
 122988051.90446  95834906.36343  23403850.1804                   23403861.1054
 124531819.522 7  97037809.384 7  23697617.977
 123497642.58746  96232138.44343  23500860.8914                   23500870.6884
 106379302.89248  82892991.61146  20243308.4534                   20243314.9454
 112170699.49347  87405770.07746  21345375.6334                   21345384.1454
 123008748.75246  95851033.64543  23407787.8444                   23407797.2154
 110598983.57047  86181055.01046  21046287.1884                   21046294.6564
 112688546.04248  87809278.34645  21443916.5784                   21443921.7664
 11  7 23 15 36  0.0000000  0  9G06G31G13G16G32G24G03G20G23
 122917657.45046  95780053.58643  23390454.5634                   23390464.4774
 124601946.404 6  97092453.699 6  23710962.680
 123410824.74046  96164488.23543  23484340.8204                   23484349.7974
 106364822.24948  82881708.00246  20240552.9454                   20240559.1454
 112225239.52648  87448268.78746  21355753.7114                   21355762.3054
 133181193.49615                  25343552.406
 122917259.97546  95779743.74843  23390376.9924                   23390388.1884
 110622251.05947  86199185.48346  21050715.3524                   21050722.0044
 112619783.94348  87755697.51745  21430830.9304                   21430836.6524
 11  7 23 15 36 30.0000000  0  8G06G31G13G16G32G03G20G23
 122847420.95146  95725323.92943  23377088.6724                   23377099.1174
 124672029.992 7  97147064.240 6  23724299.266
 123323991.48146  96096826.01043  23467816.8284                   23467825.1804
 106350955.05748  82870902.40546  20237913.8914                   20237920.5594
 112280214.03947  87491106.03446  21366215.6954                   21366223.9414
 122825811.68946  95708485.37043  23372975.1334                   23372986.0204
 110646073.45447  86217748.38746  21055248.2734                   21055255.2934
 112551178.32348  87702238.60945  21417776.0944                   21417781.6804
 11  7 23 15 37  0.0000000  0  8G06G31G13G16G32G03G20G23
 122777345.54546  95670719.82643  23363754.0634                   23363763.9184
 124742070.097 7  97201640.833 6  23737628.016
 123237144.06246  96029152.73444  23451291.3914                   23451299.1724
 106337701.38548  82860574.86646  20235391.5234                   20235398.0314
 112335621.04648  87534280.29946  21376759.3284                   21376767.3404
 122734406.93746  95637260.91644  23355582.8134                   23355592.1374
 110670449.60647  86236742.78946  21059886.7114                   21059893.6334
 112482731.01548  87648903.04445  21404751.1564                   21404756.0514
 11  7 23 15 37 30.0000000  0  8G06G31G13G16G32G03G20G23
 122707433.90446  95616243.34243  23350451.2894                   23350460.4024
 124812066.132 7  97256183.248 6  23750948.000
 123150283.66247  95961469.34244  23434762.1644                   23434770.7544
 106325061.25648  82850725.42446  20232986.6804                   20232992.8284
 112391458.98648  87577790.36046  21387384.8134                   21387393.0824
 122643048.76446  95566072.79543  23338197.4614                   23338207.7274
 110695378.20648  86256167.66346  21064631.0704                   21064637.6644
 112414444.20948  87595692.57546  21391756.6484                   21391761.7424
 11  7 23 15 38  0.0000000  0  9G06G31G13G16G32G24G03G20G23
 122637688.41446  95561896.29844  23337178.5084                   23337188.5084
 124882017.138 7  97310690.500 6  23764259.336
 123063410.75647  95893776.26643  23418230.0784                   23418238.9534
 106313033.35547  82841353.06746  20230697.6174                   20230704.0474
 112447725.17748  87621634.10646  21398092.0634                   21398100.1414
 133422449.76815                  25389461.141
 122551739.24547  95494922.55044  23320821.8134                   23320831.3984
 110720857.32748  86276021.51546  21069479.3284                   21069486.3714
 112346319.10148  87542608.09645  21378792.7034                   21378798.0944
 11  7 23 15 38 30.0000000  0  8G06G31G13G16G32G03G20G23
 122568112.62647  95507681.48744  23323938.6174                   23323948.3524
 124951923.331 7  97365162.862 6  23777561.609
 122976527.19246  95826074.82943  23401696.9534                   23401705.4804
 106301618.61548  82832458.48546  20228525.0864                   20228531.8634
 112504418.26548  87665810.52746  21408880.2194                   21408888.5744
 122460482.45247  95423813.35244  23303456.5634                   23303466.1684
 110746885.87747  86296303.48446  21074432.2034                   21074439.0274
 112278358.07248  87489651.46445  21365860.1414                   21365865.5474
 11  7 23 15 39  0.0000000  0  8G06G31G13G16G32G03G20G23
 122498710.00747  95453601.61744  23310731.7814                   23310741.1954
 125021784.774 7  97419600.316 6  23790855.398
 122889634.80246  95758366.51943  23385162.3134                   23385170.0594
 106290817.19348  82824041.81846  20226469.7814                   20226476.1054
 112561537.11148  87710318.69146  21419749.2424                   21419757.6134
 122369282.03846  95352748.10344  23286100.5394                   23286111.0784
 110773463.73748  86317013.49946  21079490.4064                   21079496.4804
 112210563.72048  87436824.71345  21352959.3364                   21352964.5084
 11  7 23 15 39 30.0000000  0  8G06G31G13G16G32G03G20G23
 122429483.27846  95399658.78044  23297558.4774                   23297567.8444
 125091600.905 7  97474002.513 6  23804141.703
 122802734.54546  95690652.07943  23368625.4224                   23368633.4654
 106280628.70148  82816102.76246  20224531.2504                   20224537.1724
 112619079.46847  87755156.86646  21430699.5554                   21430707.8404
 122278140.59146  95281728.80144  23268757.3204                   23268767.6564
 110800588.87148  86338149.97046  21084651.5234                   21084658.8164
 112142937.94548  87384129.31545  21340090.4844                   21340095.8834
 11  7 23 15 40  0.0000000  0  8G06G31G13G16G32G03G20G23
 122360435.20246  95345855.17843  23284419.4694                   23284427.7624
 125161370.871 7  97528368.672 6  23817418.117
 122715827.40346  95622932.27943  23352086.9144                   23352095.1454
 106271052.92247  82808641.13046  20222708.8134                   20222715.1094
 112677042.99348  87800323.21845  21441729.1644                   21441737.9884
 122187061.18447  95210757.84743  23251425.6094                   23251435.7664
 110828259.99347  86359711.87746  21089917.1804                   21089924.5234
 112075482.37348  87331566.54445  21327254.0474                   21327259.4774
 11  7 23 15 40 30.0000000  0  8G06G31G13G16G32G03G20G23
 122291569.14746  95292193.36643  23271314.6024                   23271323.0744
 125231095.026 7  97582699.156 6  23830686.938
 122628915.10847  95555208.47443  23335547.8284                   23335556.0234
 106262089.73148  82801656.86546  20221003.2734                   20221009.7974
 112735426.48348  87845816.82146  21452839.3674                   21452847.8714
 122096046.98846  95139837.68444  23234106.4924                   23234115.8794
 110856475.62448  86381698.06246  21095287.2974                   21095293.6564
 112008199.55748  87279138.42045  21314450.2424                   21314456.3794
 11  7 23 15 41  0.0000000  0  8G06G31G13G16G32G03G20G23
 122222888.08446  95238675.75243  23258243.4534                   23258254.1884
 125300772.787 7  97636993.490 6  23843946.203
 122541998.79446  95487481.54343  23319008.3984                   23319017.2194
 106253739.22448  82795150.00546  20219414.3444                   20219420.4694
 112794227.83247  87891636.02145  21464028.6564                   21464037.3594
 122005101.35646  95068970.99643  23216800.8524                   23216809.2814
 110885234.81348  86404107.81346  21100759.3134                   21100766.0784
 111941091.48748  87226846.43345  21301680.0704                   21301685.1094
 11  7 23 15 41 30.0000000  0  8G06G31G13G16G32G03G20G23
 122154394.86146  95185304.46143  23245209.8914                   23245220.3284
 125370404.001 7  97691251.553 6  23857196.156
 122455079.86246  95419752.53644  23302468.9614                   23302477.4614
 106246001.03248  82789120.26946  20217941.4454                   20217948.1684
 112853445.21248  87937779.39545  21475298.2344                   21475306.0554
 121914227.12946  94998159.95543  23199507.1094                   23199516.2304
 110914536.14748  86426940.01046  21106335.2424                   21106342.1294
 111874159.86748  87174691.93846  21288943.8524                   21288949.2194
 11  7 23 15 42  0.0000000  0  8G06G31G13G16G32G03G20G23
 122086092.26646  95132081.70443  23232212.3674                   23232221.6524
 125439987.995 7  97745472.824 6  23870437.586
 122368159.51246  95352022.45543  23285928.2424                   23285936.4844
 106238874.40348  82783567.07546  20216585.3984                   20216591.8444
 112913076.33348  87984245.18745  21486645.1024                   21486653.0204
 121823427.46546  94927407.03043  23182227.4064                   23182237.8954
 110944377.78648  86450193.23446  21112013.7424                   21112021.0044
 111807406.78348  87122676.55546  21276240.9924                   21276246.2344
 11  7 23 15 42 30.0000000  0  9G06G31G13G16G32G24G03G20G23
 122017983.59746  95079010.06643  23219252.0234                   23219261.3164
 125509524.785 7  97799657.289 6  23883670.070
 122281238.93546  95284292.19543  23269387.3674                   23269396.1254
 106232359.31748  82778490.39946  20215345.6094                   20215351.8134
 112973119.62148  88031032.15245  21498071.1094                   21498079.3554
 133954637.85814                  25490721.180
 121732705.57346  94856714.71843  23164964.6484                   23164974.0594
 110974758.74247  86473866.70146  21117795.2504                   21117802.8134
 111740834.53748  87070802.10745  21263572.1724                   21263578.1294
 11  7 23 15 43  0.0000000  0  8G06G31G13G16G32G03G20G23
 121950071.71046  95026091.76243  23206328.3284                   23206337.3364
 125579013.886 7  97853804.585 6  23896893.719
 122194320.02147  95216563.19543  23252847.1724                   23252855.5514
 106226455.39748  82773889.95146  20214222.4144                   20214228.0984
 113033572.89047  88078138.56945  21509575.3054                   21509583.2584
 121642064.33646  94786085.22144  23147716.0634                   23147725.6524
 111005676.76148  86497958.63346  21123678.9534                   21123685.7034
 111674445.18548  87019070.17246  21250939.1254                   21250944.7194
 11  7 23 15 43 30.0000000  0  8G06G31G13G16G32G03G20G23
 121882359.95946  94973329.42943  23193443.6564                   23193452.9384
 125648455.688 7  97907915.037 6  23910108.000
 122107404.14446  95148836.57944  23236307.3984                   23236316.0594
 106221162.77347  82769765.83246  20213214.9144                   20213221.4494
 113094434.70547  88125563.33245  21521156.9304                   21521165.2304
 121551507.32246  94715521.41244  23130482.9774                   23130493.6054
 111037131.56947  86522468.85946  21129663.8594                   21129671.4614
 111608241.13348  86967482.62446  21238341.0554                   21238346.4144
 11  7 23 15 44  0.0000000  0  8G06G31G13G16G32G03G20G23
 121814850.86946  94920725.01443  23180596.5234                   23180606.6484
 125717849.247 7  97961987.918 7  23923312.906
 122020492.36346  95081113.13144  23219768.8444                   23219777.1804
 106216480.50247  82766117.32146  20212323.9064                   20212330.5984
 113155702.45748  88173304.40445  21532815.6484                   21532824.0594
 121461037.77246  94645025.76744  23113266.7194                   23113278.0434
 111069121.12948  86547395.76846  21135751.4844                   21135759.1764
 111542223.92948  86916040.64846  21225778.4454                   21225783.5274
 11  7 23 15 44 30.0000000  0  8G06G31G13G16G32G03G20G23
 121747547.50547  94868280.91843  23167789.7274                   23167799.3364
 125787194.200 7  98016022.910 7  23936509.406
 121933586.02546  95013394.00444  23203231.0864                   23203240.1174
 106212408.17048  82762944.08146  20211549.4064                   20211555.5004
 113217374.24547  88221360.33345  21544551.4614                   21544559.0394
 121370658.74246  94574600.61544  23096068.7894                   23096078.5634
 111101643.88048  86572738.17946  21141940.3834                   21141947.8484
 111476395.74448  86864746.01246  21213251.4614                   21213256.9304
 11  7 23 15 45  0.0000000  0  8G06G31G13G16G32G03G20G23
 121680453.29447  94815999.76443  23155022.3444                   23155031.3204
 125856490.831 7  98070020.192 6  23949695.867
 121846686.90047  94945680.47144  23186695.2274                   23186703.2974
 106208945.94048  82760246.24346  20210889.9384                   20210896.5314
 113279448.46447  88269729.82645  21556363.6804                   21556371.8714
 121280373.61446  94504248.67744  23078888.2114                   23078897.2274
 111134698.17347  86598494.75546  21148231.0084                   21148237.1334
 111410759.00548  86813600.49746  21200761.4224                   21200766.1604
 11  7 23 15 45 30.0000000  0  8G06G31G13G16G32G03G20G23
 121613570.85746  94763883.66043  23142294.7034                   23142303.6334
 125925738.650 7  98123979.546 7  23962872.930
 121759796.32247  94877973.58044  23170160.5634                   23170168.9224
 106206092.98548  82758023.15446  20210347.2584                   20210353.8874
 113341922.94747  88318411.21145  21568252.1334                   21568260.1804
 121190185.21246  94433972.11744  23061725.3834                   23061735.2664
 111168282.83147  86624664.59846  21154621.9924                   21154628.9774
 111345315.50248  86762605.58446  21188307.8754                   21188313.5004
 11  7 23 15 46  0.0000000  0  8G06G31G13G16G32G03G20G23
 121546903.26846  94711934.97443  23129607.9924                   23129617.0004
 125994937.408 7  98177900.597 6  23976041.273
 121672915.77446  94810274.49344  23153627.1954                   23153635.8484
 106203848.91247  82756274.52846  20209920.5084                   20209926.6564
 113404795.58147  88367402.85545  21580216.2344                   21580224.5664
 121100096.86646  94363773.50144  23044582.1174                   23044592.1334
 111202396.07848  86651246.31846  21161113.2344                   21161120.4064
 111280067.59847  86711763.09846  21175891.5864                   21175897.3204
 11  7 23 15 46 30.0000000  0  8G06G31G13G16G32G03G20G23
 121480453.51746  94660155.98243  23116963.7274                   23116972.6644
 126064087.165 7  98231783.483 6  23989200.289
 121586046.60646  94742584.31244  23137096.3594                   23137105.1604
 106202213.27347  82755000.01346  20209608.9384                   20209615.4734
 113468064.34947  88416703.17045  21592256.5554                   21592264.4454
 121010111.91347  94293655.49444  23027458.9224                   23027469.4064
 111237036.26948  86678238.66346  21167705.1254                   21167711.3364
 111215017.58448  86661074.80346  21163512.9534                   21163518.0394
 11  7 23 15 47  0.0000000  0  8G06G31G13G16G32G03G20G23
 121414224.53746  94608549.08543  23104360.1484                   23104369.5514
 126133187.532 7  98285627.888 6  24002349.219
 121499190.08447  94674903.93844  23120568.4064                   23120576.5044
 106201185.02247  82754198.77746  20209413.4924                   20209419.9104
 113531727.13547  88466310.51145  21604370.7664                   21604379.1524
 120920233.24247  94223620.27344  23010355.3674                   23010364.7584
 111272201.78947  86705640.35446  21174396.8984                   21174403.4774
 111150167.24947  86610542.08846  21151172.2504                   21151177.8054
 11  7 23 15 47 30.0000000  0  8G06G31G13G16G32G03G20G23
 121348219.31846  94557116.50243  23091799.3204                   23091808.8244
 126202238.209 6  98339433.543 6  24015489.211
 121412347.76747  94607234.64744  23104043.4614                   23104050.6914
 106200763.95347  82753870.67346  20209333.2664                   20209339.6604
 113595781.89647  88516223.28945  21616560.2114                   21616568.1954
 120830464.44047  94153670.64944  22993273.1414                   22993282.7544
 111307890.98547  86733450.10346  21181188.6094                   21181195.4964
 111085518.83148  86560166.69746  21138870.0164                   21138875.4184
 11  7 23 15 48  0.0000000  0  8G06G31G13G16G32G03G20G23
 121282441.03446  94505860.76544  23079282.9304                   23079290.9654
 126271239.069 6  98393200.402 7  24028619.508
 121325521.16646  94539577.57344  23087520.4144                   23087528.4534
 106200949.58947  82754015.31946  20209368.4144                   20209374.4654
 113660226.50947  88566439.83545  21628823.0164                   21628832.1724
 120740808.68646  94083809.13544  22976211.9304                   22976221.7544
 111344102.18748  86761666.60446  21188079.2274                   21188086.0704
 111021074.60548  86509950.43046  21126606.4304                   21126612.6484
 11  7 23 15 48 30.0000000  0  8G06G31G13G16G32G03G20G23
 121216892.78647  94454784.27844  23066809.6564                   23066817.9414
 126340190.455 7  98446928.742 6  24041740.719
 121238712.09347  94471934.18944  23071001.2734                   23071009.3204
 106201741.58947  82754632.47246  20209519.2034                   20209525.7234
 113725059.29747  88616958.84445  21641160.5314                   21641169.0394
 120651269.25347  94014038.24443  22959173.1334                   22959182.3204
 111380833.95148  86790288.75146  21195068.6024                   21195076.5594
 110956836.92548  86459895.11246  21114382.9614                   21114388.3324
 11  7 23 15 49  0.0000000  0  8G06G31G13G16G32G03G20G23
 121151576.76247  94403888.76744  23054380.2114                   23054389.5204
 126409091.390 7  98500617.706 6  24054852.031
 121151921.95047  94404305.57944  23054485.5004                   23054493.4844
 106203138.52848  82755720.99646  20209784.9924                   20209791.4804
 113790277.47847  88667778.18845  21653571.3134                   21653579.6684
 120561848.74746  93944360.02344  22942157.0784                   22942165.8794
 111418084.04848  86819314.75746  21202157.7584                   21202164.4344
 110892807.07548  86410001.74846  21102198.4144                   21102203.6804
 11  7 23 15 49 30.0000000  0  8G06G31G13G16G32G03G20G23
 121086497.01547  94353177.32944  23041995.7584                   23042005.0984
 126477942.296 7  98554267.725 6  24067953.961
 121065152.03347  94336692.71843  23037973.2974                   23037980.9694
 106205140.67348  82757281.11646  20210165.6484                   20210172.8794
 113855879.62747  88718896.71545  21666054.9694                   21666063.0984
 120472551.33646  93874777.69643  22925164.6484                   22925172.8284
 111455851.63648  86848744.04946  21209344.2114                   21209351.2774
 110828988.45948  86360272.97446  21090053.6564                   21090059.2624
 11  7 23 15 50  0.0000000  0  8G06G31G13G16G32G03G20G23
 121021655.44547  94302651.51544  23029656.5004                   23029665.8404
 126546742.545 6  98607878.259 6  24081046.727
 120978404.03547  94269096.91644  23021465.7504                   23021474.1684
 106207746.39648  82759311.56246  20210661.9614                   20210668.6484
 113921862.93947  88770312.25045  21678610.8754                   21678619.4614
 120383379.62446  93805293.32743  22908195.6804                   22908203.5004
 111494133.91647  86878574.37246  21216629.2344                   21216636.4064
 110765382.29648  86310709.74246  21077950.3444                   21077955.2544
 11  7 23 15 50 30.0000000  0  8G06G31G13G16G32G03G20G23
 120957055.80046  94252314.21944  23017363.1644                   23017372.2664
 126615492.136 6  98661449.338 6  24094128.398
 120891679.43647  94201519.33644  23004963.8524                   23004970.8754
 106210955.41948  82761812.10546  20211272.0474                   20211278.7624
 113988225.63147  88822023.38445  21691239.8984                   21691248.0554
 120294336.99646  93735909.55443  22891250.5004                   22891259.2544
 111532929.78448  86908804.90146  21224011.7114                   21224019.4414
 110701991.12448  86261314.02646  21065887.1804                   21065892.7074
 11  7 23 15 51  0.0000000  0  8G06G31G13G16G32G03G20G23
 120892700.71046  94202167.45644  23005117.0634                   23005126.0124
 126684191.147 6  98714980.988 6  24107201.711
 120804979.96647  94133961.36544  22988464.2974                   22988472.9384
 106214767.10248  82764782.25246  20211997.4454                   20212004.2814
 114054965.46047  88874028.41245  21703939.8054                   21703948.2814
 120205426.67146  93666628.90943  22874332.1334                   22874340.7464
 111572237.29248  86939434.11446  21231492.1334                   21231499.1914
 110638817.13448  86212087.55146  21053865.5704                   21053870.8714
 11  7 23 15 51 30.0000000  0  8G06G31G13G16G32G03G20G23
 120828593.20347  94152213.61043  22992917.7504                   22992926.7894
 126752839.416 6  98768473.109 6  24120265.367
 120718306.86747  94066423.91444  22971971.2664                   22971979.5554
 106219180.79048  82768221.48546  20212837.7584                   20212844.1094
 114122080.53647  88926325.82945  21716711.9534                   21716719.2704
 120116652.35546  93597454.24144  22857438.3674                   22857448.2034
 111612055.15948  86970460.99646  21239069.0784                   21239075.1484
 110575862.71248  86163032.16146  21041885.6724                   21041890.9304
 11  7 23 15 52  0.0000000  0  8G06G31G13G16G32G03G20G23
 120764736.06547  94102454.89344  22980765.5234                   22980774.9384
 126821436.579 7  98821925.469 6  24133318.852
 120631661.85947  93998908.32643  22955482.9064                   22955490.6094
 106224195.18048  82772128.81046  20213792.0474                   20213798.1884
 114189568.09047  88978913.51845  21729554.2734                   21729562.3244
 120028016.73546  93528387.61744  22840571.5004                   22840581.0944
 111652380.56548  87001883.37845  21246742.3524                   21246749.4614
 110513129.24348  86114148.94946  21029947.7814                   21029953.3834
 11  7 23 15 52 30.0000000  0  8G06G31G13G16G32G03G20G23
 120701132.98247  94052894.11244  22968662.3914                   22968672.0234
 126889983.304 6  98875338.446 5  24146363.023
 120545046.92347  93931416.20043  22939000.3444                   22939008.3204
 106229810.58448  82776504.45246  20214860.1644                   20214867.0784
 114257426.92247  89031790.50345  21742467.2424                   21742474.9884
 119939523.35146  93459431.80944  22823731.4924                   22823741.2664
 111693212.67548  87033700.57846  21254513.0084                   21254520.1804
 110450620.18348  86065440.60746  21018053.2344                   21018058.2304
 11  7 23 15 53  0.0000000  0  8G06G31G13G16G32G03G20G23
 120637785.87647  94003532.80043  22956608.3364                   22956616.9104
 126958478.529 6  98928711.338 6  24159396.680
 120458463.14546  93863948.38244  22922524.6884                   22922531.8714
 106236024.72748  82781346.65346  20216043.2504                   20216049.3524
 114325653.87047  89084954.32845  21755450.3984                   21755459.0044
 119851175.17246  93390589.15944  22806919.4844                   22806928.6954
 111734548.81948  87065910.53046  21262378.2194                   21262385.8634
 110388337.11848  86016908.35446  21006200.6334                   21006205.7854
 11  7 23 15 53 30.0000000  0  9G06G31G19G13G16G32G03G20G23
 120574698.17947  93954373.62043  22944603.3054                   22944611.4184
 127026922.627 6  98982044.295 6  24172421.117
 131650851.27615                  25052336.055
 120371912.28147  93796506.19644  22906054.0864                   22906061.2304
 106242837.41447  82786655.24746  20217339.4224                   20217345.9384
 114394247.05747  89138403.51545  21768503.4224                   21768511.8204
 119762975.68247  93321862.35444  22790136.1254                   22790145.4534
 111776387.16547  87098511.84045  21270339.7584                   21270347.4614
 110326282.17048  85968553.84646  20994392.1414                   20994397.3444
 11  7 23 15 54  0.0000000  0  9G06G31G19G13G16G32G03G20G23
 120511872.47746  93905418.60343  22932646.3674                   22932657.1804
 127095315.067 6  99035337.129 6  24185435.883
 131563790.95645 102517320.90052  25035768.7424                   25035777.4264
 120285395.69747  93729090.66344  22889590.7344                   22889598.3444
 106250247.12948  82792429.05846  20218749.1954                   20218755.7734
 114463203.83847  89192136.03845  21781625.5864                   21781633.3754
 119674928.04947  93253253.89444  22773381.0394                   22773389.7544
 111818726.00048  87131503.10245  21278397.2114                   21278404.0944
 110264457.21948  85920378.57946  20982626.8204                   20982632.2584
 11  7 23 15 54 30.0000000  0  9G06G31G19G13G16G32G03G20G23
 120449312.19446  93856670.42043  22920742.2194                   22920751.9454
 127163656.137 6  99088589.838 6  24198442.211
 131476546.67055 102449338.31652  25019165.4224                   25019176.6764
 120198915.33546  93661703.41344  22873133.4144                   22873141.7344
 106258253.61647  82798667.89146  20220272.9844                   20220279.4304
 114532522.61747  89246150.64145  21794816.2664                   21794824.6214
 119587035.74147  93184766.46544  22756655.5394                   22756664.4454
 111861563.38548  87164882.86746  21286548.9224                   21286555.7774
 110202865.11048  85872384.74246  20970906.2274                   20970911.8134
 11  7 23 15 55  0.0000000  0  9G06G31G19G13G16G32G03G20G23
 120387019.70347  93808130.87543  22908888.2734                   22908897.8134
 127231945.598 7  99141802.356 6  24211436.383
                                  25002526.3594                   25002540.4574
 120112472.73047  93594345.55344  22856684.3834                   22856691.9774
 106266855.47147  82805370.65246  20221910.1254                   20221916.2974
 114602200.64147  89300445.17345  21808075.6724                   21808083.7624
 119499301.56247  93116402.23444  22739960.0704                   22739968.2734
 111904897.20248  87198649.47746  21294794.9224                   21294802.0354
 110141507.43248  85824573.58946  20959230.6564                   20959235.5704
 11  7 23 15 55 30.0000000  0  9G06G31G19G13G16G32G03G20G23
 120324998.81746  93759802.93043  22897085.5704                   22897095.1994
 127300183.998 6  99194975.102 6  24224421.906
                                  24985857.1484                   24985870.6604
 120026069.80547  93527018.65644  22840241.7424                   22840250.0944
 106276052.95848  82812537.55646  20223659.7504                   20223666.2544
 114672236.54747  89355018.59345  21821402.6414                   21821411.0514
 119411729.89747  93048164.67144  22723296.3284                   22723304.4024
 111948726.27948  87232801.95445  21303135.4844                   21303142.6334
 110080387.35948  85776947.56446  20947599.7424                   20947604.9654
 11  7 23 15 56  0.0000000  0  9G06G31G19G13G16G32G03G20G23
 120263251.66546  93711688.31144  22885337.0474                   22885345.0004
 127368370.338 6  99248107.289 6  24237397.320
 131213732.61515                  24969152.992
 119939707.79947  93459723.61544  22823807.9924                   22823816.3364
 106285843.61948  82820166.66146  20225523.1094                   20225529.3794
 114742626.96947  89409868.22645  21834797.7344                   21834806.6054
 119324323.10446  92980055.51344  22706662.5784                   22706671.4534
 111993047.86348  87267338.23745  21311569.8914                   21311576.0474
 110019506.41548  85729507.88146  20936014.3444                   20936019.9534
 11  7 23 15 56 30.0000000  0  9G06G31G19G13G16G32G03G20G23
 120201781.10046  93663789.19644  22873638.5864                   22873647.2814
 127436504.984 6  99301199.166 6  24250362.578
 131125775.59015                  24952415.563
 119853388.77547  93392462.07844  22807383.0474                   22807391.0474
 106296226.74348  82828257.42446  20227498.9534                   20227505.2814
 114813369.93347  89464992.57545  21848259.4144                   21848268.1414
 119237083.92546  92912076.98644  22690061.9774                   22690070.6484
 112037859.83148  87302256.67446  21320096.6804                   21320104.4184
 109958866.78248  85682256.24246  20924475.2504                   20924480.4344
 11  7 23 15 57  0.0000000  0  9G06G31G19G13G16G32G03G20G23
 120140590.37046  93616108.15244  22861994.2734                   22862003.1174
 127504587.972 7  99354250.746 6  24263319.180
 131037646.57615                  24935644.680
 119767114.11547  93325235.10144  22790965.0634                   22790973.1134
 106307201.57048  82836809.24046  20229587.6254                   20229593.4654
 114884463.52147  89520390.14245  21861788.9454                   21861797.2344
 119150016.48147  92844232.29044  22673493.4454                   22673503.0164
 112083160.67848  87337555.99646  21328717.2894                   21328725.2234
 109898471.23848  85635194.81446  20912982.1804                   20912987.2114
 11  7 23 15 57 30.0000000  0  9G06G31G19G13G16G32G03G20G23
 120079682.45047  93568647.45144  22850404.1644                   22850413.2194
 127572619.308 7  99407262.109 6  24276265.203
 130949347.46014                  24918840.703
 119680885.62247  93258044.09944  22774555.9304                   22774564.3914
 106318766.88448  82845821.18546  20231788.1724                   20231794.8524
 114955905.05247  89576058.82745  21875383.0394                   21875392.2154
 119063124.04546  92776523.93944  22656958.0234                   22656967.4694
 112128948.20648  87373234.55345  21337430.5394                   21337438.2664
 109838321.85248  85588325.15846  20901536.5394                   20901541.1684
 11  7 23 15 58  0.0000000  0  9G06G31G19G13G16G32G03G20G23
 120019059.98747  93521409.19444  22838868.2584                   22838877.4804
 127640598.678 6  99460233.028 7  24289200.219
 130860881.053 5                  24902007.586
 119594704.94547  93190890.35944  22758156.2894                   22758164.4534
 106330921.27448  82855292.14546  20234101.0944                   20234107.3874
 115027692.21147  89631996.82745  21889044.2584                   21889052.7114
 118976409.56146  92708954.30044  22640456.9534                   22640465.9184
 112175220.05648  87409290.53446  21346236.1334                   21346242.8634
 109778420.31448  85541648.64546  20890136.9614                   20890142.5164
 11  7 23 15 58 30.0000000  0  9G06G31G19G13G16G32G03G20G23
 119958725.82847  93474395.61444  22827386.9304                   22827395.7194
 127708526.229 7  99513163.535 6  24302126.453
 130772249.883 5                  24885141.977
 119508573.69647  93123775.18244  22741765.5944                   22741774.2194
 106343663.94648  82865221.50246  20236526.3594                   20236532.6414
 115099822.73747  89688202.39245  21902769.6804                   21902778.3714
 118889876.60246  92641526.03744  22623989.6804                   22623999.0204
 112221974.51247  87445722.57945  21355132.2274                   21355139.8714
 109718769.62248  85495167.59246  20878786.2504                   20878790.9454
 11  7 23 15 59  0.0000000  0  9G06G31G19G13G16G32G03G20G23
 119898683.12847  93427609.12544  22815961.6174                   22815969.7114
 127776402.129 6  99566053.778 6  24315043.617
 130683456.32346 101831340.57952  24868244.9064                   24868253.8554
 119422493.92246  93056700.05744  22725384.9454                   22725393.4224
 106356994.05448  82875608.59346  20239063.0234                   20239068.8984
 115172294.65347  89744673.98145  21916561.0084                   21916569.6414
 118803528.58346  92574241.93144  22607558.7274                   22607567.0474
 112269209.46447  87482528.99845  21364121.6644                   21364129.0904
 109659371.47148  85448883.35246  20867482.8674                   20867488.2424
 11  7 23 15 59 30.0000000  0  9G06G31G19G13G16G32G03G20G23
 119838934.59047  93381051.86945  22804591.2974                   22804600.5124
 127844226.328 6  99618903.754 6  24327949.594
 130594502.95446 101762026.46842  24851317.1804                   24851328.0124
 119336467.11747  92989666.23344  22709015.2974                   22709023.0594
 106370910.07548  82886452.24346  20241710.6644                   20241717.5904
 115245105.04047  89801409.29345  21930416.4694                   21930424.4224
 118717368.91147  92507104.57644  22591162.5704                   22591171.3134
 112316922.54948  87519708.00246  21373201.2194                   21373208.1454
 109600228.64448  85402798.07046  20856228.8134                   20856233.6644
 11  7 23 16  0  0.0000000  0  9G06G31G19G13G16G32G03G20G23
 119779482.94347  93334725.94944  22793278.0474                   22793286.4574
 127911998.387 6  99671713.139 6  24340846.117
 130505392.24146 101692589.80742  24834360.1414                   24834371.1454
 119250495.20547  92922675.19244  22692655.2734                   22692662.9924
 106385410.87048  82897751.55146  20244470.2194                   20244476.8754
 115318251.99147  89858406.88145  21944336.3284                   21944344.1994
 118631400.52647  92440116.29444  22574803.4224                   22574812.1684
 112365111.99248  87557258.21045  21382371.3914                   21382377.9654
 109541343.11448  85356913.23946  20845023.4454                   20845028.3954
 11  7 23 16  0 30.0000000  0  9G06G31G19G13G16G32G03G20G23
 119720331.28447  93288633.77645  22782022.0084                   22782030.8284
 127979718.723 6  99724482.207 6  24353733.320
 130416126.484 5                  24817373.445
 119164579.95947  92855728.28544  22676305.7114                   22676314.0904
 106400495.18148  82909505.55646  20247340.6804                   20247347.3954
 115391732.92547  89915664.72445  21958318.3204                   21958327.6684
 118545626.67247  92373279.53044  22558481.0864                   22558489.5434
 112413775.11048  87595177.50045  21391631.3674                   21391637.8324
 109482717.00948  85311230.58346  20833866.6024                   20833872.0044
 11  7 23 16  1  0.0000000  0  9G06G31G19G13G16G32G03G20G23
 119661482.68747  93242777.76244  22770823.0394                   22770831.9224
 128047387.657 6  99777211.202 6  24366610.094
 130326708.642 6                  24800357.016
 119078723.21547  92788826.93844  22659968.5234                   22659975.8244
 106416162.35448  82921713.74046  20250322.0864                   20250328.5784
 115465545.70947  89973181.13645  21972364.7274                   21972374.0594
 118460050.99747  92306597.22344  22542197.0704                   22542204.9534
 112462910.33048  87633464.65646  21400981.9224                   21400989.5514
 109424352.91648  85265752.09746  20822760.3204                   20822765.3164
 11  7 23 16  1 30.0000000  0  9G06G31G19G13G16G32G03G20G23
 119602939.78747  93197159.94144  22759682.4774                   22759692.0204
 128115005.088 6  99829900.061 6  24379477.508
 130237141.04946 101483558.35353  24783313.3754                   24783323.6484
 118992926.29547  92721972.19544  22643641.3524                   22643648.8094
 106432410.53648  82934374.65446  20253414.1564                   20253421.0864
 115539688.05347  90030954.33745  21986473.9304                   21986482.8324
 118374676.73247  92240071.83644  22525950.8054                   22525959.6884
 112512515.31248  87672117.87645  21410421.3984                   21410428.0634
 109366253.39848  85220479.74946  20811704.4844                   20811709.7074
 11  7 23 16  2  0.0000000  0  9G06G31G19G13G16G32G03G20G23
 119544704.65047  93151781.94945  22748601.4614                   22748610.4534
 128182570.302 6  99882548.245 6  24392335.250
 130147425.60546 101413650.36043  24766240.5314                   24766252.1294
 118907191.24147  92655165.70344  22627326.5164                   22627333.6914
 106449237.70447  82947486.73146  20256616.1414                   20256622.4574
 115614156.51347  90088981.64345  22000645.6564                   22000653.4024
 118289506.81847  92173705.71944  22509743.6884                   22509752.6414
 112562587.25448  87711134.94746  21419949.1804                   21419957.0274
 109308419.57048  85175414.43846  20800698.8204                   20800703.7114
 11  7 23 16  2 30.0000000  0  9G06G31G19G13G16G32G03G20G23
 119486780.71847  93106646.45644  22737578.1644                   22737587.1644
 128250083.440 6  99935155.818 6  24405181.883
 130057565.18946 101343629.46942  24749140.5784                   24749151.5204
 118821519.88746  92588408.82944  22611023.9924                   22611031.1414
 106466643.10948  82961049.38846  20259928.0554                   20259934.3914
 115688949.45748  90147261.83545  22014877.6954                   22014885.9844
 118204544.53747  92107501.36244  22493574.8054                   22493584.3524
 112613124.82648  87750514.82146  21429566.5704                   21429574.0824
 109250854.22948  85130558.33246  20789745.2734                   20789749.7774
 11  7 23 16  3  0.0000000  0  9G06G31G19G13G16G32G03G20G23
 119429171.05247  93061755.85444  22726615.4844                   22726624.9304
 128317545.040 6  99987723.269 6  24418019.602
 129967562.58246 101273497.69542  24732012.9144                   24732024.1524
 118735914.33747  92521703.25644  22594733.5164                   22594740.6884
 106484625.99548  82975062.03146  20263349.8914                   20263356.2664
 115764064.66947  90205793.12545  22029171.5784                   22029179.5634
 118119793.56346  92041461.68144  22477447.4534                   22477456.6954
 112664125.39948  87790255.52046  21439271.7424                   21439278.7974
 109193560.18848  85085913.64546  20778841.9384                   20778847.1604
 11  7 23 16  3 30.0000000  0  9G06G31G19G13G16G32G03G20G23
 119371878.41147  93017112.25044  22715713.5634                   22715722.2304
 128384955.235 6 100040250.629 6  24430848.063
 129877420.23146 101203257.07942  24714860.1724                   24714869.8794
 118650376.10747  92455050.16644  22578456.4774                   22578464.0984
 106503184.78048  82989523.41746  20266881.9144                   20266888.2854
 115839499.53148  90264573.50245  22043526.1644                   22043534.6954
 118035257.19046  91975589.21344  22461360.5234                   22461369.9964
 112715586.63447  87830355.16045  21449064.7664                   21449071.1684
 109136539.75348  85041482.16546  20767991.4144                   20767996.6804
 11  7 23 16  4  0.0000000  0  9G06G31G19G13G16G32G03G20G23
 119314905.73947  92972718.02044  22704871.7584                   22704880.9924
 128452314.350 6 100092738.258 6  24443666.367
 129787140.83346 101132909.64743  24697680.3674                   24697690.7154
 118564907.23347  92388451.08644  22562192.0164                   22562199.4384
 106522318.40247  83004432.73446  20270522.7734                   20270529.1134
 115915252.06147  90323601.40845  22057941.3834                   22057949.9224
 117950939.02947  91909886.78744  22445316.3444                   22445324.9844
 112767506.82747  87870812.41646  21458944.3834                   21458951.3984
 109079795.09248  84997265.54846  20757193.1804                   20757198.3244
 11  7 23 16  4 30.0000000  0  9G06G31G19G13G16G32G03G20G23
 119258255.17047  92928574.75044  22694090.7194                   22694100.0634
 128519621.428 6 100145185.249 6  24456473.945
 129696726.96746 101062457.44143  24680476.1094                   24680484.3284
 118479508.95847  92321907.02844  22545941.1954                   22545949.3594
 106542024.27948  83019787.97046  20274272.7274                   20274279.0514
 115991318.81047  90382874.15845  22072416.1414                   22072424.7664
 117866841.29847  91844356.16944  22429312.5314                   22429321.8134
 112819882.86148  87911624.90245  21468911.1564                   21468918.7504
 109023327.60448  84953264.91846  20746447.8284                   20746452.5514
 11  7 23 16  5  0.0000000  0  9G06G31G19G13G16G32G03G20G23
 119201929.74847  92884684.83544  22683372.6884                   22683381.9884
 128586877.255 6 100197592.377 6  24469271.891
 129606181.28746 100991902.49943  24663245.4384                   24663254.3874
 118394183.50147  92255419.69944  22529703.9534                   22529712.6454
 106562301.64348  83035588.50946  20278131.3914                   20278138.4344
 116067698.09447  90442390.42645  22086951.2664                   22086959.4344
 117782967.72047  91779000.19744  22413352.1724                   22413360.9224
 112872712.69648  87952790.98945  21478964.7424                   21478971.6954
 108967140.45148  84909482.73046  20735755.6024                   20735760.4494
 11  7 23 16  5 30.0000000  0  9G06G31G19G13G16G32G03G20G23
 119145932.64147  92841050.74944  22672717.1334                   22672726.1524
 128654081.953 6 100249959.633 6  24482061.539
 129515506.16546 100921246.79943  24645989.3284                   24646000.1844
 118308933.00447  92188990.74544  22513481.7814                   22513489.0864
 106583149.24948  83051833.38546  20282098.6024                   20282105.2154
 116144387.44047  90502148.32445  22101544.1884                   22101553.4144
 117699321.98847  91713821.77644  22397434.1644                   22397443.9774
 112925994.24647  87994309.05645  21489103.0864                   21489110.6684
 108911235.78648  84865920.66946  20725117.3444                   20725123.0904
 11  7 23 16  6  0.0000000  0  9G06G31G19G13G16G32G03G20G23
 119090266.03247  92797674.21143  22662123.9384                   22662132.9414
 128721235.217 6 100302286.827 6  24494840.359
 129424704.09146 100850492.10443  24628709.7114                   24628720.4884
 118223758.98847  92122621.41844  22497273.5084                   22497281.0164
 106604565.08848  83068521.02646  20286173.5164                   20286180.1954
 116221383.98547  90562145.57045  22116196.4614                   22116205.6334
 117615907.15047  91648823.25845  22381561.0004                   22381569.9024
 112979724.95347  88036177.09945  21499328.4144                   21499335.7624
 108855615.70148  84822580.35046  20714532.9534                   20714539.5434
 11  7 23 16  6 30.0000000  0  9G06G31G19G13G16G32G03G20G23
 119034933.07947  92754557.66744  22651594.5634                   22651602.9654
 128788337.587 6 100354574.353 6  24507608.719
 129333777.92146 100779640.66643  24611407.5394                   24611417.8954
 118138663.56447  92056313.35344  22481079.8364                   22481088.3094
 106626548.13948  83085650.66546  20290357.2194                   20290363.6414
 116298685.41847  90622380.40345  22130906.3754                   22130915.1484
 117532726.75847  91584007.44245  22365732.4774                   22365741.8914
 113033902.59748  88078393.42745  21509637.7504                   21509644.9884
 108800282.80048  84779463.82046  20704003.7584                   20704008.6024
 11  7 23 16  7  0.0000000  0  9G06G31G19G13G16G32G03G20G23
 118979936.55947  92711703.26043  22641128.6094                   22641137.4804
 128855388.881 6 100406822.054 6  24520368.453
 129242730.15446 100708694.52143  24594081.5704                   24594091.8364
 118053648.59047  91990067.99345  22464902.7734                   22464911.4344
 106649096.92248  83103221.13746  20294648.0164                   20294654.4024
 116376289.68147  90682851.21945  22145674.0234                   22145682.5904
 117449784.17347  91519376.88645  22349949.0634                   22349957.4964
 113088525.10547  88120956.39845  21520032.1024                   21520039.5314
 108745239.52748  84736572.95646  20693529.6174                   20693534.3324
 11  7 23 16  7 30.0000000  0  9G06G31G19G13G16G32G03G20G23
 118925279.19147  92669113.12843  22630727.3984                   22630736.2974
 128922389.171 6 100459030.027 6  24533117.250
 129151563.85046 100637655.99543  24576732.6804                   24576742.5314
 117968716.10447  91923886.86844  22448740.3674                   22448748.9534
 106672210.00348  83121231.32646  20299046.2894                   20299052.8364
 116454193.92447  90743555.78045  22160498.8984                   22160507.6134
 117367082.73347  91454934.27544  22334211.5784                   22334221.0164
 113143589.97247  88163864.06145  21530511.0944                   21530518.4414
 108690487.85648  84693909.32646  20683110.7584                   20683116.1054
 11  7 23 16  8  0.0000000  0  9G06G31G19G13G16G32G03G20G23
 118870963.25147  92626789.06144  22620391.3134                   22620400.5314
 128989338.744 6 100511198.473 6  24545858.531
 129060280.99146 100566526.62043  24559362.4844                   24559371.6914
 117883867.56447  91857771.15244  22432594.2034                   22432602.2154
 106695885.04048  83139679.40546  20303551.5394                   20303558.1484
 116532395.28047  90804491.85645  22175380.2424                   22175388.8134
 117284625.39147  91390681.85945  22318520.8134                   22318529.8444
 113199094.37347  88207114.23745  21541073.0864                   21541080.2504
 108636029.56348  84651474.29446  20672747.2424                   20672752.4924
 11  7 23 16  8 30.0000000  0  9G06G31G19G13G16G32G03G20G23
 118816991.96447  92584733.52544  22610121.5314                   22610130.3134
 129056237.514 6 100563327.296 6  24558588.648
 128968884.54746 100495308.75243  24541970.6094                   24541979.8204
 117799105.19047  91791722.60944  22416464.1174                   22416471.7234
 106720120.99148  83158564.56146  20308163.9304                   20308169.4614
 116610891.73647  90865657.88745  22190318.0394                   22190326.0234
 117202415.36747  91326622.15044  22302875.9384                   22302884.6604
 113255036.13147  88250705.19345  21551718.8054                   21551725.7274
 108581867.59148  84609270.16746  20662440.5634                   20662446.0394
 11  7 23 16  9  0.0000000  0  9G06G31G19G13G16G32G03G20G23
 118763367.99747  92542948.65744  22599917.2584                   22599926.2584
 129123085.888 6 100615416.951 6  24571308.844
 128877377.32246 100424004.51943  24524557.1174                   24524566.7624
 117714431.01447  91725742.78544  22400351.4924                   22400358.5394
 106744916.57348  83177885.78846  20312882.1334                   20312887.9344
 116689680.86947  90927051.93545  22205310.8914                   22205319.6024
 117120456.55347  91262758.18944  22287280.3754                   22287288.5824
 113311412.91647  88294635.13345  21562446.1724                   21562454.2154
 108528004.30248  84567298.78546  20652190.6954                   20652195.9534
 11  7 23 16  9 30.0000000  0  9G06G31G19G13G16G32G03G20G23
 118710093.96647  92501436.46544  22589779.7974                   22589788.6054
 129189883.623 6 100667467.080 6  24584019.422
 128785761.92646 100352615.96343  24507123.0634                   24507132.1684
 117629846.82247  91659833.05844  22384255.5704                   22384262.8874
 106770269.54048  83197641.35446  20317706.3674                   20317712.5784
 116768759.94647  90988671.94145  22220359.2894                   22220368.0204
 117038751.83447  91199092.23544  22271732.0784                   22271739.9804
 113368222.22847  88338902.06946  21573257.2034                   21573264.4414
 108474441.87548  84525561.81446  20641998.6254                   20642003.6454
 11  7 23 16 10  0.0000000  0  9G06G31G19G13G16G32G03G20G23
 118657172.90347  92460199.33544  22579708.9614                   22579718.0594
 129256631.457 6 100719478.288 6  24596721.633
 128694041.39746 100281145.51843  24489669.6564                   24489679.1524
 117545354.78547  91593995.11944  22368176.6094                   22368184.0664
 106796179.04948  83217830.60146  20322636.7584                   20322643.1294
 116848126.64647  91050516.09545  22235461.9614                   22235470.7624
 116957304.66747  91135626.96244  22256232.9844                   22256241.5234
 113425461.96647  88383504.45645  21584149.5234                   21584156.1644
 108421182.96948  84484061.39646  20631863.4774                   20631868.9884
 11  7 23 16 10 30.0000000  0 10G06G31G19G13G16G32G07G03G20G23
 118604606.65446  92419238.66544  22569705.2734                   22569714.1604
 129323328.835 7 100771450.153 6  24609415.195
 128602217.58646 100209594.56943  24472195.3364                   24472205.6174
 117460956.47547  91528230.23044  22352116.5314                   22352123.9104
 106822642.55348  83238451.53146  20327672.6254                   20327678.9454
 116927777.94247  91112581.99045  22250619.4694                   22250628.3594
 129629876.05315                  24667749.773
 116876117.92547  91072364.62144  22240784.3524                   22240792.0944
 113483129.16047  88428439.92045  21595123.1024                   21595129.9064
 108368229.19548  84442798.72346  20621786.4924                   20621791.6884
 11  7 23 16 11  0.0000000  0 10G06G31G19G13G16G32G07G03G20G23
 118552398.42246  92378556.97244  22559771.1884                   22559779.8164
 129389976.190 6 100823383.119 6  24622097.523
 128510293.59946 100137965.50943  24454702.9064                   24454712.1724
 117376654.03147  91462540.03844  22336074.5164                   22336082.5944
 106849658.74848  83259503.11346  20332814.1094                   20332820.1374
 117007711.71847  91174868.00845  22265830.0394                   22265839.0314
 129565095.176 4 100959871.09015  24655422.992
 116795195.24347  91009308.04145  22225384.0784                   22225393.9694
 113541221.45747  88473706.61945  21606177.7504                   21606184.3404
 108315583.27148  84401775.92346  20611768.3444                   20611773.5634
 11  7 23 16 11 30.0000000  0  9G06G31G19G13G16G32G03G20G23
 118500550.86446  92338156.33744  22549904.7504                   22549914.1644
 129456573.809 6 100875277.340 6  24634770.766
 128418272.52146 100066260.81343  24437191.7974                   24437200.4654
 117292449.54847  91396926.20444  22320050.6564                   22320058.6884
 106877225.83847  83280983.95046  20338059.5474                   20338065.9454
 117087925.41747  91237372.12445  22281094.0634                   22281102.7194
 116714539.82547  90946459.74344  22210036.0944                   22210044.4804
 113599736.77147  88519302.94145  21617312.7274                   21617319.9734
 108263247.37448  84360994.73146  20601808.8364                   20601814.5044
 11  7 23 16 12  0.0000000  0  9G06G31G19G13G16G32G03G20G23
 118449066.47347  92298038.68244  22540107.7344                   22540116.0274
 129523121.831 6 100927132.862 6  24647433.758
 128326156.84246  99994482.39743  24419663.2344                   24419672.2464
 117208345.00747  91331390.27144  22304046.1024                   22304053.7624
 106905342.23048  83302892.82346  20343409.8204                   20343416.0164
 117168416.25847  91300092.20345  22296410.5164                   22296420.0514
 116634155.08347  90883822.30245  22194739.5554                   22194747.8834
 113658672.23347  88565226.64945  21628527.9694                   21628535.2704
 108211223.74648  84320456.84346  20591909.2344                   20591914.3054
 11  7 23 16 12 30.0000000  0  9G06G31G19G13G16G32G03G20G23
 118397947.68947  92258205.91944  22530379.9924                   22530388.2854
 129589620.190 6 100978949.670 6  24660088.336
 128233948.98046  99922632.17443  24402116.4924                   24402126.5664
 117124342.39947  91265933.68644  22288060.6564                   22288068.7584
 106934005.78147  83325228.05346  20348864.4774                   20348870.7384
 117249181.80247  91363026.33745  22311780.5944                   22311789.3364
 116554043.85047  90821398.00245  22179494.4064                   22179503.7854
 113718025.08347  88611475.58645  21639821.8984                   21639829.8834
 108159514.66348  84280164.06446  20582069.3594                   20582074.1174
 11  7 23 16 13  0.0000000  0  9G06G31G19G13G16G32G03G20G23
 118347197.46146  92218660.36144  22520722.3364                   22520731.3754
 129656069.247 6 101030728.082 6  24672732.820
 128141652.10246  99850712.55543  24384552.7814                   24384562.6134
 117040443.63847  91200558.08544  22272095.8054                   22272102.9694
 106963214.97348  83347988.44946  20354422.5784                   20354428.8484
 117330219.35347  91426172.42545  22327201.7584                   22327210.1214
 116474209.65347  90759189.61045  22164302.5004                   22164311.9184
 113777792.98347  88658047.93645  21651195.4694                   21651202.5204
 108108122.37148  84240118.14446  20572290.1094                   20572295.0274
 11  7 23 16 13 30.0000000  0  9G06G31G19G13G16G32G03G20G23
 118296818.54846  92179404.13944  22511135.3364                   22511145.0004
 129722469.020 6 101082468.115 6  24685368.070
 128049268.89845  99778725.74942  24366971.8364                   24366982.6954
 116956651.11247  91135265.23844  22256149.4224                   22256158.2274
 106992968.41748  83371172.95046  20360084.4694                   20360091.1954
 117411526.67347  91489528.71045  22342673.7274                   22342682.3364
 116394656.28447  90697200.05045  22149164.6804                   22149173.1604
 113837973.68547  88704941.97545  21662648.2034                   21662655.0554
 108057049.54948  84200321.15046  20562570.8674                   20562576.0864
 11  7 23 16 14  0.0000000  0  9G06G31G19G13G16G32G03G20G23
 118246813.66147  92140439.37444  22501619.5864                   22501628.7664
 129788820.274 6 101134170.341 6  24697994.797
 127956802.55146  99706674.15943  24349377.9774                   24349386.9844
 116872966.71547  91070056.64944  22240226.0164                   22240233.3134
 107023264.56648  83394780.32746  20365849.9304                   20365856.1094
 117493101.52447  91553093.45845  22358197.3674                   22358205.3364
 116315386.88747  90635431.73645  22134080.0004                   22134088.6254
 113898564.86447  88752155.85045  21674177.7424                   21674185.7154
 108006298.62448  84160774.97146  20552913.5554                   20552918.4734
 11  7 23 16 14 30.0000000  0  9G06G31G19G13G16G32G03G20G23
 118197184.68547  92101767.50544  22492175.6884                   22492184.1604
 129855122.361 6 101185834.253 6  24710611.813
 127864255.01546  99634559.34643  24331765.4844                   24331775.5904
 116789391.89547  91004933.45945  22224322.0864                   22224329.9734
 107054100.30648  83418808.16246  20371717.7114                   20371724.0984
 117574940.29447  91616863.86145  22373770.6334                   22373779.6054
 116236404.27647  90573886.92845  22119049.2974                   22119058.9454
 113959562.99347  88799686.82845  21685785.6094                   21685792.8834
 107955871.10848  84121480.80046  20543317.3134                   20543322.5904
 11  7 23 16 15  0.0000000  0 10G06G31G19G13G16G32G07G03G20G23
 118147934.77047  92063390.99044  22482803.2504                   22482811.8954
 129921376.046 6 101237460.411 6  24723219.258
 127771629.54346  99562383.81243  24314138.6484                   24314149.4844
 116705928.94347  90939897.41244  22208439.4924                   22208447.3164
 107085474.53747  83443255.60746  20377688.3984                   20377694.5554
 117657040.98847  91680838.37345  22389393.7114                   22389402.5044
                                  24557234.320
 116157712.33947  90512568.61045  22104074.6884                   22104083.7974
 114020966.25647  88847533.49645  21697470.4454                   21697477.7814
 107905770.03048  84082441.01446  20533783.3984                   20533788.4454
 11  7 23 16 15 30.0000000  0 10G06G31G19G13G16G32G07G03G20G23
 118099066.35147  92025311.78244  22473503.7034                   22473512.5864
 129987581.585 6 101289049.089 6  24735817.891
 127678929.06646  99490149.82643  24296499.2194                   24296509.1954
 116622580.46247  90874950.56245  22192578.4144                   22192586.8364
 107117385.56648  83468121.33546  20383760.1024                   20383767.1484
 117739401.03247  91745014.97944  22405066.2584                   22405074.7544
 128984949.08214 100507757.31415  24545012.203
 116079313.89847  90451478.98644  22089155.8444                   22089164.2034
 114082771.90047  88895693.69145  21709231.6954                   21709238.8094
 107855997.74648  84043657.41046  20524312.4774                   20524318.0554
 11  7 23 16 16  0.0000000  0 10G06G31G19G13G16G32G07G03G20G23
 118050581.57646  91987531.49844  22464278.3594                   22464286.7274
 130053738.627 6 101340599.961 6  24748407.070
 127586155.76946  99417859.16543  24278844.9064                   24278854.4884
 116539348.11247  90810094.21745  22176740.2504                   22176748.3094
 107149830.94748  83493403.44646  20389934.6644                   20389941.1134
 117822017.50747  91809391.39844  22420787.5554                   22420796.4344
 128920789.998 5 100457763.231 5  24532804.961
 116001211.94047  90390620.37944  22074294.2424                   22074302.4104
 114144976.71647  88944164.94045  21721068.4064                   21721075.9494
 107806555.84448  84005131.26246  20514904.0234                   20514909.3794
 11  7 23 16 16 30.0000000  0 10G06G31G19G13G16G32G07G03G20G23
 118002483.61847  91950052.61644  22455125.3914                   22455133.8984
 130119847.633 6 101392113.407 6  24760987.227
 127493313.20646  99345514.50643  24261177.7344                   24261186.3594
 116456234.01547  90745329.99545  22160924.2034                   22160931.6844
 107182809.30148  83519100.84646  20396210.4224                   20396216.6804
 117904888.16247  91873965.85945  22436557.6644                   22436566.5394
 128856690.870 5 100407815.925 4  24520606.711
 115923410.32847  90329995.80945  22059489.3284                   22059497.2464
 114207578.97747  88992945.90045  21732981.1024                   21732988.6334
 107757447.06548  83966864.68846  20505558.7424                   20505563.5984
 11  7 23 16 17  0.0000000  0 10G06G31G19G13G16G32G07G03G20G23
 117954774.58247  91912876.82944  22446046.2664                   22446054.8524
 130185909.129 6 101443589.893 6  24773558.695
 127400403.76046  99273117.72043  24243496.5004                   24243506.1484
 116373240.39347  90680659.69445  22145131.7344                   22145138.2584
 107216318.95648  83545212.25646  20402587.0864                   20402593.5164
 117988010.31547  91938736.31744  22452375.6094                   22452384.7344
 128792652.24215                  24508419.758
 115845912.11047  90269607.65045  22044741.4694                   22044749.9024
 114270575.38847  89042033.97345  21744969.4384                   21744976.8834
 107708673.34148  83928859.19946  20496277.2664                   20496282.6644
 11  7 23 16 17 30.0000000  0 10G06G31G19G13G16G32G07G03G20G23
 117907457.09947  91876006.10644  22437042.2584                   22437050.2504
 130251923.050 6 101495029.253 6  24786119.445
 127307430.46546  99200671.17443  24225804.9454                   24225813.8404
 116290369.26147  90616084.83445  22129361.1174                   22129368.8834
 107250357.25547  83571735.59646  20409063.9844                   20409070.8014
 118071381.11547  92003700.51145  22468240.6334                   22468249.6414
 128728672.179 5 100308057.40214  24496243.797
 115768720.60247  90209458.46545  22030052.0784                   22030060.7384
 114333963.70547  89091427.43645  21757031.5314                   21757039.4454
 107660237.49048  83891116.98146  20487060.2974                   20487065.5744
 11  7 23 16 18  0.0000000  0 10G06G31G19G13G16G32G07G03G20G23
 117860533.65547  91839442.43844  22428113.0704                   22428121.0784
 130317889.722 6 101546431.751 6  24798673.477
 127214395.95046  99128176.93743  24208099.7814                   24208110.0354
 116207622.66347  90551607.01944  22113614.0704                   22113622.9774
 107284922.35548  83598669.43846  20415641.2034                   20415647.9804
 118154998.28047  92068856.68245  22484151.9694                   22484161.1564
                                  24484078.820
 115691839.12347  90149550.90045  22015422.5944                   22015430.9884
 114397741.58747  89141124.41345  21769168.6724                   21769175.4104
 107612141.46848  83853639.57646  20477907.9144                   20477913.1334
 11  7 23 16 18 30.0000000  0 10G06G31G19G13G16G32G07G03G20G23
 117814007.14247  91803188.04044  22419259.0704                   22419267.1764
 130383809.677 6 101597797.867 6  24811218.602
 127121303.45446  99055637.50643  24190385.0474                   24190395.1484
 116125002.90547  90487228.01744  22097892.5554                   22097900.3094
 107320012.77748  83626012.61746  20422318.9454                   20422325.6214
 118238859.29047  92134202.84744  22500110.6644                   22500119.1334
 128600887.66914 100208485.29414  24471927.914
 115615270.85347  90089887.38645  22000851.7584                   22000861.1134
 114461906.00747  89191122.63945  21781378.3524                   21781385.6604
 107564387.96048  83816429.06146  20468820.6884                   20468825.8714
 11  7 23 16 19  0.0000000  0 10G06G31G19G13G16G32G07G03G20G23
 117767879.72847  91767244.64344  22410481.6024                   22410489.5274
 130449682.958 6 101649127.638 6  24823753.656
 127028155.67446  98983054.95443  24172659.7034                   24172669.1994
 116042511.75547  90422949.23745  22082194.9614                   22082202.3594
 107355626.58248  83653763.62646  20429096.4224                   20429102.7584
 118322961.33347  92199736.83545  22516114.5704                   22516123.3284
 128537082.517 5 100158766.970 5  24459785.773
 115539019.13447  90030470.54045  21986341.5164                   21986349.6724
 114526454.15547  89241419.87745  21793661.5474                   21793669.3014
 107516978.84748  83779486.91046  20459798.8364                   20459804.1214
 11  7 23 16 19 30.0000000  0 10G06G31G19G13G16G32G07G03G20G23
 117722153.86947  91731614.14344  22401780.0314                   22401788.0394
 130515509.779 6 101700421.250 6  24836279.109
 126934955.58946  98910431.65143  24154924.7114                   24154932.7734
 115960151.83347  90358772.69744  22066522.8674                   22066529.6684
 107391761.83448  83681920.95946  20435972.6414                   20435978.9264
 118407301.70747  92265456.54544  22532164.8054                   22532172.8874
 128473335.02315 100109093.67015  24447654.148
 115463086.95747  89971302.64845  21971892.1724                   21971900.0124
 114591383.67547  89292014.28045  21806017.5864                   21806024.5594
 107469917.01348  83742815.35646  20450843.2974                   20450848.6484
 11  7 23 16 20  0.0000000  0 10G06G31G19G13G16G32G07G03G20G23
 117676831.70447  91696298.20344  22393155.0864                   22393163.6764
 130581290.156 6 101751678.663 6  24848796.992
 126841705.29146  98837769.24943  24137179.1174                   24137188.2464
 115877924.99747  90294699.87244  22050876.0004                   22050882.5864
 107428415.65648  83710482.38246  20442947.8134                   20442954.4964
 118491877.63147  92331359.79345  22548258.4454                   22548267.0664
 128409644.55215 100059464.79515  24435536.516
 115387477.54447  89912386.28745  21957504.1334                   21957512.4654
 114656691.33447  89342903.29645  21818444.9924                   21818452.3014
 107423204.02948  83706415.63746  20441954.2734                   20441958.8674
 11  7 23 16 20 30.0000000  0 10G06G31G19G13G16G32G07G03G20G23
 117631915.66346  91661298.73844  22384608.6094                   22384616.7974
 130647024.369 6 101802900.059 5  24861306.023
 126748408.11146  98765070.25843  24119425.8134                   24119434.4304
 115795833.17947  90230732.25444  22035253.6094                   22035261.4344
 107465586.21448  83739446.43446  20450020.6954                   20450027.5204
 118576686.53647  92397444.59044  22564397.2814                   22564405.2384
 128346010.374 5 100009879.817 4  24423426.328
 115312193.80647  89853723.68845  21943177.6724                   21943186.1254
 114722374.36747  89394084.83745  21830943.5474                   21830951.2504
 107376841.92348  83670289.34146  20433131.8594                   20433136.4144
 11  7 23 16 21  0.0000000  0 10G06G31G19G13G16G32G07G03G20G23
 117587408.74347  91626618.05644  22376138.4454                   22376147.3714
 130712713.320 6 101854086.194 5  24873806.305
 126655067.60746  98692337.58843  24101663.2194                   24101672.8164
 115713878.76347  90166871.72044  22019658.5864                   22019666.4614
 107503272.37048  83768812.25546  20457192.0234                   20457198.3164
 118661725.99547  92463709.00644  22580579.7734                   22580588.2934
 128282432.786 5  99960338.862 5  24411327.617
 115237239.64347  89795317.92045  21928915.3204                   21928922.8444
 114788430.88247  89445557.41045  21843514.2974                   21843521.4184
 107330833.91648  83634438.94246  20424376.8914                   20424381.7814
 11  7 23 16 21 30.0000000  0 10G06G31G19G13G16G32G07G03G20G23
 117543312.84247  91592257.66344  22367747.0554                   22367756.0594
 130778356.603 6 101905236.759 6  24886298.680
 126561686.05546  98619572.90143  24083893.2424                   24083902.4304
 115632063.93047  90103119.90145  22004089.5314                   22004096.4494
 107541470.95148  83798577.36946  20464461.2274                   20464467.2934
 118746993.31847  92530151.01044  22596806.2034                   22596813.4574
 128218910.621 5  99910841.206 5  24399240.250
 115162618.05747  89737171.28544  21914714.2344                   21914722.7154
 114854857.75947  89497318.60245  21856154.7734                   21856162.0554
 107285181.98648  83598866.02246  20415689.8134                   20415694.4804
 11  7 23 16 22  0.0000000  0 10G06G31G19G13G16G32G07G03G20G23
 117499630.69847  91558219.64944  22359435.1414                   22359443.4384
 130843954.536 6 101956351.970 5  24898781.492
 126468266.51246  98546778.59843  24066114.9454                   24066124.3014
 115550391.22147  90039478.85245  21988547.6174                   21988554.2304
 107580180.64648  83828740.75746  20471827.7584                   20471833.7504
 118832485.77747  92596768.43244  22613074.4614                   22613082.9734
 128155444.046 5  99861386.739 5  24387160.820
 115088332.13247  89679286.21445  21900578.1024                   21900586.9064
 114921652.31847  89549366.28245  21868865.5554                   21868872.8134
 107239888.15748  83563572.13846  20407070.3054                   20407075.3324
 11  7 23 16 22 30.0000000  0 10G06G31G19G13G16G32G07G03G20G23
 117456364.62947  91524505.86644  22351201.5474                   22351210.0904
 130909507.830 6 102007432.411 6  24911255.477
 126374812.12746  98473957.16343  24048332.2894                   24048340.9454
 115468862.43347  89975949.95345  21973033.0704                   21973040.9064
 107619399.19748  83859300.63046  20479290.4694                   20479297.1804
 118918200.73847  92663559.23944  22629385.5004                   22629394.2704
 128092032.388 6  99811975.124 5  24375096.102
 115014385.03747  89621665.16545  21886506.1564                   21886514.9384
 114988811.76947  89601698.26445  21881645.3524                   21881653.1994
 107194954.80948  83528559.15746  20398519.8524                   20398524.5594
 11  7 23 16 23  0.0000000  0 10G06G31G19G13G16G32G07G03G20G23
 117413516.77646  91491117.96444  22343047.8284                   22343056.8914
 130975016.387 6 102058478.027 5  24923720.625
 126281325.35946  98401110.44443  24030541.3594                   24030550.7074
 115387479.69747  89912534.89745  21957546.2114                   21957554.1564
 107659123.98648  83890255.00346  20486850.0554                   20486856.4344
 119004135.45947  92730521.28845  22645738.4774                   22645746.6484
                                  24363039.250
 114940780.11647  89564310.72745  21872499.8364                   21872508.0664
 115056333.07947  89654312.19645  21894494.3754                   21894501.5984
 107150383.79748  83493828.50346  20390037.8674                   20390043.7854
 11  7 23 16 23 30.0000000  0 10G06G31G19G13G16G32G07G03G20G23
 117371089.62947  91458057.85844  22334974.8444                   22334982.8914
 131040480.794 6 102109489.200 6  24936178.883
 126187809.39046  98328240.95743  24012745.4614                   24012755.4694
 115306245.72347  89849235.75345  21942087.9614                   21942096.0314
 107699353.65548  83921602.78946  20494505.1804                   20494511.7034
 119090287.43847  92797652.61044  22662133.0164                   22662141.6054
 127965371.76415  99713278.56615  24350991.625
 114867520.47047  89507225.34544  21858559.1024                   21858567.1024
 115124213.77447  89707206.21245  21907412.0634                   21907418.9344
 107106178.00648  83459382.44546  20381626.1334                   20381631.0394
 11  7 23 16 24  0.0000000  0 10G06G31G19G13G16G32G07G03G20G23
 117329085.99646  91425327.79344  22326981.1804                   22326989.7814
 131105901.496 6 102160466.313 6  24948627.914
 126094267.59746  98255351.39343  23994945.1414                   23994955.0354
 115225162.22447  89786053.81645  21926658.5084                   21926665.9064
 107740086.26948  83953342.47646  20502256.7734                   20502263.2734
 119176654.06447  92864951.20845  22678567.3984                   22678576.3054
 127902122.932 6  99663993.714 4  24338956.875
 114794609.69147  89450411.80545  21844684.3134                   21844692.4884
 115192451.36347  89760378.34545  21920396.9614                   21920404.1214
 107062340.03048  83425222.99046  20373284.5084                   20373289.3204
 11  7 23 16 24 30.0000000  0 10G06G31G19G13G16G32G07G03G20G23
 117287507.48747  91392928.99344  22319069.0084                   22319077.5394
 131171278.252 6 102211409.204 5  24961068.617
 126000702.32546  98182443.45343  23977140.6024                   23977148.5394
 115144231.40348  89722990.88045  21911258.1724                   21911265.0744
 107781318.70748  83985471.63646  20510102.8444                   20510109.1604
 119263232.60447  92932414.94944  22695042.4384                   22695052.1414
 127838927.132 5  99614750.219 5  24326932.070
 114722050.71947  89393872.38245  21830877.0004                   21830885.1334
 115261042.68447  89813826.07445  21933449.4924                   21933456.7664
 107018871.51648  83391351.43646  20365012.1174                   20365017.1914
 11  7 23 16 25  0.0000000  0 10G06G31G19G13G16G32G07G03G20G23
 117246356.81047  91360863.54244  22311238.2424                   22311247.2274
 131236611.762 5 102262318.388 5  24973501.203
 125907116.26846  98109519.34443  23959332.0784                   23959340.2894
 115063455.82748  89660048.89145  21895886.9304                   21895894.4024
 107823049.31948  84017989.01046  20518043.8914                   20518050.2584
 119350020.43447  93000041.72844  22711558.2974                   22711567.3324
 127775784.317 5  99565548.107 4  24314914.469
 114649846.73247  89337609.58545  21817136.7344                   21817145.3284
 115329985.19347  89867547.45045  21946568.5474                   21946576.5234
 106975774.81448  83357769.59146  20356811.4774                   20356816.6334
 11  7 23 16 25 30.0000000  0 10G06G31G19G13G16G32G07G03G20G23
 117205635.95647  91329133.04345  22303489.8284                   22303497.9024
 131301901.955 6 102313193.795 6  24985926.078
 125813513.47847  98036582.23244  23941520.4614                   23941528.0944
 114982837.20247  89597229.21345  21880545.2734                   21880552.8754
 107865275.58948  84050892.58346  20526079.3204                   20526085.1334
 119437014.52947  93067829.26044  22728113.0864                   22728122.2304
 127712693.867 5                  24302909.523
 114578000.39147  89281625.45645  21803464.8204                   21803473.8444
 115399275.78047  89921540.07845  21959754.6804                   21959762.2274
 106933051.84248  83324478.98946  20348681.0634                   20348686.5984
 11  7 23 16 26  0.0000000  0 10G06G31G19G13G16G32G07G03G20G23
 117165347.13147  91297739.14144  22295822.8594                   22295831.3134
 131367149.529 5 102364035.944 5  24998341.836
 125719896.49046  97963634.05944  23923704.6804                   23923713.5124
 114902378.26947  89534533.97745  21865234.3984                   21865241.5394
 107907995.55448  84084180.88846  20534208.2734                   20534215.0004
 119524212.37747  93135775.53644  22744706.0164                   22744715.5044
 127649655.405 6                  24290914.094
 114506514.97047  89225922.56945  21789862.2734                   21789869.8794
 115468912.01447  89975802.02445  21973006.0634                   21973013.0864
 106890705.25948  83291481.64246  20340623.4534                   20340627.6484
 11  7 23 16 26 30.0000000  0 10G06G31G19G13G16G32G07G03G20G23
 117125492.34047  91266683.48245  22288238.2814                   22288247.5394
 131432354.450 5 102414844.928 6  25010750.602
 125626267.59947  97890676.60043  23905887.7114                   23905896.3484
 114822081.12847  89471964.79945  21849954.4924                   21849962.3094
 107951206.67448  84117851.88646  20542431.2974                   20542437.4574
 119611611.10847  93203878.35444  22761337.3834                   22761347.3914
                                  24278926.719
 114435393.61947  89170503.36645  21776328.1334                   21776336.7734
 115538890.14347  90030330.40145  21986322.4384                   21986329.9304
 106848736.62548  83258778.81046  20332637.0784                   20332641.5984
 11  7 23 16 27  0.0000000  0 10G06G31G19G13G16G32G07G03G20G23
 117086074.28147  91235968.12445  22280737.1334                   22280746.4964
 131497517.328 5 102465621.137 6  25023149.469
 125532630.48946  97817712.72743  23888069.2034                   23888076.9964
 114741947.73947  89409523.20545  21834705.8674                   21834713.3794
 107994906.82848  84151903.95246  20550747.2814                   20550753.3834
 119699208.26747  93272135.79344  22778007.0164                   22778015.8444
 127523732.802 6  99369153.904 5  24266951.797
 114364639.64347  89115370.42945  21762864.0394                   21762872.4344
 115609207.67147  90085123.22445  21999703.8284                   21999710.0744
 106807148.76448  83226372.69246  20324722.6804                   20324728.0704
 11  7 23 16 27 30.0000000  0 10G06G31G19G13G16G32G07G03G20G23
 117047095.31347  91205594.92545  22273320.6804                   22273328.8754
 131562638.630 5 102516364.816 5  25035541.852
 125438988.03646  97744744.63944  23870249.7734                   23870257.6564
 114661980.80348  89347211.34445  21819489.0234                   21819495.8094
 108039094.28348  84186335.72646  20559156.1564                   20559162.5124
 119787001.24547  93340545.83044  22794713.6094                   22794722.4964
 127460847.985 5  99320152.663 5  24254984.297
 114294256.37347  89060526.34145  21749470.4844                   21749478.9734
 115679862.42847  90140178.84845  22013148.2974                   22013155.5984
 106765944.02748  83194265.13946  20316881.5234                   20316886.9654
 11  7 23 16 28  0.0000000  0 10G06G31G19G13G16G32G07G03G20G23
 117008557.27847  91175565.31745  22265986.3284                   22265995.5474
 131627718.288 5 102567076.153 5  25047927.633
 125345343.10446  97671774.70244  23852429.3594                   23852438.5514
 114582182.30047  89285030.72145  21804303.3364                   21804310.6174
 108083766.24248  84221145.03646  20567656.5784                   20567663.4734
 119874987.24947  93409106.27344  22811456.0944                   22811465.4304
 127398013.707 4  99271190.969 5  24243026.969
 114224246.93147  89005973.57145  21736148.4144                   21736156.5234
 115750851.46247  90195494.88045  22026657.3284                   22026665.0474
 106725124.05848  83162457.35946  20309114.1414                   20309118.6524
 11  7 23 16 28 30.0000000  0 10G06G31G19G13G16G32G07G03G20G23
 116970462.51547  91145881.09145  22258737.3444                   22258746.1524
 131692756.733 5 102617755.439 5  25060303.211
 125251698.95346  97598805.39144  23834608.7664                   23834618.2424
 114502554.85748  89222983.40445  21789150.6094                   21789157.6844
 108128920.68948  84256330.31146  20576249.3754                   20576255.9144
 119963163.54647  93477814.98044  22828235.8754                   22828244.5824
 127335229.46815  99222268.18016  24231079.734
 114154614.38747  88951714.47745  21722897.2424                   21722905.9064
 115822171.64547  90251069.04045  22040229.4384                   22040236.8754
 106684691.79848  83130951.71246  20301420.3134                   20301424.8594
 11  7 23 16 29  0.0000000  0 10G06G31G19G13G16G32G07G03G20G23
 116932813.58647  91116544.28045  22251573.2424                   22251581.6684
 131757754.825 6 102668403.239 5  25072672.141
 125158058.65646  97525839.06544  23816790.7194                   23816799.3554
 114423100.62348  89161071.01145  21774031.2274                   21774038.2624
 108174555.44148  84291889.84546  20584933.0634                   20584940.0004
 120051527.83847  93546670.16544  22845050.4384                   22845059.8594
 127272494.632 5  99173383.922 6  24219142.242
 114085361.91947  88897751.54645  21709719.1724                   21709727.0314
 115893820.61247  90306899.34945  22053863.7584                   22053870.8244
 106644649.08148  83099749.58746  20293800.0314                   20293805.0044
 11  7 23 16 29 30.0000000  0  9G06G31G19G13G16G32G03G20G23
 116895612.23247  91087556.25145  22244493.9064                   22244503.1764
 131822712.563 6 102719019.575 6  25085033.133
 125064425.15646  97452878.02043  23798971.7034                   23798981.2734
 114343821.85347  89099295.35645  21758944.9304                   21758951.8444
 108220668.07148  84327821.74846  20593708.1024                   20593714.8554
 120140077.10647  93615669.50344  22861901.3594                   22861910.5124
 114016492.61447  88844087.16745  21696613.5944                   21696621.7154
 115965795.07247  90362983.29345  22067559.5944                   22067566.6954
 106604998.20948  83068852.81346  20286254.6024                   20286259.7774
 11  7 23 16 30  0.0000000  0 10G06G31G19G13G16G32G07G03G20G23
 116858860.57647  91058918.59745  22237500.3594                   22237509.3014
 131887630.147 5 102769604.672 6  25097385.320
 124970801.31246  97379924.54243  23781155.9384                   23781164.8634
 114264720.78048  89037658.17545  21743892.0944                   21743899.3484
 108267256.32348  84364124.27146  20602573.5864                   20602580.1954
 120228808.52847  93684810.80644  22878786.6414                   22878795.0744
 127147170.18215  99075723.98316  24195295.414
 113948009.21547  88790723.49045  21683581.8594                   21683590.2424
 116038092.12847  90419318.62445  22081317.4694                   22081324.8674
 106565741.49748  83038263.16146  20278784.5394                   20278789.4064
 11  7 23 16 30 30.0000000  0 10G06G31G19G13G16G32G07G03G20G23
 116822560.75047  91030633.02845  22230593.5164                   22230601.3984
 131952507.753 5 102820158.472 5  25109734.094
 124877190.21746  97306980.89543  23763342.9774                   23763350.6134
 114185799.76647  88976161.29145  21728874.5004                   21728881.6724
 108314317.75948  84400795.49446  20611529.1954                   20611535.8984
 120317719.43347  93754091.93844  22895705.6954                   22895715.2894
 127084581.403 5  99026953.560 6  24183384.328
 113879915.14847  88737663.21345  21670623.3204                   21670631.9184
 116110708.43847  90475902.70545  22095135.9064                   22095143.6564
 106526880.66348  83007981.99246  20271389.3364                   20271394.4844
 11  7 23 16 31  0.0000000  0 10G06G31G19G13G16G32G07G03G20G23
 116786714.89547  91002701.19845  22223771.4614                   22223780.3444
 132017346.076 5 102870681.774 5  25122070.539
 124783595.03246  97234049.64943  23745531.7344                   23745538.9804
 114107061.28248  88914806.65745  21713890.6804                   21713898.5664
 108361850.19048  84437833.72646  20620574.4224                   20620580.6914
 120406807.39447  93823511.03244  22912659.4454                   22912668.1914
 127022040.571 5  98978220.473 6  24171483.383
 113812213.68747  88684908.84745  21657740.4534                   21657749.0784
 116183641.82747  90532733.85845  22109014.4064                   22109022.6914
 106488418.14548  82978011.19646  20264070.1254                   20264075.4844
 11  7 23 16 31 30.0000000  0 10G06G31G19G13G16G32G07G03G20G23
 116751325.16446  90975124.80045  22217036.7194                   22217045.9144
 132082145.808 5 102921175.086 6  25134402.781
 124690019.15046  97161133.47244  23727724.8754                   23727733.5204
 114028507.42148  88853595.87645  21698942.0704                   21698949.8164
 108409851.52948  84475237.35846  20629708.5704                   20629715.0554
 120496069.61547  93893065.91444  22929645.3134                   22929654.0314
 126959547.532 5  98929524.638 6  24159590.398
 113744907.32647  88632462.34745  21644932.3284                   21644940.5084
 116256889.53147  90589809.93345  22122953.2344                   22122961.3134
 106450356.42948  82948352.72846  20256827.2504                   20256832.6844
 11  7 23 16 32  0.0000000  0 11G06G31G19G13G16G32G07G10G03G20G23
 116716393.53447  90947905.37445  22210389.5784                   22210398.3404
 132146906.814 5 102971638.068 6  25146726.359
 124596464.99046  97088234.18744  23709922.0784                   23709930.8634
 113950140.62648  88792530.87745  21684029.7504                   21684037.1604
 108458319.03948  84513004.22246  20638931.7344                   20638938.1374
 120585503.32147  93962754.42544  22946664.0554                   22946673.6524
 126897101.391 6  98880865.394 6  24147707.656
 130426339.62514                  24819293.148
 113677999.21947  88580326.17245  21632199.9844                   21632208.5944
 116330448.26847  90647128.37345  22136950.9924                   22136959.5044
 106412697.13148  82919007.83446  20249661.2114                   20249666.1094
 11  7 23 16 32 30.0000000  0 10G06G31G19G13G16G32G07G03G20G23
 116681922.30547  90921044.64944  22203830.3914                   22203837.8634
 132211629.418 6 103022071.181 6  25159042.367
 124502936.05746  97015354.59143  23692124.2814                   23692132.7274
 113871963.36247  88731613.52445  21669153.1724                   21669160.5944
 108507250.55948  84551132.67046  20648243.2274                   20648249.9264
 120675105.77347  94032574.42644  22963714.4614                   22963724.1724
 126834702.116 6  98832242.619 6  24135833.586
 113611492.73047  88528502.95245  21619544.5704                   21619552.3754
 116404315.24447  90704686.99645  22151007.2584                   22151015.1374
 106375442.83348  82889978.50546  20242571.7664                   20242576.9104
 11  7 23 16 33  0.0000000  0 11G06G31G19G13G16G32G07G10G03G20G23
 116647912.51747  90894543.52144  22197357.7504                   22197366.1484
 132276313.832 6 103072474.587 6  25171350.258
 124409435.02146  96942496.72044  23674332.2034                   23674339.5634
 113793977.37748  88670845.26045  21654312.8444                   21654320.0824
 108556642.76048  84589620.08546  20657642.0554                   20657648.7384
 120764873.75747  94102523.40844  22980796.1804                   22980806.1374
 126772348.563 6  98783655.543 6  24123967.781
 130286554.44515                  24792693.234
 113545390.44647  88476994.70245  21606965.3754                   21606973.0824
 116478487.10947  90762483.21545  22165121.8674                   22165129.6884
 106338594.89148  82861265.80946  20235559.8444                   20235564.5784
 11  7 23 16 33 30.0000000  0 11G06G31G19G13G16G32G07G10G03G20G23
 116614366.95747  90868404.13144  22190974.9614                   22190983.0394
 132340960.984 6 103122848.891 6  25183653.766
 124315965.38246  96869663.34744  23656544.5084                   23656553.6254
 113716185.52948  88610228.26345  21639509.1804                   21639516.5744
 108606493.99148  84628465.18146  20667128.4384                   20667134.9734
 120854805.33147  94172599.87344  22997909.4844                   22997920.0044
 126710041.019 6  98735104.242 6  24112111.102
                                  24779505.094
 113479695.48847  88425803.83645  21594464.3914                   21594472.2934
 116552961.26447  90820514.97845  22179293.5474                   22179302.1214
 106302155.82948  82832871.73846  20228625.9144                   20228630.6214
 11  7 23 16 34  0.0000000  0 10G06G31G19G13G16G32G07G03G20G23
 116581288.21747  90842628.49644  22184680.3284                   22184688.1604
 132405571.335 6 103173194.511 6  25195948.039
 124222530.60146  96796857.11144  23638764.2344                   23638773.2584
 113638590.82148  88549764.87745  21624743.8364                   21624751.2194
 108656802.40148  84667666.52046  20676702.1024                   20676708.2894
 120944897.90647  94242801.76344  23015053.5164                   23015064.3404
 126647779.543 5  98686588.845 6  24100262.992
 113414411.24047  88374932.98045  21582040.8984                   21582048.7424
 116627735.25047  90878780.35445  22193522.9774                   22193531.1844
 106266128.81948  82804798.75146  20221770.2894                   20221775.0744
 11  7 23 16 34 30.0000000  0 11G06G31G19G13G16G32G07G10G03G20G23
 116548678.89647  90817218.64545  22178474.3364                   22178483.0434
 132470146.460 6 103223512.722 6  25208235.734
 124129134.52246  96724081.01744  23620991.8834                   23621000.2034
 113561196.11248  88489457.31145  21610016.1024                   21610023.5554
 108707566.61948  84707223.03346  20686362.1804                   20686368.7584
 121035149.71047  94313127.74844  23032228.7814                   23032238.6254
 126585564.376 6  98638109.590 6  24088423.484
                                  24753356.930
 113349541.98547  88324385.52945  21569696.7974                   21569705.4064
 116702806.97047  90937277.75145  22207808.7584                   22207816.8324
 106230516.74948  82777049.09546  20214993.3754                   20214998.8324
 11  7 23 16 35  0.0000000  0 11G06G31G19G13G16G32G07G10G03G20G23
 116516538.55947  90792174.21544  22172359.1954                   22172366.4924
 132534684.519 6 103273802.038 5  25220517.344
 124035778.03346  96651335.75944  23603226.4144                   23603234.9574
 113484001.56148  88429305.74545  21595326.2894                   21595333.8244
 108758781.54948  84747130.75346  20696108.0234                   20696114.5004
 121125555.73847  94383573.89644  23049433.0394                   23049442.3054
 126523392.846 6  98589664.238 6  24076592.156
 130011737.52815                  24740400.242
 113285087.99547  88274161.65245  21557432.1724                   21557439.8794
 116778171.30047  90996003.15645  22222150.3754                   22222158.3914
 106195319.14648  82749622.38746  20208295.5394                   20208299.9614
 11  7 23 16 35 30.0000000  0 10G06G31G19G13G16G32G07G03G20G23
 116484870.56447  90767497.85745  22166332.3914                   22166340.4654
 132599186.535 6 103324063.295 5  25232791.258
 123942465.14246  96578624.54144  23585469.5394                   23585478.7114
 113407010.70847  88369312.88345  21580675.0784                   21580682.8714
 108810445.97948  84787388.73646  20705939.6884                   20705946.3404
 121216114.14247  94454138.78944  23066665.1804                   23066675.0824
 126461265.577 6  98541253.402 6  24064770.313
 113221053.53847  88224264.69645  21545245.8444                   21545254.3134
 116853826.56547  91054955.25145  22236547.0314                   22236555.1914
 106160539.13648  82722521.08946  20201677.0084                   20201681.9614
 11  7 23 16 36  0.0000000  0 11G06G31G19G13G16G32G07G10G03G20G23
 116453676.56146  90743190.85345  22160396.6094                   22160403.9384
 132663653.026 6 103374296.855 6  25245060.336
 123849199.03746  96505949.76944  23567721.1564                   23567730.5354
 113330225.89948  88309480.60545  21566063.4614                   21566071.4144
 108862557.55248  84827995.13246  20715856.3914                   20715862.3054
 121306822.68547  94524820.69844  23083926.7344                   23083936.3134
 126399182.328 6  98492876.835 5  24052956.664
 129876740.15515                  24714711.625
 113157441.77347  88174697.09545  21533140.8914                   21533149.6484
 116929769.70947  91114131.67745  22250999.3364                   22251007.0354
 106126178.73748  82695746.73846  20195138.4774                   20195143.5514
 11  7 23 16 36 30.0000000  0 10G06G31G19G13G16G32G07G03G20G23
 116422957.89146  90719254.24345  22154550.5394                   22154559.2934
 132728084.195 6 103424502.894 6  25257320.922
 123755982.62146  96433313.67143  23549982.2734                   23549991.4414
 113253648.98448  88249810.28545  21551491.6414                   21551498.6334
 108915113.27748  84868947.64246  20725856.6094                   20725863.8054
 121397677.54947  94595616.55644  23101216.6884                   23101225.3634
 126337142.166 6  98444533.859 5  24041150.578
 113094254.82647  88125460.53845  21521116.7424                   21521125.3754
 117005997.05047  91173529.55445  22265504.7424                   22265512.3794
 106092239.61748  82669300.66546  20188679.8204                   20188684.5864
 11  7 23 16 37  0.0000000  0 11G06G31G19G13G16G32G07G10G03G20G23
 116392716.71747  90695689.71445  22148795.6334                   22148804.0554
 132792480.260 6 103474681.600 6  25269574.398
 123662819.30746  96360718.96244  23532255.0944                   23532263.2274
 113177282.80048  88190304.18545  21536959.6724                   21536966.8204
 108968110.81948  84910244.42246  20735941.7734                   20735948.7584
 121488676.67947  94666524.87244  23118532.6954                   23118541.8914
 126275144.893 6  98396224.359 5  24029351.883
 129743383.87815                  24689334.625
 113031495.70347  88076557.31945  21509174.8134                   21509183.0554
 117082505.88947  91233146.77545  22280063.2114                   22280071.0984
 106058724.27148  82643184.81846  20182302.1644                   20182307.4224
 11  7 23 16 37 30.0000000  0 11G06G31G19G13G16G32G07G10G03G20G23
 116362955.62047  90672499.27945  22143132.5314                   22143141.0124
 132856842.437 6 103524833.930 6  25281822.523
 123569712.50146  96288168.29344  23514536.8914                   23514545.6174
 113101130.17348  88130964.49645  21522468.3054                   21522475.5634
 109021548.21548  84951883.93246  20746111.0084                   20746117.6844
 121579818.11546  94737544.09943  23135876.4694                   23135885.6604
 126213190.813 6  98347948.512 5  24017563.180
 129677321.78915                  24676763.461
 112969168.44347  88027990.64745  21497313.9534                   21497322.8324
 117159294.24547  91292981.79845  22294675.9614                   22294683.0824
 106025635.48048  82617401.33846  20176005.6804                   20176010.4414
 11  7 23 16 38  0.0000000  0 11G06G31G19G13G16G32G07G10G03G20G23
 116333676.14747  90649684.09845  22137560.9844                   22137569.1524
 132921170.959 6 103574959.997 6  25294063.281
 123476665.45146  96215664.22144  23496830.3054                   23496838.7664
 113025193.33848  88071792.93845  21508018.1024                   21508024.7704
 109075423.25648  84993864.46946  20756363.1334                   20756369.3914
 121671098.40647  94808671.49144  23153247.1884                   23153256.4184
 126151279.12816  98299705.67415  24005782.227
                                  24664269.266
 112907275.70647  87979762.56045  21485536.2584                   21485544.6644
 117236358.97947  91353032.18045  22309340.5164                   22309348.5044
 105992974.92548  82591951.53346  20169790.7344                   20169795.7584
 11  7 23 16 38 30.0000000  0 10G06G31G19G13G16G32G07G03G20G23
 116304879.80047  90627245.40045  22132080.9064                   22132089.8674
 132985465.966 5 103625059.966 6  25306298.023
 123383680.91546  96143208.82144  23479136.1254                   23479144.4024
 112949474.31448  88012791.10545  21493608.9924                   21493615.7114
 109129732.66148  85036183.46446  20766697.5474                   20766704.2464
 121762514.90146  94879905.03244  23170642.5084                   23170652.0944
 126089409.33616  98251495.47215  23994008.594
 112845819.80147  87931874.86845  21473841.6334                   21473849.7074
 117313696.17647  91413294.86045  22324057.7034                   22324066.2234
 105960744.35648  82566836.81346  20163657.5634                   20163662.4344
 11  7 23 16 39  0.0000000  0 11G06G31G19G13G16G32G07G10G03G20G23
 116276568.82647  90605184.92545  22126693.4064                   22126701.7464
 133049728.316 6 103675134.459 5  25318527.820
 123290762.37446  96070804.84044  23461454.3054                   23461461.8634
 112873975.78348  87953961.09145  21479241.6954                   21479249.1484
 109184474.57048  85078839.47846  20777114.4774                   20777120.9804
 121854065.23646  94951242.82844  23188064.4614                   23188073.3954
 126027581.481 5  98203318.046 5  23982242.727
                                  24639525.328
 112784803.96847  87884330.06645  21462230.9224                   21462238.9964
 117391303.68747  91473768.18345  22338825.6724                   22338834.5124
 105928946.31248  82542059.11746  20157606.1484                   20157611.3954
 11  7 23 16 39 30.0000000  0 11G06G31G19G13G16G32G07G10G03G20G23
 116248744.41847  90583503.59545  22121398.6094                   22121407.3094
 133113957.808 6 103725183.388 5  25330751.453
 123197912.52046  95998454.39544  23443785.4304                   23443793.3284
 112798699.99048  87895304.66945  21464917.3834                   21464924.7934
 109239645.79248  85121830.02546  20787613.6484                   20787619.9694
 121945745.92246  95022682.21544  23205510.4534                   23205520.0234
 125965794.351 6  98155172.269 5  23970485.133
 129417228.47915                  24627268.367
 112724230.79447  87837130.20745  21450704.3364                   21450712.0704
 117469177.70147  91534449.20745  22353644.8914                   22353652.8954
 105897582.09748  82517619.45846  20151638.0554                   20151643.1604
 11  7 23 16 40  0.0000000  0 11G06G31G19G13G16G32G07G10G03G20G23
 116221408.88747  90562203.18045  22116197.6094                   22116205.4654
 133178155.497 6 103775207.524 5  25342965.523
 123105134.87246  95926160.20944  23426130.2114                   23426138.2384
 112723649.65448  87836823.91545  21450635.5554                   21450643.4344
 109295244.37448  85165153.57446  20798193.4144                   20798200.3874
 122037554.89846  95094221.56644  23222981.4924                   23222990.8634
 125904048.261 5  98107058.452 5  23958734.969
                                  24615091.641
 112664103.13847  87790277.49845  21439262.4384                   21439270.7734
 117547316.20047  91595336.26845  22368513.9224                   22368522.2034
 105866654.39248  82493519.94646  20145753.0004                   20145757.7344
 11  7 23 16 40 30.0000000  0 11G06G31G19G13G16G32G07G10G03G20G23
 116194563.62447  90541284.80145  22111089.0234                   22111097.0554
 133242321.343 6 103825206.708 6  25355176.578
 123012432.38946  95853924.58143  23408489.2424                   23408496.6844
 112648826.89548  87778520.47445  21436397.6024                   21436404.8054
 109351267.59248  85208808.02946  20808854.4694                   20808861.3244
 122129489.33946  95165858.69044  23240476.1644                   23240485.2854
 125842342.590 5  98058976.170 5  23946993.008
                                  24603001.914
 112604424.06047  87743774.32445  21427905.8444                   21427913.6214
 117625715.57247  91656426.64045  22383432.9774                   22383440.9614
 105836164.85548  82469761.86246  20139950.5084                   20139955.6214
 11  7 23 16 41  0.0000000  0 10G06G31G19G13G16G32G07G03G20G23
 116168210.61947  90520749.99445  22106073.4924                   22106082.2584
 133306456.286 6 103875181.897 6  25367380.570
 122919808.43946  95781750.16643  23390863.6644                   23390870.5904
 112574234.56048  87720396.60345  21422203.4224                   21422210.7934
 109407713.22848  85252791.63046  20819595.7274                   20819602.3984
 122221546.47046  95237591.41843  23257993.6094                   23258003.6914
 125780677.226 5  98010925.261 5  23935258.930
 112545196.57447  87697623.04145  21416635.7734                   21416643.4574
 117704373.32647  91717718.33345  22398400.6954                   22398409.9384
 105806115.87248  82446347.08046  20134232.5944                   20134237.6954
 11  7 23 16 41 30.0000000  0 10G06G31G19G13G16G32G07G03G20G23
 116142351.52947  90500600.08345  22101153.0554                   22101161.7114
 133370560.411 6 103925133.128 6  25379580.633
 122827266.43446  95709639.56744  23373253.3524                   23373260.4804
 112499875.21948  87662454.27345  21408053.0164                   21408060.6484
 109464578.42648  85297102.15546  20830416.5944                   20830423.4964
 122313723.91846  95309417.88444  23275534.5004                   23275544.5084
 125719051.886 5  97962905.548 5  23923532.109
 112486423.35547  87651825.73045  21405451.0554                   21405458.6134
 117783286.19547  91779208.82145  22413417.1024                   22413425.9144
 105776509.49548  82423277.17146  20128598.1094                   20128603.5704
 11  7 23 16 42  0.0000000  0 10G06G31G19G13G16G32G07G03G20G23
 116116987.69947  90480836.06145  22096326.9924                   22096335.2624
 133434634.123 5 103975060.696 6  25391773.039
 122734809.19546  95637595.05944  23355659.6414                   23355668.1174
 112425750.88848  87604695.06345  21393947.3754                   21393955.0594
 109521860.57948  85341737.58446  20841317.4774                   20841324.0314
 122406018.30646  95381335.47044  23293098.7974                   23293107.6524
 125657465.677 5  97914916.393 5  23911811.133
 112428106.95547  87606384.37045  21394353.5004                   21394361.7154
 117862450.91747  91840895.56044  22428482.2974                   22428490.0164
 105747347.12948  82400553.24546  20123048.9774                   20123054.3984
 11  7 23 16 42 30.0000000  0 10G06G31G19G13G16G32G07G03G20G23
 116092120.99147  90461459.42845  22091594.3364                   22091603.0984
 133498677.584 5 104024964.579 6  25403960.008
 122642439.89046  95565619.06544  23338081.3594                   23338090.9694
 112351863.85448  87547120.79545  21379887.4144                   21379894.4804
 109579557.22448  85386695.98646  20852296.4614                   20852303.9304
 122498427.02146  95453342.14644  23310683.0234                   23310692.9184
 125595918.17015  97866957.37914  23900100.359
 112370250.43747  87561301.38845  21383343.8134                   21383352.1454
 117941864.82747  91902776.46845  22443594.2974                   22443602.5004
 105718630.77048  82378176.85646  20117584.8754                   20117589.3674
 11  7 23 16 43  0.0000000  0 10G06G31G19G13G16G32G07G03G20G23
 116067753.32347  90442471.63645  22086957.2664                   22086966.0204
 133562692.273 5 104074846.089 6  25416141.266
 122550162.40646  95493714.64544  23320522.2424                   23320530.5004
 112278217.34148  87489733.90345  21365872.8754                   21365880.6094
 109637666.33448  85431975.79146  20863354.4064                   20863361.3244
 122590948.18347  95525436.44044  23328289.6644                   23328299.5044
 125534409.29115  97819028.39014  23888394.484
 112312857.00847  87516579.24545  21372422.8054                   21372430.3554
 118021525.28247  91964849.47944  22458753.3914                   22458761.3094
 105690363.19048  82356150.16846  20112205.7974                   20112210.6414
 11  7 23 16 43 30.0000000  0 10G06G31G19G13G16G32G07G03G20G23
 116043886.52147  90423874.14845  22082415.0704                   22082423.9494
 133626678.030 5 104124705.132 5  25428317.656
 122457979.44646  95421883.83844  23302979.4774                   23302987.8094
 112204813.47848  87432536.11645  21351904.5784                   21351912.7504
 109696185.11448  85477574.82346  20874490.1174                   20874496.8874
 122683578.75947  95597615.95844  23345916.2814                   23345926.2274
 125472939.07215  97771129.58614  23876697.305
 112255929.15447  87472219.88045  21361589.4924                   21361597.6024
 118101429.03647  92027112.09344  22473957.9924                   22473966.4064
 105662546.20848  82334474.58246  20106912.4614                   20106917.7774
 11  7 23 16 44  0.0000000  0 10G06G31G19G13G16G32G07G03G20G23
 116020520.76647  90405667.04745  22077969.2894                   22077977.9884
 133690634.34315 104174541.19216  25440486.805
 122365893.32946  95350128.56144  23285456.8204                   23285464.5634
 112131653.76748  87375528.56845  21337982.4924                   21337989.9884
 109755109.98248  85523490.28646  20885703.2504                   20885709.9694
 122776314.73247  95669877.66444  23363564.0004                   23363573.4264
 125411506.22315  97723259.94715  23865007.906
 112199468.03747  87428224.22745  21350844.5314                   21350853.0904
 118181572.20547  92089561.25344  22489209.1024                   22489216.5744
 105635180.48348  82313150.64146  20101704.4924                   20101709.3794
 11  7 23 16 44 30.0000000  0 11G06G31G19G13G16G32G07G10G03G20G23
 115997658.31847  90387852.17645  22073618.5004                   22073627.1254
 133754562.276 5 104224355.143 5  25452653.398
 122273907.99446  95278451.77644  23267952.1414                   23267960.3094
 112058741.16248  87318713.55545  21324107.6024                   21324114.9694
 109814439.09648  85569720.73946  20896993.0084                   20896999.6094
 122869154.29546  95742220.05944  23381230.0864                   23381240.6804
                                  23853322.984
                                  24509188.844
 112143477.69147  87384595.41545  21340190.4534                   21340198.2544
 118261952.20347  92152194.94444  22504505.0004                   22504513.7934
 105608268.88448  82292180.56746  20096583.2814                   20096588.4534
 11  7 23 16 45  0.0000000  0 11G06G31G19G13G16G32G07G10G03G20G23
 115975301.36247  90370431.18745  22069364.4384                   22069373.0904
 133818463.184 5 104274147.890 6  25464812.844
 122182027.09547  95206856.43944  23250468.4384                   23250476.4494
 111986079.14748  87262093.81245  21310280.7114                   21310288.1254
 109874169.98548  85616264.26446  20908359.2114                   20908366.4614
 122962095.18046  95814641.40744  23398915.9384                   23398926.7424
 125288752.06516  97627607.44415  23841646.898
 128737135.580 5                  24497834.727
 112087961.31347  87341335.90445  21329625.5164                   21329633.7424
 118342566.74147  92215011.40144  22519844.9774                   22519854.4804
 105581813.54548  82271566.00746  20091549.2814                   20091554.5434
 11  7 23 16 45 30.0000000  0 11G06G31G19G13G16G32G07G10G03G20G23
 115953451.20347  90353405.09945  22065206.9774                   22065214.8014
 133882336.95915 104323919.60615  25476968.852
 122090253.90347  95135344.95744  23233004.2664                   23233012.2774
 111913669.65048  87205670.82145  21296502.2504                   21296508.7304
 109934300.08948  85663118.85546  20919802.2734                   20919808.6054
 123055134.70346  95887139.62544  23416621.4144                   23416631.5354
 125227430.695 5  97579824.584 5  23829977.695
 128677909.51714                  24486564.719
 112032921.34347  87298447.64545  21319152.2194                   21319160.4144
 118423412.16147  92278007.75644  22535230.2274                   22535238.2734
 105555816.23948  82251308.35446  20086602.3984                   20086607.1884
 11  7 23 16 46  0.0000000  0 10G06G31G19G13G16G32G07G03G20G23
 115932110.35247  90336775.88145  22061145.7194                   22061153.3954
 133946185.09815 104373671.39415  25489117.039
 121998592.39546  95063920.49444  23215561.3914                   23215569.1484
 111841516.29648  87149447.43845  21282771.3054                   21282778.5004
 109994827.81348  85710283.30146  20931319.9844                   20931326.5204
 123148270.89146  95959713.12043  23434344.8054                   23434354.8204
 125166146.799 5  97532070.927 6  23818318.102
 111978361.44947  87255933.46445  21308769.6094                   21308777.9574
 118504487.11247  92341182.99645  22550658.3204                   22550666.6884
 105530280.07048  82231410.02846  20081742.5164                   20081747.7814
 11  7 23 16 46 30.0000000  0 10G06G31G19G13G16G32G07G03G20G23
 115911278.46147  90320543.25745  22057181.1954                   22057189.5084
 134010006.315 5 104423402.226 5  25501263.211
 121907043.84746  94992584.09444  23198140.0474                   23198148.6374
 111769619.53848  87093424.01945  21269089.5784                   21269097.3284
 110055748.78448  85757754.16946  20942913.2504                   20942919.0984
 123241499.25046  96032358.51543  23452084.8754                   23452095.2034
 125104898.441 5  97484344.961 6  23806661.438
 111924282.43947  87213794.00045  21298478.3754                   21298487.2814
 118585786.50847  92404533.10245  22566128.9534                   22566136.7544
 105505204.74748  82211870.81546  20076971.2114                   20076975.9734
 11  7 23 16 47  0.0000000  0 11G06G31G19G13G16G32G07G10G03G20G23
 115890957.41747  90304708.70345  22053314.1884                   22053322.4344
 134073801.64614 104473112.81715  25513401.367
 121815612.20247  94921338.73744  23180741.2034                   23180749.5314
 111697982.46948  87037602.94545  21255457.7894                   21255464.8324
 110117060.99748  85805529.89646  20954580.4224                   20954586.8244
 123334817.53146  96105073.94343  23469843.5784                   23469853.5434
 125043685.663 5  97436646.694 6  23795013.328
 128502888.51114                  24453260.648
 111870687.35647  87172031.63645  21288280.1724                   21288288.2704
 118667307.98247  92468056.26044  22581642.2274                   22581649.7624
 105480592.76748  82192692.62346  20072287.5234                   20072292.8284
 11  7 23 16 47 30.0000000  0 11G06G31G19G13G16G32G07G10G03G20G23
 115871148.83847  90289273.47345  22049544.2114                   22049552.9694
 134137571.52914 104522803.55814  25525536.656
 121724300.90747  94850187.15244  23163365.3444                   23163373.1954
 111626607.69848  86981986.24245  21241875.7274                   21241882.9884
 110178761.72047  85853608.36146  20966321.6414                   20966328.2584
 123428223.30046  96177857.49443  23487616.7974                   23487629.2344
 124982508.24015  97388975.99716  23783370.422
 128445438.98615                  24442328.352
 111817578.69047  87130648.29745  21278173.4384                   21278182.2424
 118749048.36647  92531749.99444  22597197.2974                   22597204.3594
 105456446.26248  82173877.15646  20067692.6724                   20067697.6844
 11  7 23 16 48  0.0000000  0 10G06G31G19G13G16G32G07G03G20G23
 115851854.25947  90274238.73445  22045873.1024                   22045881.6564
 134201317.00415 104572475.25214  25537668.789
 121633113.10647  94779131.79944  23146012.8054                   23146020.1884
 111555497.74548  86926575.89345  21228343.6414                   21228351.3914
 110240848.76547  85901987.86446  20978136.4064                   20978142.6054
 123521714.01246  96250707.25843  23505408.8594                   23505419.4224
 124921366.029 5  97341332.700 5  23771738.516
 111764959.63847  87089646.46345  21268160.5234                   21268168.8914
 118831004.57247  92595611.89844  22612792.8204                   22612800.6884
 105432766.80048  82155425.61646  20063186.5394                   20063191.6684
 11  7 23 16 48 30.0000000  0 10G06G31G19G13G16G32G07G03G20G23
 115833075.00947  90259605.58045  22042299.5704                   22042307.5164
 134265038.190 5 104622128.064 4  25549794.328
 121542052.22746  94708175.34244  23128684.3444                   23128691.2234
 111484655.07448  86871373.84045  21214862.6804                   21214870.6134
 110303319.29048  85950666.17146  20990024.2194                   20990030.9844
 123615286.73146  96323620.93743  23523215.3364                   23523225.1484
 124860258.435 5  97293716.435 5  23760108.078
 111712832.82747  87049028.18345  21258241.3754                   21258248.8054
 118913174.04147  92659639.98844  22628428.8674                   22628437.5004
 105409556.99948  82137340.05146  20058769.9534                   20058775.0084
 11  7 23 16 49  0.0000000  0  9G06G19G13G16G32G07G03G20G23
 115814812.88547  90245375.34945  22038824.3914                   22038832.5634
 121451121.80546  94637320.54644  23111380.1174                   23111387.5784
 111414082.70048  86816382.39045  21201433.3134                   21201440.8754
 110366171.03648  85999641.53746  21001984.4304                   21001991.1804
 123708939.41646  96396596.93643  23541036.6564                   23541047.8794
 124799185.66515  97246127.31515  23748486.414
 111661200.79247  87008795.46945  21248415.6174                   21248423.8874
 118995553.95447  92723832.04044  22644105.9844                   22644114.2114
 105386818.43648  82119621.66746  20054442.8914                   20054448.2034
 11  7 23 16 49 30.0000000  0 10G06G31G19G13G16G32G07G03G20G23
 115797068.96847  90231548.93845  22035447.6724                   22035455.1134
 134392415.36315                  25574036.258
 121360324.75546  94566569.64544  23094102.9064                   23094110.8204
 111343782.87648  86761603.30145  21188055.6884                   21188062.8484
 110429400.95148  86048911.58646  21014016.8204                   21014023.6024
 123802668.81946  96469632.68843  23558873.5084                   23558883.6254
 124738146.98415  97198564.78815  23736870.555
 111610066.30447  86968950.44445  21238685.5784                   21238693.7704
 119078140.86447  92788185.43844  22659821.2114                   22659828.9414
 105364552.85548  82102271.85546  20050206.0084                   20050210.9694
 11  7 23 16 50  0.0000000  0 11G06G31G19G13G16G32G07G10G03G20G23
 115779843.78447  90218126.74245  22032169.8754                   22032178.1054
 134456066.359 4 104771026.18314  25586148.070
 121269663.40646  94495924.54944  23076850.0234                   23076858.3984
 111273757.18548  86707037.84145  21174730.3444                   21174737.0634
 110493005.96948  86098473.91846  21026120.4064                   21026127.2544
 123896471.31847  96542725.39243  23576724.0554                   23576732.9884
 124677141.21515  97151027.79215  23725261.758
                                  24388955.422
 111559430.99848  86929494.38145  21229049.8524                   21229058.0514
 119160930.79547  92852697.02244  22675575.5864                   22675583.7814
 105342761.04248  82085291.22446  20046058.8134                   20046063.8284
 11  7 23 16 50 30.0000000  0 10G06G19G13G16G32G07G10G03G20G23
 115763140.10047  90205110.88445  22028990.6254                   22028999.3364
 121179142.62747  94425388.93244  23059624.3204                   23059632.5664
 111204009.81448  86652689.24445  21161458.1884                   21161465.4534
 110556984.66548  86148327.40946  21038295.5634                   21038301.4964
 123990346.08046  96615874.39943  23594587.1174                   23594597.5904
 124616169.96316  97103517.72115  23713659.688
 128109992.89815                  24378541.633
 111509298.61748  86890430.20345  21219510.1094                   21219517.5474
 119243922.85847  92917366.09944  22691368.9304                   22691376.5274
 105321446.51248  82068682.47446  20042002.8834                   20042008.0514
 11  7 23 16 51  0.0000000  0 10G06G19G13G16G32G07G10G03G20G23
 115746958.84447  90192502.13245  22025912.0084                   22025920.3674
 121088765.46847  94354965.28244  23042426.5394                   23042434.5474
 111134542.91448  86598559.18745  21148238.7894                   21148246.3324
 110621334.26748  86198469.94046  21050540.5554                   21050546.7544
 124084290.04247  96689077.35543  23612464.0704                   23612474.7074
 124555232.247 6  97056033.776 5  23702062.914
 128055719.451 5                  24368212.805
 111459671.38748  86851759.64845  21210066.5234                   21210073.9844
 119327112.83347  92982189.40844  22707199.4614                   22707207.5944
 105300610.62048  82052446.69846  20038038.0704                   20038043.1684
 11  7 23 16 51 30.0000000  0  9G06G19G13G16G32G07G03G20G23
 115731301.18247  90180301.36945  22022932.6174                   22022940.9344
 120998535.32847  94284656.19444  23025256.2734                   23025264.0434
 111065359.01348  86544649.66246  21135073.6094                   21135080.8794
 110686051.96148  86248899.28846  21062855.7814                   21062862.2504
 124178300.40347  96762332.02443  23630353.6644                   23630364.5474
 124494327.602 6  97008575.640 6  23690473.195
 111410551.58348  86813484.50245  21200718.7194                   21200727.0164
 119410498.46747  93047165.13244  22723067.6564                   22723075.6254
 105280255.05948  82036585.22846  20034164.4144                   20034169.6724
 11  7 23 16 52  0.0000000  0 10G06G19G13G16G32G07G10G03G20G23
 115716167.91747  90168509.20945  22020052.6174                   22020060.9384
 120908454.78047  94214463.67344  23008114.7974                   23008121.5704
 110996459.87048  86490962.04446  21121962.6954                   21121969.7194
 110751134.65548  86299613.05946  21075240.9064                   21075247.0864
 124272373.93146  96835635.90143  23648255.5314                   23648266.5234
 124433455.195 5  96961142.645 6  23678889.906
 127948541.58714                  24347818.945
 111361941.73148  86775606.70345  21191468.8834                   21191476.1484
 119494075.83047  93112290.28144  22738971.7424                   22738979.7854
 105260380.73348  82021098.72846  20030382.6094                   20030387.9694
 11  7 23 16 52 30.0000000  0 10G06G19G13G16G32G07G10G03G20G23
 115701559.66947  90157126.16045  22017272.4224                   22017281.1454
 120818526.30947  94144389.60444  22991001.6724                   22991008.9414
 110927847.38648  86437497.78746  21108905.9694                   21108913.4774
 110816579.00448  86350608.64846  21087694.6724                   21087701.2934
 124366507.33746  96908986.42343  23666168.4694                   23666179.3094
 124372614.392 6  96913734.237 6  23667312.578
 127895650.903 5                  24337755.063
 111313843.39048  86738127.51145  21182315.5864                   21182323.8794
 119577841.23847  93177561.96044  22754911.9924                   22754919.2974
 105240989.23348  82005988.45346  20026692.8914                   20026697.9304
 11  7 23 16 53  0.0000000  0 10G06G19G13G16G32G07G10G03G20G23
 115687478.32647  90146153.67745  22014593.2034                   22014601.0984
 120728753.97747  94074437.24744  22973918.5084                   22973925.8404
 110859525.16748  86384259.70046  21095904.6804                   21095911.9384
 110882383.14748  86401884.58346  21100216.6954                   21100223.0314
 124460698.83046  96982382.23143  23684093.6804                   23684103.4614
 124311805.243 6  96866350.481 5  23655741.609
 127843223.877 5                  24327777.969
 111266259.87348  86701049.47445  21173260.9694                   21173269.3164
 119661792.56647  93242978.50444  22770887.2974                   22770895.2934
 105222082.67448  81991256.05647  20023095.0634                   20023100.1644
 11  7 23 16 53 30.0000000  0 10G06G19G13G16G32G07G10G03G20G23
 115673925.08347  90135592.69945  22012014.2974                   22012022.1094
 120639141.18547  94004609.19645  22956865.8364                   22956873.8954
 110791495.26748  86331249.39445  21082958.8674                   21082965.8134
 110948544.44248  86453438.82546  21112806.7504                   21112813.1914
 124554945.44846  97055820.98843  23702027.0084                   23702037.6604
 124251027.646 5  96818991.356 5  23644175.336
 127791261.993 5                  24317888.297
 111219193.12547  86664374.10545  21164304.3594                   21164312.9384
 119745926.58447  93308537.38544  22786897.0084                   22786906.2274
 105203662.82748  81976902.92046  20019589.3674                   20019594.4414
 11  7 23 16 54  0.0000000  0 10G06G19G13G16G32G07G10G03G20G23
 115660901.22447  90125444.25545  22009536.2974                   22009543.7274
 120549691.11847  93934907.93944  22939843.8204                   22939851.9654
 110723760.53948  86278469.10946  21070069.2194                   21070076.4384
 111015060.14248  86505269.23846  21125464.0234                   21125470.7854
 124649244.67946  97129300.82343  23719971.2114                   23719982.5594
 124190281.598 6  96771656.853 6  23632615.992
 127739766.582 5                  24308090.945
 111172646.01148  86628103.65945  21155446.9064                   21155455.2424
 119830240.33447  93374236.33144  22802942.1644                   22802949.2304
 105185731.33948  81962930.32246  20016177.4384                   20016182.3834
 11  7 23 16 54 30.0000000  0 10G06G19G13G16G32G07G10G03G20G23
 115648407.32147  90115708.74445  22007158.1414                   22007166.5744
 120460406.88447  93865335.90644  22922853.3594                   22922861.6764
 110656323.26348  86225920.58046  21057236.5314                   21057244.1094
 111081927.47248  86557373.62146  21138188.8834                   21138195.3714
 124743593.73246  97202819.34743  23737926.0704                   23737937.0984
 124129566.169 6  96724346.151 6  23621062.063
 127688739.29145  99497851.82252  24298380.8134                   24298391.5784
 111126620.47148  86592239.61745  21146688.2424                   21146696.0824
 119914730.76547  93440072.97344  22819019.4454                   22819027.7624
 105168289.62348  81949339.36147  20012858.1254                   20012863.7424
 11  7 23 16 55  0.0000000  0 10G06G19G13G16G32G07G10G03G20G23
 115636445.39447  90106387.76445  22004881.9304                   22004890.6454
 120371292.40747  93795896.14344  22905894.7034                   22905904.0044
 110589186.85548  86173606.49546  21044460.8134                   21044468.1374
 111149144.40548  86609750.43146  21150979.4454                   21150986.3364
 124837990.41546  97276375.04243  23755889.0704                   23755898.9694
 124068882.121 5  96677059.915 6  23609511.734
 127638181.51745  99458456.26142  24288759.4774                   24288770.5664
 111081119.80048  86556784.55945  21138029.2734                   21138037.7854
 119999395.41347  93506045.35244  22835130.7664                   22835139.1024
 105151340.53248  81936132.25947  20009633.1884                   20009638.4344
 11  7 23 16 55 30.0000000  0 10G06G19G13G16G32G07G10G03G20G23
 115625015.96747  90097481.73545  22002706.9694                   22002715.2074
 120282350.34046  93726590.64144  22888970.7974                   22888977.8754
 110522352.95248  86121528.14246  21031743.0704                   21031750.1134
 111216707.71148  86662397.14746  21163836.1174                   21163842.7974
 124932431.64546  97349965.42343  23773861.4614                   23773870.5354
 124008228.155 5  96629797.141 6  23597972.180
 127588094.52945  99419427.46642  24279228.2584                   24279238.2154
 111036145.42247  86521739.61245  21129471.5164                   21129479.3794
 120084230.56747  93572150.57344  22851274.6484                   22851282.1254
 105134884.65148  81923309.50646  20006501.6564                   20006506.5234
 11  7 23 16 56  0.0000000  0 10G06G19G13G16G32G07G10G03G20G23
 115614120.27947  90088991.59845  22000634.0554                   22000641.6884
 120193584.51147  93657422.63144  22872078.5784                   22872085.9264
 110455824.38548  86069687.69945  21019082.8834                   21019090.1484
 111284614.76048  86715311.69646  21176758.9614                   21176765.1214
 125026914.94846  97423588.62543  23791839.7034                   23791850.6454
 123947604.15515  96582557.72416  23586436.547
 127538479.71945  99380766.55842  24269786.4534                   24269796.7274
 110991700.03648  86487106.85345  21121013.8914                   21121022.0474
 120169233.64447  93638386.69244  22867449.7194                   22867457.9654
 105118923.98548  81910872.60247  20003464.2664                   20003469.8204
 11  7 23 16 56 30.0000000  0 10G06G19G13G16G32G07G10G03G20G23
 115603758.82047  90080917.73545  21998662.0704                   21998670.0084
 120104997.80747  93588394.14644  22855220.5314                   22855227.9574
 110389603.29048  86018086.84345  21006481.2584                   21006488.3444
 111352862.98748  86768492.11446  21189745.9774                   21189752.2584
 125121437.45947  97497242.38943  23809828.5554                   23809838.4964
                                  23574904.125
 127489338.15246  99342474.43943  24260435.4454                   24260444.8134
 110947785.54447  86452887.79845  21112657.7584                   21112665.6994
 120254401.15447  93704750.89444  22883656.9144                   22883666.0704
 105103459.69048  81898822.49247  20000521.8594                   20000526.9694
 11  7 23 16 57  0.0000000  0 10G06G19G13G16G32G07G10G03G20G23
 115593933.12747  90073261.36845  21996792.0944                   21996800.3164
 120016593.43847  93519507.68744  22838397.5004                   22838405.2114
 110323692.72148  85966727.96646  20993938.7664                   20993946.0904
 111421449.53748  86821936.15746  21202797.4384                   21202804.0044
 125215996.62646  97570924.66843  23827821.8674                   23827832.5664
 123826447.46715  96488150.46216  23563380.461
 127440671.27846  99304552.27643  24251174.9384                   24251183.5314
 110904404.38847  86419084.30945  21104402.3524                   21104410.0984
 120339730.23347  93771241.02044  22899894.5084                   22899903.0204
 105088493.49248  81887160.51346  19997673.6884                   19997678.5704
 11  7 23 16 57 30.0000000  0 10G06G19G13G16G32G07G10G03G20G23
 115584644.06447  90066023.14045  21995024.5234                   21995032.5354
 119928374.87547  93450766.02044  22821610.6254                   22821618.0204
 110258095.05248  85915612.89946  20981456.1884                   20981463.6724
 111490372.14348  86875642.04546  21215912.5474                   21215919.3054
 125310589.80146  97644633.44043  23845822.7734                   23845833.2384
 123765912.389 5  96440980.307 5  23551861.633
 127392480.52346  99267001.05843  24242004.1174                   24242013.9654
 110861559.06847  86385698.37545  21096248.6564                   21096256.7974
 120425218.09547  93837854.84744  22916162.6414                   22916171.3014
 105074027.06948  81875887.97147  19994920.7894                   19994926.3404
 11  7 23 16 58  0.0000000  0 10G06G19G13G16G32G07G10G03G20G23
 115575892.60047  90059203.82745  21993359.2034                   21993367.3914
 119840345.52247  93382171.79644  22804858.8914                   22804866.2464
 110192812.91448  85864743.71446  20969033.4304                   20969041.1524
 111559628.17548  86929607.75646  21229091.8134                   21229098.6954
 125405214.66246  97718366.88043  23863828.9144                   23863839.7304
 123705406.397 5  96393832.773 5  23540345.773
 127344767.29145  99229821.96943  24232923.8054                   24232934.4344
 110819251.93847  86352731.78045  21088197.7734                   21088205.4844
 120510861.70747  93904590.05844  22932459.4844                   22932468.3794
 105060062.26848  81865006.29247  19992263.4304                   19992268.8324
 11  7 23 16 58 30.0000000  0 10G06G19G13G16G32G07G10G03G20G23
 115567680.13347  90052804.51945  21991796.1564                   21991804.7544
 119752509.02047  93313727.80344  22788144.6954                   22788150.9264
 110127848.95748  85814122.46446  20956671.5234                   20956678.3954
 111629215.15248  86983831.34246  21242334.2584                   21242340.3754
 125499868.69746  97792123.03143  23881841.8134                   23881853.0634
 123644929.498 5  96346707.999 5  23528838.422
 127297532.57046  99193015.78842  24223935.3594                   24223945.6374
 110777485.45147  86320186.48345  21080250.1954                   21080258.6564
 120596658.27247  93971444.43244  22948786.3834                   22948794.8324
 105046600.93948  81854516.94347  19989701.7584                   19989707.3714
 11  7 23 16 59  0.0000000  0 10G06G19G13G16G32G07G10G03G20G23
 115560007.29547  90046825.69545  21990336.2664                   21990344.6454
 119664868.49047  93245436.52044  22771467.6644                   22771473.9224
 110063205.77348  85763751.15346  20944370.3984                   20944377.1604
 111699129.95548  87038310.40046  21255638.3284                   21255645.1524
 125594548.98246  97865899.70543  23899858.0864                   23899870.2664
 123584481.479 6  96299605.668 5  23517334.523
 127250777.43946  99156583.23342  24215038.7114                   24215048.4494
 110736261.03247  86288063.58045  21072404.9064                   21072413.6484
 120682604.80647  94038415.67044  22965141.6334                   22965150.3244
 105033644.24048  81844420.81446  19987236.3524                   19987241.4104
 11  7 23 16 59 30.0000000  0 10G06G19G13G16G32G07G10G03G20G23
 115552874.58347  90041267.72545  21988979.1644                   21988987.6414
 119577426.83847  93177300.22144  22754827.1564                   22754834.2584
 109998885.36948  85713631.35446  20932130.3984                   20932137.6374
 111769369.61748  87093042.57246  21269004.6334                   21269011.2584
 125689252.47846  97939694.43243  23917879.7734                   23917891.7974
 123524061.366 5  96252525.061 5  23505836.297
 127204503.08346  99120525.34842  24206232.8284                   24206242.0004
 110695581.15447  86256364.96345  21064664.2974                   21064672.4654
 120768697.59647  94105500.85944  22981524.5554                   22981533.5164
 105021192.95748  81834718.49347  19984867.0314                   19984872.0514
 11  7 23 17  0  0.0000000  0 10G06G19G13G16G32G07G10G03G20G23
 115546283.20547  90036131.58345  21987724.2974                   21987732.9924
 119490187.52847  93109321.56144  22738226.3834                   22738232.7194
 109934890.64948  85663765.34146  20919952.7344                   20919959.5004
 111839932.04148  87148026.25845  21282432.3674                   21282438.7774
 125783977.13446  98013505.64743  23935905.8754                   23935917.0234
 123463669.361 6  96205466.346 5  23494345.094
 127158710.96646  99084843.24142  24197518.5234                   24197528.2424
 110655447.94247  86225092.33745  21057027.5234                   21057035.7194
 120854934.29847  94172698.18644  22997934.9844                   22997943.7664
 105009249.41848  81825411.82747  19982594.3674                   19982599.6214
 11  7 23 17  0 30.0000000  0 10G06G19G13G16G32G07G10G03G20G23
 115540233.62147  90031417.64645  21986573.5314                   21986581.7194
 119403153.52347  93041502.91244  22721663.9614                   22721670.9494
 109871223.93648  85614154.92446  20907837.2114                   20907844.6454
 111910814.23948  87203259.11646  21295920.4844                   21295927.1954
 125878719.85546  98087330.92843  23953935.5084                   23953945.3674
 123403305.356 5  96158429.467 5  23482858.477
 127113402.07246  99049537.62243  24188896.0864                   24188906.8914
 110615863.56647  86194247.39245  21049494.4694                   21049502.8404
 120941311.41547  94240004.95644  23014371.2664                   23014380.3324
 104997814.62648  81816501.58747  19980418.0004                   19980423.3954
 11  7 23 17  1  0.0000000  0 10G06G19G13G16G32G07G10G03G20G23
 115534727.04147  90027126.80245  21985525.5634                   21985533.9924
 119316328.75447  92973847.30244  22705141.8444                   22705149.1644
 109807887.94948  85564802.20746  20895785.0004                   20895791.8164
 111982013.84048  87258739.28846  21309469.3914                   21309476.1524
 125973478.43346  98161168.57143  23971967.0394                   23971978.6174
 123342969.05715  96111414.24915  23471376.219
 127068577.41846  99014609.28442  24180367.1644                   24180376.7504
 110576830.14748  86163831.74945  21042066.3914                   21042074.2854
 121027826.24847  94307418.99144  23030835.5084                   23030844.3794
 104986890.42948  81807989.22347  19978339.5474                   19978344.6524
 11  7 23 17  1 30.0000000  0 10G06G19G13G16G32G07G10G03G20G23
 115529764.10147  90023259.57645  21984581.3984                   21984589.5944
 119229716.10447  92906356.97845  22688659.9614                   22688667.5314
 109744885.07348  85515709.08246  20883795.9924                   20883803.3244
 112053528.09048  87314464.64145  21323078.6564                   21323085.3594
 126068249.88346  98235016.17843  23990002.3134                   23990012.7464
 123282660.97415  96064420.10415  23459899.797
 127024238.18444  98980059.34342  24171927.7274                   24171939.6764
 110538349.66947  86133846.95645  21034744.6414                   21034751.9844
 121114475.94047  94374938.15744  23047324.5474                   23047332.4654
 104976477.88348  81799875.53847  19976358.1254                   19976363.0634
 11  7 23 17  2  0.0000000  0 10G06G19G13G16G32G07G10G03G20G23
 115525345.39347  90019816.43945  21983740.4774                   21983748.6524
 119143318.77747  92839034.43644  22672218.9614                   22672225.9494
 109682217.80248  85466877.44446  20871870.3444                   20871878.0744
 112125354.02848  87370432.89246  21336746.1484                   21336752.8954
 126163031.88747  98308872.08243  24008039.3284                   24008049.3054
 123222378.86114  96017447.06115  23448428.633
 126980385.57746  98945888.44442  24163584.6804                   24163594.8674
 110500424.14947  86104294.60545  21027527.2114                   21027534.8484
 121201257.00046  94442559.65544  23063838.9924                   23063846.5744
 104966578.43648  81792161.65947  19974473.9454                   19974479.4924
 11  7 23 17  2 30.0000000  0 10G06G19G13G16G32G07G10G03G20G23
 115521471.81647  90016798.07045  21983002.8204                   21983011.7734
 119057140.38347  92771882.49945  22655819.2504                   22655827.0784
 109619888.97148  85418309.53446  20860009.4384                   20860016.9804
 112197489.10748  87426642.01845  21350472.9924                   21350480.4694
 126257821.72647  98382734.08543  24026076.8754                   24026087.3914
 123162123.55415  95970494.92015  23436962.578
 126937020.93345  98912097.84443  24155331.9694                   24155343.1174
 110463056.09847  86075176.66745  21020416.2504                   21020424.1174
 121288166.68646  94510281.40344  23080377.2504                   23080385.3244
 104957193.89548  81784849.03046  19972688.0864                   19972693.3094
 11  7 23 17  3  0.0000000  0 10G06G19G13G16G32G07G10G03G20G23
 115518144.38347  90014205.26645  21982369.9384                   21982378.6844
 118971184.16147  92704903.65945  22639462.4534                   22639470.5274
 109557901.00148  85370007.22946  20848213.9064                   20848220.8164
 112269930.74748  87483090.01845  21364258.7664                   21364265.3404
 126352616.73746  98456600.11543  24044115.7344                   24044126.2814
 123101895.03514  95923563.61015  23425498.422
 126894144.95846  98878688.04442  24147173.8284                   24147183.5904
 110426247.07347  86046494.31245  21013411.3444                   21013420.1764
 121375202.00147  94578101.01244  23096939.3444                   23096948.2624
 104948325.29748  81777938.42047  19971000.5944                   19971005.6134
 11  7 23 17  3 30.0000000  0 10G06G19G13G16G32G07G10G03G20G23
 115515363.35847  90012038.23545  21981840.7424                   21981849.3954
 118885453.37147  92638100.49145  22623148.7814                   22623156.8284
 109496256.26048  85321972.36646  20836483.1024                   20836490.1334
 112342676.27448  87539774.81545  21378101.5314                   21378108.6334
 126447414.21146  98530468.08743  24062155.0084                   24062165.5904
                                  23414044.313
 126851758.77146  98845659.81842  24139107.1644                   24139117.6954
 110389998.94947  86018249.04145  21006513.3284                   21006521.6764
 121462359.81646  94646016.11844  23113525.1414                   23113533.4224
 104939973.95848  81771430.86947  19969411.3204                   19969417.0864
 11  7 23 17  4  0.0000000  0 10G06G19G13G16G32G07G10G03G20G23
 115513128.67047  90010296.91545  21981415.6724                   21981424.1174
 118799950.42447  92571474.85444  22606877.9384                   22606885.1174
 109434956.60748  85274206.40546  20824818.1174                   20824825.4884
 112415722.10348  87596693.60645  21392001.9694                   21392008.0704
 126542211.11146  98604335.59743  24080194.6334                   24080205.6764
                                  23402595.586
 126809862.37846  98813013.35043  24131133.9924                   24131144.4344
 110354312.86247  85990441.69545  20999723.3524                   20999730.8364
 121549636.33046  94714023.65844  23130133.5234                   23130142.2704
 104932140.47948  81765326.84747  19967920.8284                   19967925.6724
 11  7 23 17  4 30.0000000  0 10G06G19G13G16G32G07G10G03G20G23
 115511442.70147  90008983.17645  21981094.8674                   21981102.8754
 118714680.38247  92505030.73444  22590651.5234                   22590658.6884
 109374006.20648  85226712.58146  20813219.6804                   20813226.8244
 112489067.08648  87653845.51545  21405958.6884                   21405965.6644
 126637006.27046  98678201.73443  24098233.6484                   24098244.8984
                                  23391148.469
 126768458.92846  98780750.95043  24123255.8134                   24123266.0664
 110319192.71147  85963075.34745  20993039.8834                   20993047.7074
 121637030.18146  94782122.69344  23146763.4694                   23146771.4924
 104924827.88448  81759628.70446  19966529.2034                   19966534.2194
 11  7 23 17  5  0.0000000  0 10G06G19G13G16G32G07G10G03G20G23
 115510305.26647  90008096.87545  21980878.2504                   21980887.3674
 118629645.74147  92438770.01845  22574470.2274                   22574477.4694
 109313406.87548  85179492.34246  20801687.8834                   20801694.8484
 112562708.28248  87711228.22846  21419972.4454                   21419978.8324
 126731796.40246  98752063.92243  24116271.1414                   24116282.6844
 122861251.58815  95736052.33015  23379706.266
 126727548.47146  98748872.67843  24115470.0864                   24115480.6884
 110284639.75647  85936150.98045  20986464.6884                   20986472.2734
 121724537.89446  94850310.41743  23163416.6254                   23163423.8954
 104918036.89448  81754337.01047  19965236.9064                   19965242.0594
 11  7 23 17  5 30.0000000  0  9G06G19G13G16G32G10G03G20G23
 115509716.59247  90007638.17645  21980766.3444                   21980774.9844
 118544849.36747  92372694.99145  22558333.5944                   22558341.0904
 109253160.50048  85132547.11746  20790223.3754                   20790230.9574
 112636642.21548  87768839.06046  21434041.4694                   21434047.7464
 126826578.37946  98825919.79343  24134308.2814                   24134320.6684
 126687131.28046  98717378.73342  24107779.6724                   24107789.9184
 110250655.40647  85909669.67645  20979997.5864                   20980005.3284
 121812155.98146  94918584.14444  23180089.4774                   23180097.4844
 104911768.12948  81749452.23647  19964044.1254                   19964049.5984
 11  7 23 17  6  0.0000000  0  9G06G19G13G16G32G10G03G20G23
 115509677.82047  90007607.96645  21980758.8834                   21980767.2194
 118460295.02347  92306808.53845  22542243.2194                   22542250.7034
 109193270.44948  85085879.55746  20778826.7274                   20778833.6054
 112710867.09448  87826676.59645  21448165.7504                   21448172.5474
 126921350.27846  98899767.75443  24152342.4774                   24152354.8954
 126647208.89246  98686270.41442  24100182.9924                   24100192.5634
 110217242.30047  85883633.49045  20973639.3444                   20973647.1844
 121899882.09946  94986942.10744  23196782.5474                   23196791.6334
 104906023.59448  81744975.95846  19962951.0314                   19962955.9574
 11  7 23 17  6 30.0000000  0  9G06G19G13G16G32G10G03G20G23
 115510189.28747  90008006.50445  21980855.4844                   21980864.8324
 118375986.02747  92241113.27345  22526200.4384                   22526207.2384
 109133739.38048  85039491.73246  20767498.4774                   20767505.4024
 112785379.88948  87884738.46345  21462345.2894                   21462351.5634
 127016109.68446  98973605.99643  24170375.3444                   24170386.7734
 126607782.56546  98655548.57942  24092679.9064                   24092689.5554
 110184401.60547  85858043.35645  20967389.8204                   20967397.9614
 121987713.11246  95055381.74943  23213496.6024                   23213505.3094
 104900804.47148  81740909.09146  19961958.1884                   19961963.1954
 11  7 23 17  7  0.0000000  0  9G06G19G13G16G32G10G03G20G23
 115511251.45147  90008834.16545  21981058.8054                   21981066.5354
 118291925.44647  92175611.57645  22510203.8984                   22510211.1684
 109074569.02847  84993384.96046  20756238.3674                   20756245.7504
 112860177.79348  87943022.50945  21476579.3284                   21476585.1294
 127110853.47646  99047432.05743  24188404.1254                   24188416.7034
 126568852.65446  98625213.64443  24085272.5864                   24085281.3634
 110152135.44547  85832900.89446  20961249.8984                   20961257.6764
 122075645.71346  95123900.51744  23230229.9774                   23230237.5904
 104896111.65748  81737252.33946  19961064.5784                   19961070.2814
 11  7 23 17  7 30.0000000  0  9G06G19G13G16G32G10G03G20G23
 115512864.70347  90010091.23145  21981365.1804                   21981373.2384
 118208116.64747  92110306.08145  22494255.5004                   22494262.6484
 109015762.05048  84947561.34046  20745048.3444                   20745054.8484
 112935258.28548  88001526.77045  21490866.1254                   21490872.7194
 127205579.04246  99121243.90443  24206430.5474                   24206442.9304
 126530419.88347  98595266.09443  24077959.2114                   24077968.7544
 110120445.45347  85808207.40345  20955219.4304                   20955227.7974
 122163677.09646  95192496.34843  23246980.8594                   23246989.6954
 104891946.22448  81734006.52947  19960272.3444                   19960277.5864
 11  7 23 17  8  0.0000000  0  9G06G19G13G16G32G10G03G20G23
 115515029.45547  90011778.05445  21981777.4304                   21981785.1884
 118124562.95547  92045199.36645  22478356.2194                   22478363.1724
 108957320.97248  84902022.83246  20733926.9144                   20733934.0664
 113010618.68848  88060249.13345  21505206.9454                   21505213.9414
 127300284.30346  99195039.95543  24224452.4534                   24224465.6214
 126492485.42046  98565706.81743  24070739.7194                   24070750.1294
 110089333.36147  85783964.21145  20949298.9534                   20949306.8484
 122251804.23046  95261166.70944  23263751.3754                   23263760.5354
 104888309.66648  81731172.83347  19959580.0234                   19959585.3674
 11  7 23 17  8 30.0000000  0 10G06G19G13G16G32G07G10G03G20G23
 115517746.47847  90013895.20245  21982294.7424                   21982302.7934
 118041267.60447  91980293.97845  22462505.0314                   22462512.2304
 108899248.59447  84856771.63446  20722876.1954                   20722883.5274
 113086256.37248  88119187.55545  21519600.3364                   21519607.1374
 127394966.23246  99268817.87643  24242470.5474                   24242482.0434
 122441081.37815                  23299754.625
 126455050.02846  98536536.42843  24063615.5164                   24063625.5274
 110058801.15547  85760172.88245  20943489.2424                   20943497.3094
 122340024.08646  95329909.37043  23280539.4534                   23280548.4264
 104885203.26748  81728752.24447  19958989.0234                   19958994.2664
 11  7 23 17  9  0.0000000  0  9G06G19G13G16G32G10G03G20G23
 115521015.57047  90016442.55345  21982916.7504                   21982924.8284
 117958233.36847  91915592.04644  22446704.1954                   22446711.5474
 108841546.68148  84811809.11146  20711895.8984                   20711902.6214
 113162168.51948  88178339.84845  21534045.6644                   21534052.5164
 127489622.43646  99342575.71343  24260482.7664                   24260494.4414
 126418114.48447  98507755.44743  24056587.9384                   24056596.7304
 110028849.90747  85736834.26046  20937789.6174                   20937797.1374
 122428333.54546  95398721.80643  23297343.7974                   23297353.1294
 104882627.75348  81726745.34146  19958499.1804                   19958503.9614
 11  7 23 17  9 30.0000000  0 10G06G19G13G16G32G07G10G03G20G23
 115524838.17247  90019421.20145  21983644.0004                   21983652.2504
 117875464.53347  91851096.90945  22430953.8834                   22430960.8674
 108784218.99848  84767138.18946  20700986.9924                   20700994.2774
 113238353.34448  88237704.60845  21548543.1484                   21548550.1334
 127584251.06546  99416312.06843  24278491.0944                   24278502.3914
 122321251.13215  95315256.84814  23276952.883
 126381680.05746  98479365.00143  24049654.0944                   24049663.2464
 109999482.30447  85713950.41446  20932201.2504                   20932209.1024
 122516730.39846  95467602.33344  23314166.5784                   23314174.3404
 104880585.24148  81725153.74147  19958110.2504                   19958115.5204
 11  7 23 17 10  0.0000000  0 10G06G19G13G16G32G07G10G03G20G23
 115529213.98447  90022830.92145  21984476.5084                   21984485.2624
 117792963.91047  91786810.78745  22415254.5554                   22415261.0314
 108727267.23447  84722760.20046  20690149.0394                   20690155.9384
 113314807.18648  88297279.00345  21563092.2664                   21563098.4804
 127678848.71746  99490024.28143  24296491.5704                   24296504.5984
 122261375.97116  95268600.97714  23265557.742
 126345747.09446  98451365.32943  24042816.4614                   24042826.2774
 109970699.55547  85691522.31145  20926723.7974                   20926731.6454
 122605211.28046  95536548.33643  23331003.2344                   23331011.8364
 104879076.02348  81723977.71247  19957823.3284                   19957828.7154
 11  7 23 17 10 30.0000000  0  9G06G19G13G16G32G10G03G20G23
 115534143.36747  90026672.00645  21985414.5704                   21985422.5984
 117710734.78047  91722736.15945  22399606.6094                   22399613.4184
 108670693.88848  84678677.06946  20679383.9924                   20679391.0704
 113391527.64448  88357061.13745  21577691.3364                   21577698.7894
 127773413.10346  99563710.53843  24314487.1484                   24314499.4774
 126310316.16246  98423756.80043  24036074.7584                   24036084.4224
 109942503.28847  85669551.19245  20921358.1254                   20921366.4184
 122693773.03946  95605557.42244  23347855.8594                   23347865.4304
 104878101.05548  81723217.98547  19957637.6334                   19957642.6334
 11  7 23 17 11  0.0000000  0 10G06G19G13G16G32G07G10G03G20G23
 115539626.80647  90030944.78045  21986458.1024                   21986466.8094
 117628780.48847  91658875.74545  22384010.9454                   22384018.3244
 108614501.69348  84634890.96646  20668690.5784                   20668697.8324
 113468512.06848  88417048.97745  21592340.7894                   21592348.0044
 127867941.93746  99637369.14243  24332475.0864                   24332487.7734
                                  23242782.164
 126275388.38846  98396540.31143  24029428.4454                   24029436.8794
 109914895.19647  85648038.40545  20916104.5634                   20916112.1214
 122782412.96946  95674627.33144  23364723.9064                   23364732.8524
 104877661.88848  81722875.76047  19957553.9614                   19957559.0634
 11  7 23 17 11 30.0000000  0 10G06G19G13G16G32G07G10G03G20G23
 115545664.60647  90035649.55145  21987607.2114                   21987615.4304
 117547104.09047  91595231.85745  22368468.9694                   22368476.0434
 108558693.12948  84591403.75746  20658071.0234                   20658077.8754
 113545758.26248  88477240.76745  21607040.8914                   21607047.9844
 127962432.51746  99710997.94342  24350456.4064                   24350468.8874
 122081902.01016  95128752.06316  23231402.938
 126240964.43946  98369716.45943  24022877.2814                   24022886.1684
 109887876.88447  85626985.17545  20910963.0474                   20910971.0944
 122871128.44446  95743756.17443  23381606.7344                   23381615.0824
 104877759.51348  81722951.80946  19957572.6254                   19957578.0474
 11  7 23 17 12  0.0000000  0 10G06G19G13G16G32G07G10G03G20G23
 115552256.92647  90040786.42545  21988861.2584                   21988869.8364
 117465709.01047  91531807.17945  22352979.6724                   22352986.8404
 108503270.97148  84548217.66946  20647524.2034                   20647531.4454
 113623263.38048  88537634.34645  21621789.7344                   21621796.6134
 128056882.56746  99784595.08643  24368431.0634                   24368442.1414
 122022122.418 6  95082170.524 6  23220027.586
 126207045.01846  98343285.76643  24016422.0784                   24016432.1524
 109861449.89847  85606392.72545  20905934.2974                   20905941.7034
 122959916.08646  95812941.20344  23398502.1094                   23398510.5434
 104878394.98448  81723446.96046  19957693.6954                   19957698.6334
 11  7 23 17 12 30.0000000  0 10G06G19G13G16G32G07G10G03G20G23
 115559403.77847  90046355.40445  21990221.8204                   21990229.4064
 117384598.31947  91468604.11445  22337545.5704                   22337551.7194
 108448236.87048  84505333.95746  20637051.5314                   20637058.7934
 113701024.68848  88598227.53545  21636586.8674                   21636593.9384
 128151288.98646  99858158.25342  24386395.1414                   24386408.0514
 121962366.226 6  95035607.240 6  23208656.867
 126173630.52546  98317248.55343  24010064.0314                   24010073.4884
 109835615.47248  85586262.00446  20901018.0944                   20901026.1134
 123048772.69546  95882179.99244  23415410.3834                   23415419.6294
 104879568.99848  81724361.76047  19957916.7734                   19957921.9924
 11  7 23 17 13  0.0000000  0 10G06G19G13G16G32G07G10G03G20G23
 115567105.65147  90052356.85645  21991686.8984                   21991695.7664
 117303775.25247  91405625.15045  22322164.8834                   22322171.3524
 108393593.63348  84462754.82246  20626653.3364                   20626661.0124
 113779039.44948  88659018.23045  21651432.5864                   21651439.7074
 128245649.71446  99931685.84142  24404352.7584                   24404364.6174
 121902633.230 6  94989062.106 6  23197289.797
 126140721.41546  98291605.07943  24003801.4064                   24003810.9414
 109810375.43847  85566594.45446  20896215.2034                   20896222.8834
 123137695.83246  95951470.64143  23432332.1334                   23432340.9104
 104881282.54548  81725696.97746  19958243.3134                   19958248.2384
 11  7 23 17 13 30.0000000  0 10G06G19G13G16G32G07G10G03G20G23
 115575362.57247  90058790.81645  21993258.8364                   21993267.0634
 117223243.27747  91342873.01145  22306839.9064                   22306846.9384
 108339343.50548  84420482.00646  20616329.8594                   20616336.9804
 113857305.04148  88720004.37645  21666326.2814                   21666333.3484
 128339962.08145 100005175.76142  24422298.4534                   24422312.4964
 121842923.398 6  94942535.003 6  23185927.844
 126108318.77946  98266356.28443  23997635.3284                   23997645.8484
 109785731.16047  85547391.12846  20891525.4774                   20891533.6334
 123226682.03846  96020810.49143  23449265.0704                   23449274.8834
 104883536.79048  81727453.51747  19958672.2504                   19958677.7154
 11  7 23 17 14  0.0000000  0 10G06G19G13G16G32G07G10G03G20G23
 115584174.96047  90065657.59345  21994935.3054                   21994943.7194
 117143005.26647  91280349.94245  22291571.2814                   22291577.6684
 108285489.13348  84378517.56746  20606081.8444                   20606088.8554
 113935818.94948  88781184.02045  21681266.8284                   21681273.8054
 128434223.60645 100078626.04142  24440236.5474                   24440249.9774
 121783236.910 6  94896026.053 6  23174568.656
 126076423.38146  98241502.72443  23991566.6254                   23991575.6454
 109761684.27547  85528653.29146  20886949.4844                   20886957.1884
 123315729.01346  96090197.57543  23466210.5554                   23466220.0274
 104886332.70848  81729632.12547  19959204.1094                   19959209.8324
 11  7 23 17 14 30.0000000  0 10G06G19G13G16G32G07G10G03G20G23
 115593542.77547  90072957.20345  21996717.4614                   21996726.5314
 117063064.89647  91218058.80745  22276359.1954                   22276365.9384
 108232033.42847  84336863.77746  20595909.4844                   20595916.6374
 114014578.82248  88842555.32545  21696254.6174                   21696261.2774
 128528432.11746 100152035.04243  24458164.2584                   24458177.6054
 121723573.681 6  94849535.254 6  23163214.391
 126045035.38046  98217044.52743  23985592.7584                   23985601.8594
 109738236.50547  85510382.31146  20882487.2894                   20882495.5394
 123404833.81046  96159629.74443  23483167.2114                   23483175.7974
 104889671.50148  81732233.75946  19959839.7344                   19959844.6954
 11  7 23 17 15  0.0000000  0 10G06G19G13G16G32G07G10G03G20G23
 115603466.01147  90080689.58445  21998605.8594                   21998614.4574
 116983425.05947  91156001.80445  22261204.2584                   22261211.6024
 108178978.22548  84295522.06146  20585813.1174                   20585819.7974
 114093581.51048  88904115.82445  21711288.2424                   21711294.8324
 128622584.76146 100225400.44543  24476081.5394                   24476093.9304
 121663933.138 6  94803062.117 6  23151865.719
 126014155.21146  98192982.07643  23979716.3914                   23979726.2814
 109715388.65447  85492578.80145  20878139.7424                   20878147.6644
 123493992.84347  96229104.16443  23500134.0634                   23500142.7424
 104893553.28548  81735258.51647  19960578.2734                   19960583.5394
 11  7 23 17 15 30.0000000  0 10G06G19G13G16G32G07G10G03G20G23
 115613945.01047  90088855.05345  22000600.1414                   22000608.6414
 116904089.27247  91094181.75145  22246106.3674                   22246113.1524
 108126326.53748  84254494.77946  20575794.2194                   20575801.2854
 114172824.83248  88965863.84145  21726367.6254                   21726374.3054
 128716679.17346 100298720.54143  24493987.0634                   24493999.6254
 121604315.508 6  94756606.841 6  23140520.695
 125983783.82246  98169316.06543  23973937.3594                   23973947.3714
 109693142.16047  85475243.86345  20873906.4924                   20873914.3014
 123583203.65146  96298618.95543  23517110.6174                   23517119.3014
 104897979.53548  81738707.53547  19961420.4064                   19961425.3524
 11  7 23 17 16  0.0000000  0 10G06G19G13G16G32G07G10G03G20G23
 115624979.49647  90097453.34745  22002700.7894                   22002708.5004
 116825060.50947  91032600.88345  22231068.0314                   22231074.8984
 108074080.01347  84213783.20746  20565851.8594                   20565858.8014
 114252305.94948  89027797.16945  21741492.5004                   21741498.8874
 128810712.52546 100371992.98642  24511880.8674                   24511893.0594
 121544720.734 6  94710169.393 6  23129180.992
 125953921.23246  98146046.49543  23968254.6954                   23968264.1134
 109671498.48647  85458378.66245  20869787.7424                   20869795.5554
 123672463.68846  96368172.10343  23534095.7274                   23534105.1604
 104902950.71648  81742581.13547  19962366.2034                   19962372.0164
 11  7 23 17 16 30.0000000  0 10G06G19G13G16G32G07G10G03G20G23
 115636569.98747  90106484.89145  22004905.9844                   22004914.7304
 116746342.14347  90971261.94445  22216088.4774                   22216095.1414
 108022241.61848  84173389.64646  20555987.5704                   20555994.2894
 114332022.42848  89089913.87645  21756662.3204                   21756668.6454
 128904683.05845 100445216.54343  24529762.5474                   24529775.1094
 121485148.847 7  94663749.757 6  23117844.602
 125924568.56846  98123174.32243  23962669.8364                   23962678.3204
 109650459.29847  85441984.50746  20865783.9534                   20865792.0634
 123761769.56746  96437760.95343  23551090.2974                   23551099.8674
 104908468.31348  81746880.55447  19963416.5944                   19963421.9024
 11  7 23 17 17  0.0000000  0 10G06G19G13G16G32G07G10G03G20G23
 115648716.29547  90115949.54345  22007216.5784                   22007225.6454
 116667937.62847  90910167.55045  22201168.3284                   22201175.0354
 107970813.65748  84133315.91946  20546201.0784                   20546208.1644
 114411971.57948  89152211.88745  21771876.1094                   21771882.4494
 128998588.20246 100518389.11743  24547632.6804                   24547645.1844
 121425599.610 7  94617347.772 6  23106512.258
 125895725.84345  98100699.55042  23957178.8834                   23957190.7074
 109630025.74547  85426062.25045  20861895.6334                   20861903.9264
 123851118.63446  96507383.46643  23568092.6644                   23568101.5554
 104914532.84048  81751606.16346  19964570.4774                   19964575.9344
 11  7 23 17 17 30.0000000  0 10G06G19G13G16G32G07G10G03G20G23
 115661418.53447  90125847.38645  22009633.9774                   22009642.6564
 116589849.83747  90849319.95145  22186308.6484                   22186315.5864
 107919798.70748  84093564.01546  20536493.3444                   20536500.1484
 114492150.98348  89214689.33045  21787133.2664                   21787140.5554
 129092425.17546 100591508.60143  24565490.0704                   24565502.0044
 121366073.043 7  94570963.407 6  23095184.797
 125867393.89945  98078622.65743  23951789.0394                   23951798.8014
 109610198.67047  85410612.60045  20858122.5634                   20858131.2344
 123940507.94746  96577037.35144  23585102.7894                   23585112.7234
 104921145.03148  81756758.50746  19965828.7584                   19965834.3874
 11  7 23 17 18  0.0000000  0 10G06G19G13G16G32G07G10G03G20G23
 115674676.55947  90136178.30745  22012156.9614                   22012165.9184
 116512082.16347  90788721.80645  22171510.3364                   22171516.7504
 107869198.90047  84054135.59646  20526864.2974                   20526871.2464
 114572558.02848  89277344.14045  21802434.7664                   21802441.4454
 129186191.77446 100664573.26843  24583333.3984                   24583345.6094
 121306569.065 7  94524596.696 6  23083861.789
 125839572.77245  98056943.89943  23946494.4844                   23946504.6994
 109590980.05047  85395637.05845  20854465.2274                   20854473.8524
 124029934.56746  96646720.28243  23602120.3834                   23602130.3594
 104928305.80348  81762338.30847  19967191.3364                   19967196.9534
 11  7 23 17 18 30.0000000  0 10G06G19G13G16G32G07G10G03G20G23
 115688490.00147  90146942.03145  22014785.7584                   22014794.2734
 116434637.63547  90728375.46645  22156772.5314                   22156779.9494
 107819016.53747  84015032.47246  20517314.7814                   20517322.2584
 114653189.84848  89340174.09845  21817778.1414                   21817785.2304
 129279885.27546 100737580.89243  24601162.9384                   24601175.6134
 121247087.629 7  94478247.569 6  23072543.195
 125812262.59346  98035663.26543  23941296.2894                   23941307.6884
 109572370.60847  85381136.20145  20850924.0314                   20850932.3874
 124119395.39047  96716429.89543  23619144.0234                   23619153.6604
 104936015.41948  81768345.76547  19968658.8524                   19968664.1094
 11  7 23 17 19  0.0000000  0 10G06G19G13G16G32G07G10G03G20G23
 115702859.24247  90158138.85145  22017520.0164                   22017528.4534
 116357519.52047  90668283.49445  22142097.8444                   22142104.5234
 107769254.78548  83976257.08246  20507845.4614                   20507852.6844
 114734044.25448  89403177.49145  21833164.3444                   21833171.1374
 129373503.57346 100810529.98743  24618976.9844                   24618990.7154
 121187628.785 7  94431916.014 6  23061228.359
 125785464.57346  98014781.62743  23936198.3754                   23936208.3054
 109554371.95347  85367111.28645  20847499.4304                   20847507.1844
 124208887.89246  96786164.16543  23636174.1094                   23636183.1374
 104944275.17448  81774781.93047  19970230.6174                   19970235.6524
 11  7 23 17 19 30.0000000  0 10G06G19G13G16G32G07G10G03G20G23
 115717783.88547  90169768.42445  22020360.6644                   22020368.6524
 116280730.85447  90608448.19245  22127485.4844                   22127492.2034
 107719915.04148  83937810.52746  20498457.0004                   20498463.1174
 114815118.39948  89466352.12345  21848591.7974                   21848598.8284
 129467043.89146 100883418.27843  24636777.5234                   24636791.2774
 121128192.225 7  94385601.847 6  23049917.758
 125759178.45446  97994298.93443  23931196.8134                   23931206.2464
 109536984.72147  85353562.78646  20844190.8204                   20844198.7424
 124298409.01346  96855920.68843  23653209.9224                   23653219.0274
 104953085.45048  81781647.07146  19971906.9694                   19971912.6054
 11  7 23 17 20  0.0000000  0 10G06G19G13G16G32G07G10G03G20G23
 115733264.04547  90181830.88545  22023305.7584                   22023314.1644
 116204275.25347  90548872.44645  22112935.9144                   22112943.0084
 107671000.34747  83899695.19746  20489148.6024                   20489155.0234
 114896410.11347  89529696.28645  21864061.2504                   21864069.0004
 129560504.11146 100956244.17642  24654562.3984                   24654576.0004
 121068778.283 6  94339305.302 6  23038610.117
 125733404.76846  97974215.57443  23926291.7194                   23926301.1374
 109520210.45247  85340491.92945  20840998.2584                   20841006.6764
 124387956.45246  96925697.79243  23670251.3134                   23670259.6024
 104962447.55648  81788942.19947  19973688.6334                   19973693.6334
 11  7 23 17 20 30.0000000  0 10G06G19G13G16G32G07G10G03G20G23
 115749299.30047  90194325.87445  22026357.3204                   22026365.6024
 116128155.38347  90489558.31045  22098451.1884                   22098458.2584
 107622512.56148  83861912.50546  20479921.5234                   20479928.3714
 114977916.24247  89593207.53045  21879571.5004                   21879579.2384
 129653881.61546 101029005.63342  24672332.1094                   24672345.4304
 121009386.749 6  94293026.217 6  23027309.445
 125708143.87446  97954531.77443  23921484.2424                   23921493.9774
 109504050.04547  85327899.40745  20837923.1334                   20837930.6214
 124477526.65746  96995492.58643  23687295.7344                   23687304.6054
 104972361.29648  81796667.16747  19975574.9304                   19975580.5864
 11  7 23 17 21  0.0000000  0 10G06G19G13G16G32G07G10G03G20G23
 115765889.56947  90207253.35645  22029514.1414                   22029522.5474
 116052374.59247  90430508.39945  22084030.0864                   22084037.0204
 107574454.35248  83824464.54946  20470775.9384                   20470783.4574
 115059634.89948  89656884.37345  21895122.1024                   21895129.5984
 129747174.21546 101101700.83142  24690084.5634                   24690098.8794
 120950017.562 6  94246764.570 6  23016011.969
 125683395.84146  97935247.58543  23916775.6724                   23916784.6804
 109488504.85547  85315786.28045  20834964.6024                   20834972.9104
 124567117.00547  97065303.11543  23704344.8134                   23704353.0594
 104982827.79548  81804822.85646  19977566.7194                   19977572.1764
 11  7 23 17 21 30.0000000  0 10G06G19G13G16G32G07G10G03G20G23
 115783034.94747  90220613.38745  22032777.0474                   22032785.4344
 115976936.39947  90371725.43445  22069675.1484                   22069681.4534
 107526828.34548  83787353.39846  20461713.4304                   20461720.2704
 115141563.11748  89720724.50445  21910712.2734                   21910719.5594
 129840379.33646 101174327.90942  24707822.6334                   24707834.7074
 120890671.048 7  94200520.544 6  23004719.297
 125659161.12046  97916363.39443  23912163.6254                   23912174.2114
 109473575.54747  85304153.05645  20832123.6804                   20832132.2304
 124656725.02246  97135127.41043  23721395.4384                   23721405.4734
 104993847.66648  81813409.76447  19979663.5634                   19979669.0474
 11  7 23 17 22  0.0000000  0 10G06G19G13G16G32G07G10G03G20G23
 115800734.78547  90234405.46945  22036145.4454                   22036154.0664
 115901843.33947  90313211.41945  22055385.1024                   22055391.5704
 107479636.58048  83750580.59146  20452733.4534                   20452740.0004
 115223698.50648  89784726.07245  21926342.5864                   21926349.6094
 129933494.74946 101246885.12242  24725541.8444                   24725554.3244
 120831346.858 7  94154293.921 6  22993429.742
 125635440.11746  97897879.49143  23907649.8594                   23907659.7544
 109459263.51747  85293000.81545  20829400.5864                   20829408.6174
 124746347.42046  97204962.88043  23738450.6564                   23738459.5904
 105005421.55248  81822428.36347  19981866.5784                   19981871.5234
 11  7 23 17 22 30.0000000  0 10G06G19G13G16G32G07G10G03G20G23
 115818988.91947  90248629.46845  22039618.4924                   22039627.2154
 115827098.84547  90254969.01345  22041161.5784                   22041168.4384
 107432881.28148  83714147.89346  20443835.4304                   20443842.6804
 115306038.42547  89848887.00445  21942011.9694                   21942018.2584
 130026517.70646 101319370.29042  24743243.2034                   24743256.2974
 120772045.121 7  94108084.789 6  22982145.242
 125612232.82646  97879795.89343  23903233.1644                   23903242.7584
 109445569.45047  85282330.11746  20826794.5944                   20826803.2384
 124835981.46046  97274807.41743  23755506.6484                   23755516.7664
 105017549.68348  81831878.81047  19984174.1564                   19984179.9804
 11  7 23 17 23  0.0000000  0 10G06G19G13G16G32G07G10G03G20G23
 115837797.25247  90263285.29745  22043198.2034                   22043206.8284
 115752706.19947  90197000.75845  22027005.6174                   22027012.0474
 107386564.95448  83678057.25146  20435022.2194                   20435028.5234
 115388580.46148  89913205.45745  21957718.7584                   21957726.0664
 130119446.43646 101391781.95142  24760926.8594                   24760940.4574
 120712765.798 7  94061893.099 6  22970865.047
 125589539.57546  97862112.81143  23898915.0784                   23898924.2854
 109432494.74147  85272142.03145  20824306.8834                   20824315.0984
 124925624.82046  97344659.26343  23772565.9534                   23772575.4534
 105030233.20148  81841762.06147  19986588.1174                   19986593.0904
 11  7 23 17 23 30.0000000  0 10G06G19G13G16G32G07G10G03G20G23
 115857159.42347  90278372.70445  22046882.5394                   22046891.1604
 115678668.36247  90139308.97645  22012916.6254                   22012922.9654
 107340689.91848  83642310.48146  20426292.1954                   20426299.3554
 115471322.00847  89977679.34645  21973463.7584                   21973470.8834
 130212278.12446 101464118.12242  24778593.3594                   24778605.9924
 120653508.929 7  94015718.944 6  22959589.008
 125567360.57646  97844830.47243  23894695.1414                   23894704.1764
 109420039.72647  85262436.83645  20821936.8134                   20821945.1454
 125015273.97346  97414515.57943  23789625.4844                   23789635.7704
 105043472.25548  81852078.19347  19989107.3914                   19989112.9224
 11  7 23 17 24  0.0000000  0 10G06G19G13G16G32G07G10G03G20G23
 115877074.74047  90293891.15145  22050672.6804                   22050680.4534
 115604988.20447  90081895.91445  21998895.0004                   21998902.3484
 107295257.65948  83606908.72846  20417646.6804                   20417653.9384
 115554260.62847  90042306.80745  21989246.5704                   21989254.0514
 130305010.52446 101536376.81642  24796238.6174                   24796252.7584
 120594274.204 6  93969561.973 6  22948315.680
 125545695.50546  97827948.58243  23890572.0474                   23890581.2814
 109408205.36347  85253215.25545  20819684.5314                   20819692.4104
 125104926.02146  97484374.10643  23806686.6024                   23806695.2774
 105057267.07548  81862827.38747  19991732.2034                   19991738.0634
 11  7 23 17 24 30.0000000  0 10G06G19G13G16G32G07G10G03G20G23
 115897543.15347  90309840.56445  22054566.7814                   22054575.6724
 115531669.02647  90024764.12145  21984943.5474                   21984950.1524
 107250271.52648  83571854.60646  20409086.4144                   20409092.9144
 115637393.79747  90107085.87845  22005066.6024                   22005073.6254
 130397641.10246 101608556.29942  24813867.7894                   24813879.4884
 120535062.146 7  93923422.777 6  22937048.805
 125524545.19946  97811467.84443  23886547.1804                   23886556.1454
 109396992.93647  85244478.29145  20817550.6334                   20817558.7194
 125194578.59146  97554233.07343  23823746.7734                   23823755.6024
 105071618.39848  81874010.20746  19994463.2664                   19994468.6954
 11  7 23 17 25  0.0000000  0 10G06G19G13G16G32G07G10G03G20G23
 115918564.31947  90326220.69545  22058567.4924                   22058576.3284
 115458714.08247  89967916.15845  21971059.7584                   21971066.7234
 107205733.51948  83537149.67246  20400611.0234                   20400617.7624
 115720719.00047  90172014.53745  22020922.9304                   22020929.8524
 130490167.51446 101680654.46342  24831473.8834                   24831486.9264
 120475872.564 6  93877301.058 6  22925784.961
 125503909.63946  97795388.09143  23882620.2114                   23882629.1684
 109386403.09947  85236226.47845  20815535.6174                   20815543.5314
 125284228.67746  97624090.11743  23840807.4224                   23840816.0904
 105086526.63648  81885626.99346  19997300.4384                   19997305.3714
 11  7 23 17 25 30.0000000  0 10G06G19G13G16G32G07G10G03G20G23
 115940137.82347  90343031.21945  22062672.9844                   22062681.0044
 115386126.56547  89911354.52245  21957247.2194                   21957254.2344
 107161646.13548  83502795.87046  20392221.8594                   20392228.9494
 115804233.83847  90237091.01645  22036814.9614                   22036822.4344
 130582587.87446 101752670.05242  24849060.6024                   24849074.2624
 120416705.986 6  93831197.264 6  22914525.656
 125483788.24346  97779709.06142  23878789.7504                   23878801.0204
 109376436.93047  85228460.62445  20813639.1564                   20813646.8634
 125373874.06846  97693943.49843  23857866.7814                   23857875.6294
 105101992.46848  81897678.27646  20000243.3204                   20000248.8594
 11  7 23 17 26  0.0000000  0 10G06G19G13G16G32G07G10G03G20G23
 115962263.28247  90360271.83445  22066882.7424                   22066891.5904
 115313909.26547  89855081.33845  21943505.0704                   21943511.6994
 107118011.32348  83468794.72046  20383918.3204                   20383925.1604
 115887935.67347  90302313.19645  22052742.6954                   22052749.7894
 130674899.61546 101824600.99842  24866628.7114                   24866640.8054
 120357561.981 6  93785111.045 7  22903271.023
 125464181.51746  97764431.11342  23875061.4534                   23875070.5084
 109367094.92247  85221181.13745  20811860.9064                   20811868.9804
 125463511.47046  97763790.62843  23874924.1024                   23874933.0044
 105118016.11348  81910164.20946  20003292.1094                   20003298.0434
 11  7 23 17 26 30.0000000  0 10G06G19G13G16G32G07G10G03G20G23
 115984940.23447  90377942.17445  22071198.4774                   22071206.2504
 115242065.65447  89799099.34245  21929832.8754                   21929839.9534
 107074831.40148  83435148.03346  20375701.3914                   20375707.9264
 115971822.24947  90367679.30545  22068705.8754                   22068712.6524
 130767100.45946 101896445.50743  24884173.1954                   24884187.1214
 120298440.715 6  93739042.564 6  22892021.016
 125445089.64146  97749554.40942  23871427.4614                   23871436.6914
 109358378.04048  85214388.77145  20810202.4224                   20810210.6454
 125553138.09346  97833629.39143  23891978.4534                   23891989.0514
 105134598.11448  81923085.21746  20006447.8674                   20006453.4614
 11  7 23 17 27  0.0000000  0 10G06G19G13G16G32G07G10G03G20G23
 116008168.59747  90396042.19145  22075618.8444                   22075626.7344
 115170598.76347  89743410.91845  21916233.6254                   21916240.7894
 107032108.98248  83401857.82646  20367570.9844                   20367578.2584
 116055891.12747  90433187.50845  22084703.3754                   22084711.1454
 130859188.27546 101968201.93743  24901697.5394                   24901711.1684
 120239342.546 7  93692992.042 6  22880775.391
 125426512.67046  97735078.86342  23867891.1174                   23867901.2504
 109350287.28947  85208084.29045  20808662.7814                   20808671.0594
 125642751.61346  97903457.94043  23909031.7734                   23909041.5164
 105151739.43548  81936442.06447  20009710.2194                   20009715.4064
 11  7 23 17 27 30.0000000  0 10G06G19G13G16G32G07G10G03G20G23
 116031947.37047  90414571.09845  22080143.8364                   22080151.4184
 115099511.37447  89688018.17045  21902706.5164                   21902712.7704
 106989846.05348  83368925.67146  20359529.3054                   20359536.0004
 116140139.69247  90498835.71345  22100736.2034                   22100743.7774
 130951160.26346 102039868.07742  24919199.1414                   24919213.9414
 120180267.473 7  93646959.524 6  22869533.297
 125408450.35246  97721004.27043  23864455.5394                   23864464.9224
 109342823.29548  85202268.19345  20807242.1254                   20807251.1914
 125732349.07146  97973273.98643  23926082.3444                   23926091.6094
 105169439.60748  81950234.38947  20013077.9384                   20013083.2584
 11  7 23 17 28  0.0000000  0 10G06G19G13G16G32G07G10G03G20G23
 116056276.13847  90433528.55845  22084773.5864                   22084781.4614
 115028806.50647  89632923.52845  21889251.5944                   21889258.3834
 106948044.92348  83336353.38046  20351574.6954                   20351581.9384
 116224565.86147  90564622.30945  22116801.6884                   22116809.2664
 131043014.46846 102111442.47042  24936677.8984                   24936693.6294
 120121215.433 6  93600944.994 6  22858295.781
 125390902.86746  97707330.89542  23861114.7974                   23861125.2584
 109335986.63547  85196940.92345  20805942.1174                   20805949.9694
 125821927.54546  98043075.15943  23943128.1724                   23943137.9924
 105187699.37548  81964462.75546  20016552.8284                   20016558.3284
 11  7 23 17 28 30.0000000  0 10G06G19G13G16G32G07G10G03G20G23
 116081154.17447  90452914.04145  22089507.3834                   22089515.5664
 114958487.21547  89578129.31145  21875870.1724                   21875877.1414
 106906707.33548  83304142.29046  20343708.0704                   20343715.1214
 116309166.30848  90630544.68045  22132900.5234                   22132907.4964
 131134748.18845 102182922.95942  24954134.2664                   24954149.5664
 120062186.367 7  93554948.314 6  22847063.336
 125373870.24146  97694058.69443  23857873.2814                   23857883.5434
 109329777.40848  85192102.55745  20804760.2344                   20804768.6764
 125911484.14846  98112859.31443  23960170.8984                   23960180.8244
 105206518.36448  81979126.88046  20020134.4384                   20020139.8444
 11  7 23 17 29  0.0000000  0 10G06G19G13G16G32G07G10G03G20G23
 116106580.92147  90472727.08645  22094345.7034                   22094354.1094
 114888556.55247  89523637.91145  21862562.3054                   21862569.5474
 106865835.79648  83272294.32846  20335930.6174                   20335937.7664
 116393939.18747  90696601.44645  22149032.6484                   22149038.9414
 131226359.45845 102254308.07142  24971567.5084                   24971582.9654
 120003180.430 7  93508969.735 6  22835835.055
 125357352.48946  97681187.76342  23854731.6174                   23854740.7584
 109324196.62948  85187753.90245  20803698.2344                   20803706.1914
 126001016.52246  98182624.55743  23977208.8674                   23977218.8164
 105225897.21848  81994227.26446  20023821.5164                   20023826.9304
 11  7 23 17 29 30.0000000  0 10G06G19G13G16G32G07G10G03G20G23
 116132556.21547  90492967.55745  22099288.8754                   22099297.2464
 114819017.79447  89469451.88545  21849330.3054                   21849336.7584
 106825432.72148  83240811.41546  20328242.0314                   20328249.3714
 116478882.33747  90762790.88145  22165196.5634                   22165203.8754
 131317846.13945 102325596.00042  24988977.9614                   24988992.9734
 119944197.853 7  93463009.309 6  22824610.797
 125341348.94046  97668717.45943  23851686.3674                   23851695.4184
 109319245.28548  85183895.72045  20802756.2034                   20802764.3634
 126090521.73146  98252368.70443  23994240.7814                   23994251.5984
 105245836.67248  82009764.47846  20027615.8594                   20027621.7114
 11  7 23 17 30  0.0000000  0 10G06G19G13G16G32G07G10G03G20G23
 116159079.11147  90513634.74345  22104336.0394                   22104344.3484
 114749873.62647  89415573.34945  21836172.4224                   21836179.0664
 106785499.99048  83209694.99846  20320642.8204                   20320649.9024
 116563992.90947  90829110.77045  22181392.6024                   22181399.3914
 131409205.558 5                  25006363.750
 119885238.654 7  93417067.091 7  22813390.961
 125325860.06746  97656648.17243  23848739.1094                   23848748.0004
 109314923.55447  85180528.13745  20801933.5234                   20801941.8874
 126179996.94146  98322089.47143  24011267.1334                   24011277.8164
 105266336.04548  82025737.99046  20031516.8594                   20031522.4964
 11  7 23 17 30 30.0000000  0 10G06G19G13G16G32G07G10G03G20G23
 116186148.87047  90534728.04645  22109487.3674                   22109495.7544
 114681127.56947  89362005.01345  21823090.2504                   21823097.0474
 106746039.77648  83178946.77146  20313134.0784                   20313140.9104
 116649268.42447  90895559.20045  22197620.0704                   22197626.7154
 131500435.72015                  25023722.594
 119826302.831 7  93371143.133 7  22802176.188
 125310885.52446  97644979.68843  23845889.5474                   23845897.8674
 109311231.68947  85177651.37445  20801230.8754                   20801238.9574
 126269439.74446  98391785.00343  24028287.1644                   24028298.1094
 105287396.08948  82042148.40246  20035524.3914                   20035529.8094
 11  7 23 17 31  0.0000000  0  9G06G19G13G16G07G10G03G20G23
 116213765.54547  90556247.51145  22114742.5314                   22114750.9304
 114612782.33547  89308748.99745  21810085.0164                   21810091.0084
 106707055.06748  83148569.06946  20305715.6644                   20305722.4064
 116734706.95647  90962134.63645  22213878.3754                   22213885.4224
 119767391.640 7  93325238.329 7  22790965.797
 125296425.46546  97633712.16143  23843138.0314                   23843147.3834
 109308171.08948  85175266.48946  20800649.3284                   20800656.3674
 126358847.49246  98461453.17343  24045302.0164                   24045312.0554
 105309017.43348  82058996.17546  20039638.5084                   20039644.4104
 11  7 23 17 31 30.0000000  0  9G06G19G13G16G07G10G03G20G23
 116241928.21147  90578192.42745  22120101.9534                   22120110.2154
 114544841.04847  89255807.75745  21797155.9534                   21797161.7584
 106668547.37848  83118563.08746  20298387.9774                   20298394.9384
 116820306.17947  91028835.29445  22230167.7504                   22230174.7384
 119708504.165 7  93279351.994 7  22779759.680
 125282479.48046  97622845.19343  23840484.1644                   23840493.5634
 109305742.10948  85173373.78645  20800186.6564                   20800193.8874
 126448217.49646  98531091.98643  24062308.3444                   24062318.0434
 105331199.88248  82076281.16846  20043860.2664                   20043866.1334
 11  7 23 17 32  0.0000000  0 10G06G19G13G16G32G07G10G03G20G23
 116270634.72747  90600561.13045  22125563.6954                   22125572.8834
 114477305.38647  89203182.58845  21784304.3524                   21784310.2424
 106630517.64648  83088929.53146  20291150.5944                   20291158.1604
 116906062.23047  91095658.15145  22246486.1724                   22246493.0434
 131773337.41915                  25075654.922
 119649639.565 7  93233483.479 6  22768557.859
 125269046.33946  97612377.77343  23837927.4694                   23837937.3914
 109303943.94947  85171972.61245  20799844.1644                   20799852.3554
 126537545.93146  98600698.36343  24079307.1804                   24079316.5554
 105353942.35548  82094002.55646  20048187.8444                   20048193.6804
 11  7 23 17 32 30.0000000  0  9G06G19G13G16G07G10G03G20G23
 116299885.73447  90623354.10545  22131130.8674                   22131139.3054
 114410179.31547  89150876.57245  21771530.3444                   21771536.7074
 106592969.22648  83059671.02946  20284005.9454                   20284012.9734
 116991973.97547  91162602.35145  22262834.6884                   22262842.1564
 119590799.332 7  93187633.965 7  22757361.172
 125256126.93246  97602310.64142  23835469.0704                   23835478.1214
 109302777.88748  85171063.99745  20799622.3204                   20799630.0704
 126626830.98246  98670270.92743  24096297.7034                   24096307.2664
 105377246.16048  82112161.34646  20052622.1484                   20052627.8524
 11  7 23 17 33  0.0000000  0 10G06G19G13G16G32G07G10G03G20G23
 116329680.44047  90646570.76045  22136800.5394                   22136808.2974
 114343465.83147  89098892.07145  21758835.7194                   21758841.4184
 106555904.35548  83030789.30646  20276952.6884                   20276959.4384
 117078038.90247  91229665.90845  22279212.1724                   22279219.9454
 131954583.17215                  25110143.969
 119531983.698 7  93141803.617 7  22746168.867
 125243720.74346  97592643.49543  23833108.0164                   23833116.4144
 109302244.41447  85170648.28645  20799520.9694                   20799528.5744
 126716070.21646  98739807.84342  24113279.7194                   24113289.2504
 105401111.57948  82130757.76246  20057164.0394                   20057169.4344
 11  7 23 17 33 30.0000000  0 10G06G19G13G16G32G07G10G03G20G23
 116360017.19647  90670209.78045  22142573.2734                   22142581.5864
 114277167.40447  89047230.98445  21746218.8594                   21746225.9804
 106519323.96448  83002285.11046  20269991.4384                   20269998.4304
 117164254.10747  91296846.54645  22295618.2424                   22295625.5164
                                  25127347.766
 119473191.923 7  93095991.873 6  22734980.773
 125231826.82446  97583375.44943  23830845.3054                   23830854.3054
 109302343.22248  85170725.29346  20799539.8594                   20799547.4924
 126805259.91346  98809306.12443  24130252.3204                   24130262.7774
 105425537.45148  82149790.89146  20061811.7814                   20061817.6844
 11  7 23 17 34  0.0000000  0 10G06G19G13G16G32G07G10G03G20G23
 116390895.91247  90694271.12045  22148449.0004                   22148457.8094
 114211287.39147  88995895.94745  21733682.7274                   21733689.3674
 106483231.03848  82974160.75546  20263123.5474                   20263130.4964
 117250617.63147  91364142.75245  22312053.2194                   22312059.9804
 132135250.78414                  25144523.813
 119414424.902 7  93050199.377 7  22723797.664
 125220445.78246  97574507.07443  23828680.3524                   23828688.4844
 109303075.41148  85171295.82345  20799678.8054                   20799687.1884
 126894398.25746  98878764.38243  24147214.2974                   24147225.1764
 105450524.85448  82169261.55946  20066566.7424                   20066572.4264
 11  7 23 17 34 30.0000000  0 10G06G19G13G16G32G07G10G03G20G23
 116422315.93847  90718754.23945  22154428.2424                   22154436.9024
 114145828.74447  88944889.23645  21721226.3834                   21721233.4844
 106447627.81547  82946417.99346  20256348.1334                   20256355.3284
 117337127.37247  91431552.89345  22328515.7974                   22328522.7544
 132225365.52014                  25161674.992
 119355682.834 7  93004426.380 7  22712619.609
 125209577.03446  97566037.93043  23826610.1174                   23826619.7934
 109304441.08248  85172359.97845  20799938.6954                   20799947.0394
 126983482.77546  98948180.75943  24164166.4144                   24164177.9734
 105476073.95448  82189169.93646  20071428.7344                   20071434.1094
 11  7 23 17 35  0.0000000  0  9G06G19G13G16G07G10G03G20G23
 116454276.68047  90743658.71145  22160510.3364                   22160518.4964
 114080794.90047  88894213.55645  21708850.3754                   21708857.6454
 106412516.69148  82919058.66246  20249666.5554                   20249674.0744
 117423781.48347  91499075.55345  22345004.7894                   22345011.7424
 119296966.507 7  92958673.419 7  22701446.664
 125199220.76046  97557968.06143  23824639.6884                   23824649.4144
 109306440.83047  85173918.19845  20800319.3594                   20800327.2344
 127072511.48746  99017553.56843  24181109.8054                   24181119.0944
 105502185.09248  82209516.26746  20076397.3444                   20076403.2234
 11  7 23 17 35 30.0000000  0  9G06G19G13G16G07G10G03G20G23
 116486776.94947  90768983.59445  22166694.8364                   22166703.5434
 114016188.18047  88843870.69245  21696555.8984                   21696563.3444
 106377899.17048  82892083.97846  20243079.6094                   20243086.4964
 117510576.99147  91566708.37045  22361521.6334                   22361529.1134
 119238275.448 7  92912940.162 7  22690277.164
 125189376.36446  97550297.02143  23822766.1954                   23822775.9414
 109309074.43048  85175970.35045  20800820.9924                   20800828.4144
 127161480.61546  99086879.93843  24198039.3444                   24198049.6884
 105528857.75748  82230300.14346  20081472.8674                   20081478.2624
 11  7 23 17 36  0.0000000  0  9G06G19G13G16G07G10G03G20G23
 116519815.41747  90794727.82245  22172981.9454                   22172990.1844
 113952011.10247  88793862.61445  21684343.9924                   21684350.1884
 106343777.11948  82865495.36546  20236586.1884                   20236592.9884
 117597511.27147  91634449.35145  22378064.9614                   22378071.9224
 119179609.384 7  92867226.369 7  22679114.242
 125180042.69145  97543024.06542  23820989.1174                   23821000.2934
 109312342.19347  85178516.65145  20801442.4614                   20801450.3714
 127250387.50545  99156157.83443  24214956.9694                   24214968.4694
 105556091.18248  82251520.95746  20086655.5084                   20086660.8834
 11  7 23 17 36 30.0000000  0  9G06G19G13G16G07G10G03G20G23
 116553391.41147  90820890.90445  22179371.5704                   22179379.6804
 113888266.88547  88744191.83245  21672213.4614                   21672220.0704
 106310152.63548  82839294.47846  20230187.6804                   20230194.5554
 117684582.17647  91702296.74845  22394634.0944                   22394640.7734
 119120968.988 7  92821532.579 7  22667955.406
 125171220.00645  97536149.21942  23819311.3594                   23819321.5594
 109316243.83148  85181556.87145  20802184.4614                   20802192.8834
 127339229.77545  99225385.35043  24231863.1644                   24231875.0434
 105583885.74848  82273179.04146  20091944.7974                   20091950.1844
 11  7 23 17 37  0.0000000  0  9G06G19G13G16G07G10G03G20G23
 116587503.81847  90847471.96345  22185862.2734                   22185870.9734
 113824957.99847  88694860.27145  21660166.5784                   21660173.1174
 106277027.58148  82813482.74046  20223883.7584                   20223891.4264
 117771787.66147  91770249.03845  22411228.4694                   22411235.7424
 119062354.396 7  92775858.862 7  22656801.648
 125162907.40746  97529671.84242  23817728.4694                   23817739.8014
 109320780.00648  85185091.55346  20803047.6884                   20803056.3674
 127428004.38545  99294560.09443  24248757.1724                   24248768.2734
 105612241.42048  82295274.35246  20097340.2974                   20097346.0664
 11  7 23 17 37 30.0000000  0 10G06G19G13G16G07G10G08G03G20G23
 116622151.66947  90874470.28845  22192455.7974                   22192464.3204
 113762087.19447  88645870.07345  21648202.1484                   21648208.9964
 106244403.74647  82788061.55046  20217676.1334                   20217683.2074
 117859124.68047  91838303.83145  22427848.7504                   22427855.6254
 119003765.598 7  92730205.249 7  22645653.172
 125155104.68246  97523591.74842  23816243.5554                   23816255.3954
 130219000.52215                  24779854.305
 109325950.34848  85189120.37545  20804031.8984                   20804040.3484
 127516709.02146  99363680.41143  24265638.3834                   24265648.0044
 105641158.11647  82317806.82646  20102843.2114                   20102848.5434
 11  7 23 17 38  0.0000000  0 10G06G19G13G16G07G10G08G03G20G23
 116657333.88747  90901884.98045  22199150.6804                   22199159.1644
 113699657.48547  88597223.58345  21636322.5704                   21636328.9534
 106212283.21948  82763032.56946  20211563.6334                   20211570.3874
 117946591.16747  91906459.49145  22444492.9924                   22444499.9414
 118945202.931 7  92684571.995 7  22634508.727
 125147811.03145  97517908.31942  23814857.5314                   23814867.8714
 130152241.22415                  24767148.656
 109331755.06048  85193643.52445  20805136.8054                   20805144.6524
 127605341.01546  99432744.05643  24282504.0554                   24282514.4964
 105670634.97448  82340775.76946  20108452.6254                   20108458.2384
 11  7 23 17 38 30.0000000  0 10G06G19G13G16G07G10G08G03G20G23
 116693049.77447  90929715.52945  22205947.4694                   22205956.0004
 113637671.54747  88548922.89545  21624526.6644                   21624533.0634
 106180668.12447  82738397.42446  20205547.5864                   20205554.8204
 118034185.28047  91974714.60845  22461161.7194                   22461168.2584
 118886666.813 7  92638959.458 7  22623368.992
 125141026.01145  97512621.38842  23813565.8204                   23813576.0394
                                  24754436.281
 109338194.66548  85198661.39645  20806361.9384                   20806370.0124
 127693897.71146  99501749.10343  24299355.9064                   24299367.0554
 105700672.44148  82364181.55746  20114168.5084                   20114174.4844
 11  7 23 17 39  0.0000000  0  9G06G19G13G16G07G10G03G20G23
 116729298.41547  90957961.18545  22212845.2814                   22212854.2274
 113576132.65547  88500970.53945  21612815.8834                   21612822.6454
 106149560.33647  82714157.57946  20199628.2734                   20199635.3554
 118121904.65147  92043067.33544  22477854.0164                   22477861.0124
 118828157.577 6  92593367.918 7  22612235.258
 125134749.58745  97507730.58642  23812371.1564                   23812382.8524
 109345269.24348  85204174.05746  20807708.1024                   20807716.1054
 127782376.77146  99570693.61843  24316192.1094                   24316203.7384
 105731270.36248  82388024.07946  20119991.2424                   20119996.4384
 11  7 23 17 39 30.0000000  0  9G06G19G13G16G07G10G03G20G23
 116766078.61547  90986621.05845  22219843.8834                   22219852.2934
 113515043.37047  88453368.54245  21601191.3834                   21601197.8444
 106118961.87847  82690314.61646  20193804.9924                   20193812.1844
 118209746.89047  92111515.78345  22494569.7034                   22494577.1214
 118769675.604 7  92547797.590 7  22601106.422
 125128981.185 5                  23811272.953
 109352978.61748  85210181.34946  20809175.3594                   20809183.5864
 127870775.62246  99639575.65843  24333014.4454                   24333025.3164
 105762428.50648  82412303.12446  20125920.0164                   20125925.2624
 11  7 23 17 40  0.0000000  0  9G06G19G13G16G07G10G03G20G23
 116803389.67647  91015694.60345  22226944.4614                   22226952.8284
 113454406.59847  88406119.12845  21589652.4614                   21589658.8954
 106088874.92847  82666870.25046  20188080.1414                   20188086.4304
 118297710.06547  92180058.47945  22511307.7344                   22511315.6764
 118711220.963 7  92502248.555 7  22589981.938
 125123719.913 6                  23810273.438
 109361322.97048  85216683.43346  20810763.2894                   20810771.2544
 127959091.83146  99708393.23343  24349821.0314                   24349831.9454
 105794146.78748  82437018.64146  20131956.2424                   20131961.6484
 11  7 23 17 40 30.0000000  0  9G06G19G13G16G07G10G03G20G23
 116841229.80447  91045180.40645  22234144.1484                   22234153.2934
 113394224.60647  88359224.11145  21578200.4924                   21578206.7194
 106059300.75947  82643825.43846  20182451.9844                   20182459.4844
 118385791.59247  92248693.39444  22528069.8674                   22528077.2304
 118652793.754 7  92456720.929 7  22578864.500
 125118965.006 5                  23809367.641
 109370301.65248  85223679.81945  20812471.8054                   20812480.3284
 128047322.36746  99777144.10643  24366610.3204                   24366621.9964
 105826424.61348  82462170.16346  20138098.5864                   20138103.8794
 11  7 23 17 41  0.0000000  0  9G06G19G13G16G07G10G03G20G23
 116879598.27347  91075077.90845  22241446.5164                   22241454.9534
 113334500.22247  88312685.65545  21566835.3914                   21566841.4924
 106030241.51547  82621181.86946  20176922.2584                   20176929.8554
 118473988.96847  92317418.56145  22544853.0314                   22544861.1644
 118594394.373 7  92411214.941 7  22567751.766
 125114716.165 5                  23808559.016
 109379914.99148  85231170.72345  20814301.2034                   20814309.3984
 128135464.98246  99845826.44043  24383383.3984                   24383394.9654
 105859261.64648  82487757.43246  20144347.2664                   20144352.7664
 11  7 23 17 41 30.0000000  0  9G06G19G13G16G07G10G03G20G23
 116918494.05247  91105386.29745  22248848.0084                   22248857.0704
 113275236.44947  88266506.12845  21555557.0784                   21555563.8634
 106001699.26247  82598941.14446  20171490.5394                   20171497.8404
 118562300.46147  92386232.65645  22561659.0474                   22561665.6484
 118536023.536 7  92365731.104 6  22556643.133
 125110972.706 5                  23807847.695
 109390162.66448  85239155.92445  20816251.4304                   20816259.1844
 128223517.25446  99914438.38343  24400139.4924                   24400150.8324
 105892657.80848  82513780.38746  20150702.1724                   20150707.7114
 11  7 23 17 42  0.0000000  0 10G06G19G13G16G07G10G08G03G20G23
 116957915.61847  91136104.39545  22256349.7034                   22256358.6134
 113216435.46947  88220687.21746  21544368.1804                   21544374.5084
 105973675.46747  82577104.42046  20166158.1334                   20166165.3834
 118650723.53247  92455133.70845  22578485.2504                   22578492.4574
 118477680.968 7  92320269.388 6  22545541.500
 125107734.00214                  23807231.172
                                  24665188.039
 109401044.34748  85247635.15245  20818321.7114                   20818329.9494
 128311476.24546  99982977.64242  24416876.8364                   24416889.9414
 105926612.22848  82540238.35146  20157163.2974                   20157169.4494
 11  7 23 17 42 30.0000000  0  8G06G19G13G16G07G03G20G23
 116997861.70247  91167231.18645  22263951.5084                   22263959.7074
 113158099.98547  88175231.02045  21533267.0164                   21533273.6134
 105946171.42947  82555672.69946  20160924.1024                   20160931.0204
 118739255.97847  92524119.99445  22595332.3914                   22595338.9804
 118419366.779 7  92274829.748 6  22534444.461
 109412559.77248  85256608.20145  20820513.4774                   20820521.1884
 128399339.21945 100051442.07142  24433597.9844                   24433609.2034
 105961124.49948  82567131.00946  20163730.9064                   20163736.7504
 11  7 23 17 43  0.0000000  0  9G06G19G13G16G07G10G03G20G23
 117038331.40247  91198765.99345  22271652.4924                   22271661.3524
 113100232.98747  88130139.89246  21522255.4064                   21522261.9024
 105919189.70247  82534647.97146  20155789.6094                   20155797.0204
 118827895.64347  92593189.82244  22612199.7894                   22612206.9064
 118361081.830 7  92229412.962 7  22523353.273
 125102757.08015                  23806287.195
 109424709.23848  85266075.31945  20822825.2734                   20822833.2464
 128487104.04845 100119830.02242  24450299.1024                   24450310.7154
 105996194.67248  82594458.38446  20170404.7894                   20170410.3914
 11  7 23 17 43 30.0000000  0  9G06G19G13G16G07G08G03G20G23
 117079323.63747  91230707.98045  22279452.8754                   22279461.4884
 113042837.06047  88085415.83045  21511333.3754                   21511339.9964
 105892732.10747  82514031.65446  20150754.9924                   20150762.1604
 118916640.36247  92662341.50644  22629087.8674                   22629095.1414
 118302826.282 7  92184019.041 7  22512268.109
 129414687.62115                  24626793.203
 109437492.73148  85276036.45945  20825257.5234                   20825265.5864
 128574768.22545 100188139.57243  24466980.8754                   24466992.9024
 106031822.51848  82622220.31146  20177184.4534                   20177190.4264
 11  7 23 17 44  0.0000000  0  9G06G19G13G16G07G08G03G20G23
 117120837.18747  91263056.18045  22287352.4614                   22287361.1524
 112985914.85347  88041060.89045  21500500.9454                   21500507.7854
 105866800.37047  82493825.10446  20145820.5474                   20145827.6914
 119005488.01747  92731573.39844  22645994.4924                   22646001.7304
 118244600.792 7  92138648.573 7  22501188.344
 129347340.153 5                  24613978.992
 109450909.50448  85286491.07645  20827811.4534                   20827819.3324
 128662329.61846 100256368.97843  24483642.6174                   24483655.4774
 106068007.64748  82650416.48146  20184070.5784                   20184076.2974
 11  7 23 17 44 30.0000000  0 10G06G19G13G16G07G10G08G03G20G23
 117162870.32847  91295809.27245  22295351.5474                   22295360.1414
 112929468.89747  87997077.07345  21489760.1644                   21489766.4654
 105841395.71647  82474029.25246  20140985.8594                   20140992.6564
 119094436.34547  92800883.76244  22662920.8364                   22662927.8444
 118186405.123 7  92093301.330 7  22490113.594
 125099075.34915                  23805586.148
 129279941.615 5                  24601153.648
 109464959.14948  85297438.83745  20830484.6644                   20830492.9534
 128749784.98446 100324515.77642  24500286.4694                   24500297.2814
 106104749.08148  82679046.14546  20191062.1334                   20191067.3984
 11  7 23 17 45  0.0000000  0 10G06G19G13G16G07G10G08G03G20G23
 117205422.15547  91328966.52845  22303448.5784                   22303457.1214
 112873501.73847  87953466.31245  21479110.1564                   21479116.3674
 105816520.04647  82454645.61346  20136252.5704                   20136259.1844
 119183483.14747  92870270.85144  22679865.9064                   22679873.5274
 118128239.770 7  92047977.700 7  22479044.609
                                  23805541.578
 129212491.862 5                  24588318.078
 109479641.33748  85308879.49545  20833278.5634                   20833286.1294
 128837131.95346 100392578.10543  24516907.8204                   24516919.4574
 106142046.22448  82708108.83546  20198159.6884                   20198165.0904
 11  7 23 17 45 30.0000000  0 10G06G19G13G16G07G10G08G03G20G23
 117248491.55947  91362527.07745  22311645.1804                   22311652.9454
 112818016.28247  87910230.93945  21468550.7734                   21468557.3984
 105792175.64647  82435675.95846  20131619.8364                   20131626.7814
 119272626.41347  92939733.07544  22696829.3594                   22696836.6884
 118070105.602 7  92002678.380 6  22467982.336
 125099121.17914                  23805596.508
 129144991.347 5                  24575472.984
 109494956.16248  85320813.11845  20836193.0554                   20836200.7664
 128924368.61846 100460554.45343  24533508.7114                   24533520.7704
 106179899.14648  82737604.59346  20205362.8134                   20205368.5084
 11  7 23 17 46  0.0000000  0 11G06G11G19G13G16G07G10G08G03G20G23
 117292076.37847  91396489.26245  22319938.2424                   22319947.3164
 133941397.93015                  25488204.734
 112763014.28047  87867372.24345  21458084.6254                   21458090.6644
 105768363.46347  82417120.99446  20127088.5864                   20127095.6294
 119361863.60047  93009268.51244  22713810.5394                   22713817.6954
 118012002.234 7  91957403.006 7  22456925.695
 125099897.55115                  23805743.711
 129077439.006 5                  24562619.445
 109510902.44048  85333238.79145  20839227.0474                   20839234.8244
 129011491.55646 100528442.23643  24550088.3914                   24550099.6414
 106218306.37048  82767532.26046  20212671.2584                   20212676.9534
 11  7 23 17 46 30.0000000  0 10G06G11G19G13G16G07G08G03G20G23
 117336176.22547  91430852.74145  22328330.8984                   22328338.9384
 133875073.12915                  25475581.773
 112708499.17347  87824892.96746  21447710.7194                   21447717.2774
 105745086.14247  82398982.82846  20122659.5634                   20122665.8914
 119451193.37047  93078876.07944  22730809.6884                   22730817.2664
 117953930.977 7  91912152.707 7  22445875.156
 129009835.466 6                  24549754.609
 109527480.69048  85346156.90745  20842381.9844                   20842389.8014
 129098499.62146 100596240.48243  24566644.7274                   24566656.8484
 106257268.58548  82797892.40046  20220085.3914                   20220091.2624
 11  7 23 17 47  0.0000000  0 10G06G11G19G13G16G07G08G03G20G23
 117380789.45047  91465616.26945  22336819.9454                   22336828.6914
 133808501.931 5                  25462913.734
 112654473.27347  87782794.88345  21437430.0474                   21437436.3164
 105722344.76447  82381262.27846  20118331.3914                   20118338.3404
 119540613.04547  93148553.68945  22747825.9144                   22747833.7234
 117895891.681 7  91866927.291 7  22434830.734
 128942180.296 6                  24536879.414
 109544690.25848  85359566.96145  20845657.0084                   20845665.0354
 129185389.73246 100663946.81443  24583179.6094                   24583191.7664
 106296784.53648  82828684.02546  20227605.6414                   20227611.1134
 11  7 23 17 47 30.0000000  0 10G06G11G19G13G16G07G08G03G20G23
 117425914.70047  91500778.79045  22345407.3914                   22345415.9734
 133741686.309 5                  25450200.617
 112600938.93047  87741079.84746  21427242.4384                   21427249.3364
 105700140.66847  82363960.38046  20114106.1094                   20114113.5554
 119630120.55847  93218299.76744  22764858.1884                   22764865.7384
 117837884.651 7  91821727.028 7  22423792.313
 128874473.237 5                  24523994.805
 109562530.62848  85373468.53645  20849051.4304                   20849059.2934
 129272159.13346 100731559.10043  24599692.2664                   24599704.3954
 106336853.75648  82859906.75446  20235230.3754                   20235236.1884
 11  7 23 17 48  0.0000000  0 10G06G11G19G13G16G07G08G03G20G23
 117471551.28047  91536339.74645  22354091.6334                   22354099.9884
 133674628.909 5                  25437441.133
 112547899.52747  87699750.47745  21417149.4064                   21417156.0554
 105678476.44147  82347079.16146  20109983.6804                   20109991.1054
 119719714.70547  93288113.33844  22781907.9144                   22781914.4844
 117779911.279 7  91776552.996 7  22412760.148
 128806714.738 5                  24511101.359
 109581001.70848  85387861.56645  20852566.6804                   20852574.5594
 129358806.22746 100799076.14543  24616179.9694                   24616192.2774
 106377476.38848  82891560.72146  20242960.8054                   20242966.4064
 11  7 23 17 48 30.0000000  0 11G06G11G19G13G16G07G10G08G03G20G23
 117517696.38447  91572296.96445  22362873.1564                   22362881.1294
 133607330.205 5                  25424632.859
 112495355.86947  87658807.40245  21407150.8834                   21407156.6604
 105657352.46547  82330618.91346  20105963.5784                   20105970.7504
 119809391.73147  93357991.50244  22798972.0634                   22798979.2504
 117721970.663 7  91731404.484 7  22401735.039
 125111159.81416                  23807892.469
 128738903.498 5                  24498196.672
 109600102.16648  85402745.04345  20856201.3054                   20856209.2664
 129445327.42046 100866494.98843  24632644.4224                   24632656.6484
 106418650.15748  82923644.15146  20250795.6334                   20250801.3284
 11  7 23 17 49  0.0000000  0 12G06G11G19G13G16G07G10G08G28G03G20G23
 117564349.48447  91608650.01445  22371750.5864                   22371759.2074
                                  25411779.984
 112443311.58547  87618253.44546  21397247.1484                   21397253.9264
 105636771.35447  82314581.68246  20102047.4384                   20102054.5704
 119899150.71747  93427933.49444  22816052.7894                   22816060.1954
 117664063.798 7  91686282.216 7  22390715.531
 125114904.128 6                  23808605.703
 128671039.902 5                  24485282.750
 132508083.42715                  25215436.391
 109619831.89148  85418118.85245  20859955.5554                   20859963.6254
 129531721.28146 100933814.63243  24649084.9844                   24649097.7114
 106460375.42448  82956157.31946  20258735.8444                   20258741.5514
 11  7 23 17 49 30.0000000  0 12G06G11G19G13G16G07G10G08G28G03G20G23
 117611508.76447  91645397.50645  22380725.3284                   22380733.4144
 133472017.546 5                  25398885.328
 112391768.71447  87578090.21346  21387439.0234                   21387445.1644
 105616734.00748  82298968.15746  20098234.3834                   20098241.8834
 119988989.16347  93497937.44444  22833149.0234                   22833156.2894
 117606191.122 7  91641186.655 7  22379702.070
 125119140.607 5                  23809411.117
 128603123.730 5                  24472358.992
 132425907.51315                  25199799.422
 109640190.09848  85433982.37646  20863830.0704                   20863838.3164
 129617984.89446 101001032.78342  24665500.2584                   24665513.0514
 106502650.99648  82989099.29346  20266780.6414                   20266786.3874
 11  7 23 17 50  0.0000000  0 12G06G11G19G13G16G07G10G08G28G03G20G23
 117659172.77847  91682538.26545  22389795.3754                   22389803.0904
                                  25385940.867
 112340729.75747  87538319.62446  21377726.5704                   21377733.1024
 105597242.23548  82283779.74846  20094525.1804                   20094532.8324
 120078905.20747  93568001.86944  22850259.5474                   22850266.7974
 117548353.052 7  91596118.075 7  22368695.734
 125123868.189 5                  23810311.078
 128535154.648 5                  24459424.430
 132343909.628 5                  25184195.000
 109661176.68748  85450335.54145  20867823.7114                   20867831.7194
 129704116.11045 101068147.73442  24681891.1254                   24681904.1214
 106545476.50248  83022469.77646  20274929.9224                   20274935.9264
 11  7 23 17 50 30.0000000  0 11G06G19G13G16G07G10G08G28G03G20G23
 117707340.28347  91720071.35145  22398960.9844                   22398969.3324
 112290196.94447  87498943.42346  21368110.1954                   21368116.5044
 105578297.39347  82269017.53546  20090920.6564                   20090927.1844
 120168896.83947  93638125.15244  22867384.3674                   22867391.8484
 117490549.871 7  91551076.701 7  22357696.320
 125129085.633 6                  23811302.258
 128467132.642 6                  24446481.148
 132262091.07615                  25168626.859
 109682790.52248  85467177.48545  20871936.8134                   20871944.4614
 129790112.26345 101135157.47042  24698256.2894                   24698269.0864
 106588851.05948  83056268.09946  20283183.9844                   20283189.5944
 11  7 23 17 51  0.0000000  0 11G06G19G13G16G07G10G08G28G03G20G23
 117756009.22847  91757995.18445  22408221.8444                   22408230.4384
 112240172.64148  87459963.48546  21358590.6414                   21358597.1094
 105559900.80048  82254682.51946  20087419.1884                   20087426.7274
 120258961.39547  93708305.28344  22884523.0864                   22884530.9774
 117432781.959 7  91506062.769 7  22346703.602
 125134791.732 5                  23812388.805
 128399057.287 6                  24433525.883
 132180452.36115                  25153089.625
 109705031.08348  85484507.76645  20876169.4534                   20876176.5204
 129875970.86246 101202060.01142  24714594.8134                   24714607.6054
 106632773.53948  83090493.38046  20291541.7034                   20291547.7074
 11  7 23 17 51 30.0000000  0 11G06G19G13G16G07G10G08G28G03G20G23
 117805178.91347  91796309.22145  22417579.0004                   22417587.3594
 112190659.62048  87421381.92946  21349169.1724                   21349175.1884
 105542054.73347  82240776.48346  20084023.8914                   20084031.0124
 120349098.12047  93778541.65144  22901675.9384                   22901682.9574
 117375050.600 7  91461077.269 7  22335718.078
 125140985.981 6                  23813568.719
 128330929.008 6                  24420562.453
 132098995.158 5                  25137590.930
 109727898.01748  85502326.14645  20880519.7504                   20880528.3874
 129961690.42145 101268854.22542  24730907.2584                   24730919.1804
 106677244.30048  83125145.88346  20300005.0004                   20300010.3284
 11  7 23 17 52  0.0000000  0 12G06G11G19G13G16G07G10G08G28G03G20G23
 117854847.18847  91835011.75645  22427030.0234                   22427039.6334
 133129652.11415                  25333732.711
 112141659.79148  87383200.27646  21339844.6254                   21339850.4844
 105524759.91048  82227299.98646  20080732.6644                   20080739.3834
 120439303.72147  93848831.66344  22918840.9694                   22918848.6684
 117317355.323 7  91416119.958 7  22324738.891
 125147666.762 6                  23814839.008
 128262747.227 6                  24407587.648
 132017719.489 5                  25122124.664
 109751389.95448  85520631.53045  20884990.5164                   20884999.0634
 130047267.76145 101335537.49342  24747192.1804                   24747204.4304
 106722261.35648  83160224.07846  20308571.0314                   20308576.7234
 11  7 23 17 52 30.0000000  0 12G06G11G19G13G16G07G10G08G28G03G20G23
 117905012.80047  91874101.80845  22436576.4224                   22436585.4804
 133060493.821 5                  25320571.602
 112093175.49547  87345420.32146  21330618.7274                   21330624.4414
 105508018.40747  82214254.64946  20077546.8134                   20077553.4804
 120529576.70047  93919174.21544  22936019.9844                   22936027.0904
 117259697.217 7  91371191.532 7  22313766.891
 125154833.245 6                  23816202.320
 128194512.038 6                  24394602.031
 131936626.508 4                  25106689.547
 109775506.61048  85539423.71745  20889580.1644                   20889588.1334
 130132700.69045 101402108.31442  24763449.2734                   24763462.9344
 106767824.35548  83195727.67646  20317241.6804                   20317247.5744
 11  7 23 17 53  0.0000000  0 12G06G11G19G13G16G07G10G08G28G03G20G23
 117955673.74747  91913577.83444  22446216.5234                   22446225.3014
 132991111.311 5                  25307369.219
 112045209.20047  87308044.01346  21321490.7034                   21321497.1994
 105491830.60947  82201640.78346  20074466.3364                   20074473.6684
 120619914.70847  93989567.42244  22953209.9844                   22953217.6454
 117202076.310 7  91326292.149 7  22302801.859
 125162483.901 6                  23817659.563
 128126222.815 6                  24381608.047
 131855716.743 5                  25091295.891
 109800246.61748  85558701.64345  20894288.0004                   20894295.8874
 130217986.62746 101468564.70842  24779678.1884                   24779692.1914
 106813931.78348  83231655.50846  20326015.5474                   20326021.2274
 11  7 23 17 53 30.0000000  0 12G06G11G19G13G16G07G10G08G28G03G20G23
 118006828.68747  91953438.80044  22455951.8834                   22455959.6724
 132921506.657 5                  25294124.055
 111997763.08048  87271073.03846  21312461.9924                   21312468.2504
 105476198.78647  82189460.12846  20071491.5944                   20071499.0394
 120710316.03847  94060009.97444  22970412.8524                   22970420.5784
 117144493.309 7  91281422.324 7  22291843.711
 125170618.085 5                  23819206.063
 128057880.114 5                  24368601.625
 131774991.138 4                  25075934.609
 109825609.64048  85578465.02345  20899114.2734                   20899122.2114
 130303123.58246 101534904.99142  24795880.0394                   24795893.6484
 106860583.44448  83268007.41646  20334893.0004                   20334898.8204
 11  7 23 17 54  0.0000000  0 12G06G11G19G13G16G07G10G08G28G03G20G23
 118058475.96947  91993683.40945  22465779.7734                   22465787.8244
 132851681.607 5                  25280836.398
 111950839.27748  87234509.05846  21303532.5474                   21303538.9384
 105461123.80548  82177713.38046  20068623.1804                   20068629.6254
 120800778.73247  94130500.34244  22987628.2344                   22987635.2464
 117086948.614 7  91236582.335 7  22280893.648
 125179234.072 5                  23820845.969
 127989483.610 6                  24355586.852
 131694450.434 5                  25060606.023
 109851594.39848  85598712.86145  20904058.9844                   20904066.7934
 130388109.07245 101601127.16342  24812051.8754                   24812065.3014
 106907777.95348  83304782.32246  20343873.7664                   20343879.7384
 11  7 23 17 54 30.0000000  0 12G06G11G19G13G16G07G10G08G28G03G20G23
 118110614.02247  92034310.44544  22475701.4774                   22475709.6214
 132781638.551 5                  25267506.789
 111904440.20947  87198353.96646  21294703.2344                   21294709.5004
 105446607.44748  82166401.91146  20065860.5474                   20065867.3714
 120891300.86947  94201037.03544  23004853.3134                   23004860.9494
 117029443.079 7  91191772.849 7  22269950.250
 125188331.279 6                  23822578.453
 127921032.960 6                  24342560.328
 131614095.385 5                  25045316.578
 109878200.85447  85619445.15845  20909121.9534                   20909130.0514
 130472941.21546 101667229.83843  24828195.9614                   24828208.6684
 106955514.89248  83341979.90046  20352958.1954                   20352963.7114
 11  7 23 17 55  0.0000000  0 12G06G11G19G13G16G07G10G08G28G03G20G23
 118163241.03347  92075318.48444  22485715.7274                   22485724.1804
                                  25254137.508
 111858567.93047  87162609.36446  21285974.0944                   21285980.5434
 105432650.87347  82155526.64946  20063204.8284                   20063211.6294
 120981880.51347  94271618.49344  23022090.4774                   23022097.9534
 116971977.182 7  91146994.263 7  22259015.117
 125197908.223 6                  23824401.250
 127852528.15246  99625384.18152  24329525.3444                   24329535.6054
 131533927.161 5                  25030061.578
 109905427.39448  85640660.65545  20914302.6254                   20914311.2344
 130557617.08846 101733210.77343  24844309.8204                   24844322.2584
 107003793.09548  83379599.24646  20362144.9844                   20362150.8284
 11  7 23 17 55 30.0000000  0 12G06G11G19G13G16G07G10G08G28G03G20G23
 118216355.47447  92116706.33645  22495823.3674                   22495831.4224
 132640905.66415                  25240726.773
 111813224.81347  87127277.08446  21277345.4844                   21277351.4964
 105419255.09747  82145088.36546  20060655.8914                   20060662.9964
 121072515.37947  94342243.02244  23039337.4844                   23039345.2974
 116914550.979 7  91102246.586 7  22248087.523
 125207963.096 5                  23826312.992
 127783969.08945  99571961.51442  24316478.5704                   24316488.9844
                                  25014837.773
 109933272.97948  85662358.50346  20919601.9064                   20919609.7114
 130642134.34146 101799068.12343  24860393.3284                   24860405.3014
 107052611.36748  83417639.42446  20371434.9304                   20371440.5474
 11  7 23 17 56  0.0000000  0 12G06G11G19G13G16G07G10G08G28G03G20G23
 118269955.57047  92158472.63145  22506023.2584                   22506031.9224
 132570219.670 5                  25227275.586
 111768412.83147  87092358.68746  21268818.0234                   21268823.8594
 105406421.97947  82135088.52746  20058213.2814                   20058220.4224
 121163203.70447  94412909.17644  23056595.1564                   23056603.1454
 116857165.679 7  91057530.804 7  22237167.531
 125218495.634 5                  23828317.828
 127715355.88745  99518496.77342  24303422.3674                   24303432.3364
 131374152.27715                  24999655.852
 109961737.25048  85684538.44945  20925018.0474                   20925026.4494
 130726491.17546 101864800.39343  24876445.2034                   24876458.3164
 107101968.99848  83456099.87546  20380827.3444                   20380832.9534
 11  7 23 17 56 30.0000000  0 12G06G11G19G13G16G07G10G08G28G03G20G23
 118324039.52647  92200615.93445  22516314.5234                   22516323.4734
 132499323.152 5                  25213783.703
 111724134.24048  87057855.90146  21260391.9534                   21260398.1604
 105394152.26847  82125527.70846  20055878.9454                   20055885.7034
 121253943.58747  94483615.51444  23073862.3754                   23073869.7424
 116799821.562 7  91012847.097 7  22226255.555
 125229503.885 5                  23830412.289
 127646688.05155  99464989.38552  24290354.4144                   24290365.6334
                                  24984507.328
 109990818.98248  85707199.52445  20930552.1414                   20930560.1844
 130810685.17346 101930405.92743  24892466.5314                   24892480.2274
 107151864.56948  83494979.51146  20390322.0004                   20390328.2424
 11  7 23 17 57  0.0000000  0 12G06G11G19G13G16G07G10G08G28G03G20G23
 118378605.84947  92243135.11245  22526698.9534                   22526707.5474
 132428218.27415                  25200252.914
 111680391.02847  87023770.31146  21252067.7424                   21252074.5864
 105382447.43748  82116407.05146  20053651.3284                   20053658.4694
 121344733.04447  94554360.51844  23091138.3204                   23091146.7464
 116742519.019 7  90968195.801 7  22215350.609
 125240986.780 5                  23832596.336
 127577966.17745  99411440.02442  24277276.2504                   24277288.4774
 131215132.77715                  24969396.070
 110020516.98548  85730340.82245  20936203.2894                   20936211.7034
 130894713.89946 101995882.59143  24908456.3204                   24908470.2734
 107202297.22848  83534277.64246  20399919.5234                   20399925.0634
 11  7 23 17 57 30.0000000  0 11G06G19G13G16G07G10G08G28G03G20G23
 118433652.79347  92286028.80645  22537174.1414                   22537182.0944
 111637185.50947  86990103.69946  21243845.8984                   21243852.6604
 105371308.81848  82107727.59446  20051531.3984                   20051538.5314
 121435570.46547  94625142.87044  23108424.2814                   23108431.6254
 116685258.524 7  90923577.228 7  22204454.617
 125252943.006 6                  23834873.773
 127509190.19045  99357848.33542  24264190.3914                   24264200.4804
 131135908.108 5                  24954322.758
 110050830.68147  85753961.87145  20941971.6094                   20941980.6134
 130978575.36946 102061228.85243  24924416.2664                   24924428.3914
 107253265.99948  83573993.54946  20409617.6334                   20409624.1524
 11  7 23 17 58  0.0000000  0 11G06G11G19G13G16G07G10G08G03G20G23
 118489177.49147  92329294.78245  22547739.6484                   22547748.8324
 132285397.79315                  25173072.344
 111594518.79947  86956856.94246  21235726.6724                   21235733.4304
 105360736.35948  82099489.30246  20049520.0944                   20049526.6524
 121526452.57747  94695960.04444  23125718.8204                   23125725.5984
 116628039.808 7  90878991.264 7  22193565.625
 125265369.906 6                  23837237.219
 127440358.61456  99304213.42752  24251093.0864                   24251101.4964
 110081757.86848  85778060.95545  20947857.5634                   20947866.3244
 131062265.97545 102126442.04243  24940342.0314                   24940354.9614
 107304768.85348  83614125.59946  20419419.0234                   20419424.5594
 11  7 23 17 58 30.0000000  0 11G06G11G19G13G16G07G10G08G03G20G23
 118545180.11647  92372933.14745  22558396.4924                   22558405.4224
 132213679.81714                  25159427.078
 111552394.61247  86924032.91446  21227710.6724                   21227717.1214
 105350733.37148  82091694.75946  20047616.5474                   20047623.4454
 121617379.46347  94766812.13044  23143022.1564                   23143029.0704
 116570865.539 7  90834439.877 7  22182686.164
 125278268.338 5                  23839692.570
 127371473.29445  99250536.68242  24237984.1254                   24237992.8444
 110113298.98348  85802638.43345  20953859.5554                   20953868.1134
 131145785.74245 102191522.01643  24956235.6564                   24956248.7344
 107356806.21248  83654674.15146  20429321.3284                   20429327.2624
 11  7 23 17 59  0.0000000  0 12G06G11G19G13G16G07G10G08G28G03G20G23
 118601658.29547  92416942.09744  22569144.0084                   22569152.9654
                                  25145740.039
 111510814.54548  86891632.89046  21219798.5004                   21219805.0124
 105341300.40248  82084344.38546  20045821.1724                   20045828.5744
 121708348.98447  94837697.45444  23160332.8594                   23160340.8524
 116513735.727 7  90789923.186 7  22171814.313
 125291636.053 6                  23842236.492
 127302533.69055  99196817.54152  24224863.8834                   24224873.8914
 130899381.80415                  24909310.445
 110145452.88647  85827693.41545  20959977.6884                   20959986.7344
 131229131.69345 102256466.64243  24972094.8754                   24972109.8834
 107409376.71048  83695638.12946  20439325.2664                   20439330.8014
 11  7 23 17 59 30.0000000  0 12G06G11G19G13G16G07G10G08G28G03G20G23
 118658609.95547  92461319.96445  22579981.4064                   22579991.2194
 132069645.53315                  25132017.836
 111469780.33247  86859658.19146  21211989.8754                   21211995.8594
 105332438.24448  82077438.78346  20044135.3914                   20044142.1954
 121799358.49646  94908613.91544  23177651.5634                   23177659.9534
 116456650.626 7  90745441.314 7  22160951.656
 125305471.752 5                  23844869.078
 127233539.55655  99143055.96253  24211735.5164                   24211744.3054
 130820925.090 5                  24894380.172
 110178217.86147  85853224.53445  20966213.1954                   20966221.1994
 131312301.31945 102321273.81442  24987922.7344                   24987935.9454
 107462478.58248  83737016.17246  20449430.3054                   20449436.2974
 11  7 23 18  0  0.0000000  0 12G06G11G19G13G16G07G10G08G28G03G20G23
 118716033.16447  92506065.28245  22590909.1334                   22590918.5944
 131997332.796 5                  25118253.172
 111429293.80747  86828110.27746  21204285.4844                   21204291.5984
 105324147.79647  82070978.68846  20042557.5234                   20042564.4024
 121890406.29346  94979560.16844  23194977.2734                   23194985.8324
 116399610.757 7  90700994.693 7  22150097.945
 125319773.56816                  23847591.109
 127164490.79555  99089251.81452  24198594.6414                   24198606.4884
 130742661.970 5                  24879487.484
 110211592.70748  85879230.88945  20972564.4844                   20972572.3444
 131395292.33945 102385941.88343  25003716.2584                   25003728.7934
 107516110.51548  83778807.23946  20459635.9694                   20459641.7664
 11  7 23 18  0 30.0000000  0 12G06G11G19G13G16G07G10G08G28G03G20G23
 118773925.78546  92551176.39744  22601925.2894                   22601934.5434
 131924826.139 5                  25104456.867
 111389356.93847  86796990.65646  21196685.3834                   21196691.8324
 105316430.23447  82064964.98446  20041088.9694                   20041096.0634
 121981490.50647  95050534.80744  23212309.8984                   23212318.5434
 116342616.762 7  90656583.813 7  22139251.586
 125334539.959 5                  23850400.070
 127095387.22345  99035404.89142  24185444.8594                   24185455.4924
 130664592.859 5                  24864630.695
 110245575.99147  85905711.34245  20979031.3444                   20979039.4144
 131478102.38955 102450468.88252  25019473.7664                   25019488.1024
 107570271.38048  83821010.48246  20469942.2034                   20469948.1804
 11  7 23 18  1  0.0000000  0 12G06G11G19G13G16G07G10G08G28G03G20G23
 118832286.82547  92596652.49345  22613031.5164                   22613040.7234
 131852127.580 6                  25090623.133
 111349972.24347  86766301.29546  21189191.1644                   21189197.1484
 105309287.06648  82059398.86546  20039729.7504                   20039736.7114
 122072609.64547  95121536.65444  23229649.7274                   23229657.6024
 116285669.725 7  90612209.553 7  22128414.531
 125349769.931 5                  23853299.641
 127026229.09845  98981515.49443  24172284.9694                   24172295.3404
 130586719.302 6                  24849811.383
 110280167.07748  85932665.42045  20985613.7274                   20985621.6374
 131560729.48655 102514853.27552  25035196.1954                   25035211.7504
 107624960.75048  83863625.53946  20480349.6564                   20480355.3914
 11  7 23 18  1 30.0000000  0 12G06G11G19G13G16G07G10G08G28G03G20G23
 118891113.80347  92642491.65744  22624225.6644                   22624234.5474
 131779238.822 6                  25076752.367
 111311141.03047  86736043.22746  21181801.7814                   21181807.4574
 105302718.84447  82054280.75646  20038479.4064                   20038486.7584
 122163761.85647  95192564.29544  23246995.2664                   23247003.1054
 116228769.733 7  90567871.903 7  22117587.141
 125365461.681 6                  23856286.258
 126957016.26346  98927583.50042  24159114.4384                   24159124.5514
 130509041.513 5                  24835031.094
 110315364.51348  85960091.96745  20992311.2344                   20992319.1764
 131643171.65555 102579093.58952  25050886.2114                   25050900.2854
 107680176.44448  83906650.70646  20490856.9384                   20490862.8244
 11  7 23 18  2  0.0000000  0 12G06G11G19G13G16G07G10G08G28G03G20G23
 118950404.42846  92688692.13244  22635508.2274                   22635516.8914
 131706161.759 6                  25062846.867
 111272864.69347  86706217.51946  21174518.2114                   21174524.0634
 105296726.22247  82049611.17246  20037339.2274                   20037346.2894
 122254944.34347  95263615.54644  23264346.9454                   23264354.1644
 116171917.194 7  90523571.247 7  22106769.063
 125381613.551 5                  23859358.570
 126887748.40046  98873608.58542  24145933.7114                   24145942.3444
 130431559.589 5                  24820283.820
 110351166.43748  85987989.54845  20999124.0944                   20999132.5824
 131725426.06645 102643187.52942  25066538.6174                   25066553.6914
 107735916.91848  83950084.79046  20501463.8364                   20501469.7814
 11  7 23 18  2 30.0000000  0 12G06G11G19G13G16G07G10G08G28G03G20G23
 119010157.59447  92735253.00244  22646879.6724                   22646887.6414
 131632899.086 6                  25048905.078
 111235145.94547  86676826.31346  21167339.9224                   21167346.9344
 105291311.09947  82045391.58446  20036308.8754                   20036315.7344
 122346156.23747  95334689.68644  23281704.1174                   23281711.4534
 116115113.376 7  90479308.546 7  22095959.109
 125398224.253 6                  23862518.047
 126818426.10046  98819591.26343  24132741.8594                   24132750.8094
 130354274.595 5                  24805579.773
 110387572.37548  86016357.79945  21006052.1804                   21006060.2464
 131807491.24945 102707134.18442  25082155.8054                   25082170.3874
 107792181.66148  83993927.41146  20512170.8754                   20512177.0634
 11  7 23 18  3  0.0000000  0 12G06G11G19G13G16G07G10G08G28G03G20G23
 119070371.18547  92782172.63444  22658336.9694                   22658346.6884
 131559452.536 5                  25034928.906
 111197986.55547  86647870.95446  21160268.5394                   21160275.6844
 105286474.07248  82041622.45946  20035388.6804                   20035395.2384
 122437395.64147  95405785.27244  23299066.1414                   23299073.5904
 116058358.743 7  90435084.208 7  22085159.055
 125415291.983 6                  23865768.125
 126749048.98146  98765531.26142  24119539.8524                   24119548.9574
 130277187.00015                  24790908.547
 110424580.69648  86045195.43045  21013094.5394                   21013102.6454
 131889364.65345 102770931.30342  25097736.7734                   25097750.0944
 107848969.04648  84038177.27746  20522977.1484                   20522982.6804
 11  7 23 18  3 30.0000000  0 12G06G11G19G13G16G07G10G08G28G03G20G23
 119131043.18847  92829449.47744  22669883.3204                   22669891.1454
 131485824.481 6                  25020917.719
 111161388.41647  86619352.95246  21153304.9064                   21153311.1374
 105282216.02347  82038304.47646  20034577.9384                   20034585.2934
 122528660.76246  95476900.92044  23316433.3834                   23316441.0704
 116001654.179 7  90390898.854 7  22074368.250
 125432815.785 6                  23869102.273
 126679617.43846  98711428.76943  24106326.5704                   24106336.9064
 130200297.931 6                  24776278.148
 110462190.20448  86074501.52445  21020251.2894                   21020259.5904
 131971044.209 5                  25113278.250
 107906277.98648  84082833.55746  20533882.9924                   20533888.3204
 11  7 23 18  4  0.0000000  0 12G06G11G19G13G16G07G10G08G28G03G20G23
 119192171.73447  92877082.08744  22681515.3524                   22681523.5204
 131412017.079 6                  25006872.094
 111125353.03647  86591273.45446  21146446.9304                   21146453.4184
 105278537.96148  82035438.44346  20033878.4614                   20033885.2934
 122619949.74346  95548035.14843  23333805.1804                   23333811.8134
 115945000.531 7  90346753.179 7  22063588.125
 125450793.70946  97754028.29352  23872523.5554                   23872532.5124
 126610131.45546  98657283.94643  24093103.4694                   24093114.3914
 130123607.789 5                  24761685.055
 110500399.51248  86104274.99945  21027522.7114                   21027530.6684
 132052528.107 6                  25128785.398
 107964106.93748  84127895.03546  20544887.0164                   20544892.6844
 11  7 23 18  4 30.0000000  0 12G06G11G19G13G16G07G10G08G28G03G20G23
 119253754.47647  92925068.62444  22693233.8984                   22693242.5084
 131338032.241 6                  24992793.063
 111089881.75247  86563633.50446  21139697.1334                   21139703.5904
 105275440.54147  82033024.85646  20033288.8204                   20033296.1604
 122711260.74146  95619186.48243  23351180.7974                   23351188.0904
 115888397.757 7  90302647.122 7  22052816.984
 125469223.78346  97768389.40242  23876029.9614                   23876040.6134
 126540590.78946  98603096.48342  24079870.3674                   24079880.5514
 130047116.49915                  24747126.625
 110539207.07148  86134514.63445  21034907.3674                   21034915.4494
 132133813.699 6                  25144253.164
 108022454.11948  84173360.32646  20555990.3364                   20555996.3054
 11  7 23 18  5  0.0000000  0 12G06G11G19G13G16G07G10G08G28G03G20G23
 119315789.98747  92973407.93044  22705039.1724                   22705048.0084
 131263872.49446 102283571.42653  24978681.5554                   24978694.0164
 111054977.50947  86536435.41646  21133055.6094                   21133061.2154
 105272925.10447  82031064.75346  20032810.3134                   20032817.0594
 122802592.33846  95690353.93143  23368561.5944                   23368568.1484
 115831847.325 7  90258581.883 7  22042054.891
 125488105.15846  97783102.08642  23879623.4924                   23879633.7194
 126470995.85846  98548866.68443  24066627.7584                   24066637.1914
 129970825.638 6                  24732610.250
 110578611.73248  86165219.55645  21042406.1484                   21042414.1484
 132214899.280 6                  25159684.703
 108081318.89648  84219228.93846  20567191.9224                   20567197.9574
 11  7 23 18  5 30.0000000  0 12G06G11G19G13G16G07G10G08G28G03G20G23
 119378276.21347  93022098.47744  22716930.0704                   22716938.1604
 131189540.01246 102225650.15343  24964536.3204                   24964550.1644
 111020641.34848  86509679.97446  21126521.3594                   21126527.4574
 105270992.25448  82029558.62046  20032442.5784                   20032449.1524
 122893942.58546  95761535.89643  23385944.4454                   23385951.7304
 115775349.629 7  90214557.743 7  22031304.398
 125507435.56946  97798164.72542  23883301.0634                   23883313.0744
 126401346.49846  98494594.47242  24053373.3524                   24053382.5904
 129894734.929 6                  24718131.359
 110618611.72148  86196388.35945  21050017.5704                   21050026.0204
 132295782.718 6                  25175075.352
 108140699.50648  84265499.48546  20578491.6954                   20578497.8324
 11  7 23 18  6  0.0000000  0 12G06G11G19G13G16G07G10G08G28G03G20G23
 119441210.95147  93071138.51944  22728905.8834                   22728915.2504
 131115036.43646 102167595.56743  24950358.1644                   24950373.1094
 110986874.90947  86483368.47946  21120096.1024                   21120101.9264
 105269642.80947  82028507.10746  20032185.6484                   20032192.8094
 122985309.51046  95832730.85643  23403331.6334                   23403338.0904
 115718905.529 7  90170575.341 7  22020563.898
 125527213.51446  97813576.09842  23887066.0394                   23887076.4694
 126331642.66446  98440279.89043  24040109.3914                   24040117.5744
 129818845.598 5                  24703690.055
 110659205.69948  86228020.01045  21057742.0944                   21057750.4534
 132376461.752 6                  25190428.813
 108200593.99648  84312170.47546  20589889.1804                   20589894.9694
 11  7 23 18  6 30.0000000  0 12G06G11G19G13G16G07G10G08G28G03G20G23
 119504591.90246  93120526.23644  22740967.4534                   22740975.8594
 131040364.40446 102109409.66043  24936148.5784                   24936163.0984
 110953679.47047  86457501.90946  21113778.7504                   21113785.2584
 105268876.83347  82027910.20946  20032039.7424                   20032047.0044
 123076691.35146  95903937.43443  23420720.4534                   23420727.5164
 115662515.074 7  90126634.730 7  22009833.234
 125547437.00946  97829334.55242  23890915.0784                   23890925.5434
 126261884.34646  98385922.80143  24026834.8674                   24026843.3834
 129743157.333 5                  24689286.664
 110700391.61947  86260112.91045  21065580.1414                   21065587.8554
 132456933.939 5                  25205743.375
 108261001.05548  84359240.87546  20601384.3054                   20601390.2194
 11  7 23 18  7  0.0000000  0 12G06G11G19G13G16G07G10G08G28G03G20G23
 119568417.12346  93170260.15044  22753112.4534                   22753120.5274
 130965525.68246 102051093.88443  24921907.8204                   24921921.9964
 110921057.41547  86432082.15446  21107571.0784                   21107577.0234
 105268695.79848  82027769.14046  20032005.7194                   20032012.8134
 123168086.51747  95975154.42244  23438112.3674                   23438119.9344
 115606179.433 7  90082736.861 7  21999111.867
 125568104.69746  97845439.27042  23894847.0234                   23894857.7034
 126192071.88246  98331523.54443  24013550.4614                   24013559.1214
 129667670.80915                  24674918.813
 110742168.37148  86292666.19645  21073530.0554                   21073538.1174
 132537197.444 5                  25221017.508
 108321919.31547  84406709.59746  20612976.3674                   20612982.4454
 11  7 23 18  7 30.0000000  0 12G06G11G19G13G16G07G10G08G28G03G20G23
 119632685.69547  93220339.54344  22765342.8284                   22765351.3054
 130890523.28946 101992650.55642  24907635.0084                   24907649.5434
 110889010.79347  86407110.78446  21101472.4384                   21101479.4344
 105269101.65547  82028085.37646  20032082.8834                   20032089.7464
 123259494.16847  96046381.07244  23455507.0234                   23455514.4884
 115549900.196 7  90038882.924 7  21988402.711
 125589215.46746  97861889.01242  23898864.4774                   23898875.2464
 126122205.95646  98277082.64643  24000254.0864                   24000263.9534
 129592387.678 5                  24660595.344
 110784535.18948  86325679.29145  21081592.1254                   21081599.8794
 132617251.147 5                  25236248.328
 108383348.04047  84454576.08646  20624665.8834                   20624671.6804
 11  7 23 18  8  0.0000000  0 12G06G11G19G13G16G07G10G08G28G03G20G23
 119697395.10347  93270762.41244  22777656.5314                   22777664.7194
 130815359.00146 101934081.16342  24893331.5474                   24893345.6564
 110857540.81147  86382588.73746  21095484.2274                   21095490.1954
 105270094.00147  82028858.61646  20032271.8914                   20032278.5664
 123350912.28146  96117615.91144  23472903.2194                   23472910.7934
 115493677.877 7  89995073.344 7  21977703.742
 125610767.18145  97878682.57242  23902964.7974                   23902976.4384
 126052286.14646  98222599.69843  23986948.9534                   23986958.2934
 129517308.237 6                  24646309.125
 110827490.20348  86359150.70945  21089765.9924                   21089773.6334
 132697092.21114                  25251443.391
 108445285.51248  84502839.00646  20636452.8054                   20636458.5204
 11  7 23 18  8 30.0000000  0 12G06G11G19G13G16G07G10G08G28G03G20G23
 119762542.64746  93321526.69944  22790053.5234                   22790062.1914
 130740034.88446 101875387.13742  24878996.9924                   24879010.7154
 110826648.64547  86358516.93146  21089605.8914                   21089612.3324
 105271673.37247  82030089.28746  20032572.5634                   20032579.2464
 123442338.89446  96188857.35144  23490301.5234                   23490308.8594
 115437512.610 7  89951308.225 7  21967015.313
 125632757.86345  97895817.93842  23907151.1724                   23907161.2464
 125982312.29946  98168074.68243  23973633.7194                   23973644.0084
 129442432.107 5                  24632060.938
 110871031.51648  86393078.97545  21098051.6804                   21098059.1724
                                  25266595.039
 108507729.63347  84551496.72046  20648335.1334                   20648341.2854
 11  7 23 18  9  0.0000000  0 12G06G11G19G13G16G07G10G08G28G03G20G23
 119828126.47747  93372630.93344  22802533.8984                   22802542.8954
 130664553.45546 101816570.56642  24864632.7274                   24864647.2624
 110796335.72747  86334896.50346  21083837.3984                   21083843.8674
 105273840.49247  82031777.94346  20032984.4454                   20032991.4844
 123533771.96846  96260103.82844  23507701.0634                   23507707.7034
 115381405.631 7  89907588.508 7  21956338.711
 125655185.72145  97913294.24142  23911418.4694                   23911429.2774
 125912284.83546  98113507.90143  23960308.1024                   23960319.2894
 129367760.544 5                  24617849.852
 110915157.30948  86427462.68645  21106448.5314                   21106456.7114
 132856128.60514                  25281709.055
 108570678.66548  84600547.85146  20660314.0634                   20660321.0124
 11  7 23 18  9 30.0000000  0 11G06G11G19G13G16G07G10G08G28G03G23
 119894144.32147  93424073.38245  22815096.2734                   22815105.9224
 130588916.59646 101757632.87042  24850240.0864                   24850255.2974
 110766603.61547  86311728.62646  21078179.6484                   21078185.5784
 105276595.74147  82033924.85946  20033508.8594                   20033515.8284
 123625210.31046  96331354.45344  23525099.7734                   23525108.8484
 115325357.177 7  89863914.426 7  21945673.367
 125678048.747 5                  23915770.094
 125842203.38847  98058899.02043  23946971.3524                   23946982.4224
 129293293.39615                  24603677.375
 110959865.91648  86462300.54145  21114956.1484                   21114964.7464
 108634131.17348  84649991.32346  20672389.1954                   20672394.9734
 11  7 23 18 10  0.0000000  0 11G06G11G19G13G16G07G10G08G28G03G23
 119960594.75746  93475852.88044  22827741.2424                   22827750.8634
 130513127.17846 101698576.33742  24835818.5004                   24835832.3094
 110737454.65647  86289015.17946  21072633.0394                   21072638.9694
 105279940.72848  82036531.32046  20034145.7114                   20034152.5274
 123716652.42046  96402607.97544  23542501.0864                   23542509.2584
 115269368.632 7  89820286.985 7  21935019.289
 125701345.957 5                  23920201.344
 125772068.77446  98004248.71043  23933625.3914                   23933635.4184
 129219031.708 6                  24589548.211
 111005156.62148  86497591.98645  21123574.4694                   21123583.3014
 108698086.32247  84699826.45646  20684559.3594                   20684565.1644
 11  7 23 18 10 30.0000000  0 11G06G11G19G13G16G07G10G08G28G03G23
 120027475.17346  93527967.41644  22840469.1024                   22840478.4384
 130437187.09946 101639402.33542  24821368.0554                   24821381.1334
 110708889.79547  86266756.86346  21067197.3754                   21067202.9804
 105283875.34247  82039597.24546  20034894.2814                   20034901.4104
 123808096.06146  96473862.66844  23559902.3914                   23559910.2584
 115213440.785 7  89776706.870 7  21924376.250
 125725075.20615                  23924715.539
 125701881.11147  97949557.03543  23920269.1174                   23920278.2034
 129144975.612 6                  24575454.328
 111051027.11948  86533335.19945  21132303.5634                   21132311.5394
 108762541.65247  84750051.33146  20696824.7974                   20696830.6884
 11  7 23 18 11  0.0000000  0 11G06G11G19G13G16G07G10G08G28G03G23
 120094783.50446  93580415.44844  22853276.9384                   22853286.3364
 130361098.59846 101580112.74242  24806888.5944                   24806901.7464
 110680910.43947  86244954.77746  21061872.6254                   21061878.9144
 105288400.31147  82043123.18146  20035754.9454                   20035762.2774
 123899540.07846  96545117.68143  23577303.1954                   23577311.3554
 115157574.433 7  89733174.676 7  21913745.578
                                  23929312.094
 125631640.06146  97894823.77043  23906901.6954                   23906911.0084
 129071125.42616                  24561403.734
 111097475.28848  86569528.54845  21141143.0004                   21141150.9884
 108827495.38248  84800664.57746  20709185.1024                   20709191.1524
 11  7 23 18 11 30.0000000  0 11G06G11G19G13G16G07G10G08G28G03G23
 120162517.39246  93633195.03644  22866166.2894                   22866175.9494
 130284863.69646 101520709.11742  24792381.9304                   24792395.1684
 110653517.67547  86223609.77446  21056659.6024                   21056666.2194
 105293515.93247  82047109.36246  20036728.7344                   20036735.7584
 123990982.70646  96616371.61444  23594705.2814                   23594712.8404
 115101769.913 7  89689690.661 7  21903125.891
 125773821.700 5                  23933994.078
 125561345.73847  97840049.02243  23893525.6954                   23893534.6254
 128997481.545 5                  24547388.391
 111144499.61648  86606170.86145  21150090.9614                   21150099.1024
 108892946.02048  84851665.02046  20721640.0864                   20721645.9144
 11  7 23 18 12  0.0000000  0 11G06G11G19G13G16G07G10G08G28G03G23
 120230675.12546  93686304.90144  22879136.3054                   22879144.9344
 130208484.853 6                  24777845.922
 110626713.35447  86202723.29946  21051559.5634                   21051565.8914
 105299223.18048  82051556.55646  20037814.8524                   20037821.8134
 124082422.55846  96687623.38744  23612104.8444                   23612113.6414
 115046028.739 7  89646255.993 7  21892519.078
 125798835.369 6                  23938754.453
 125490998.31147  97785232.88043  23880139.9064                   23880149.1414
 128924045.233 5                  24533414.234
 111192099.16948  86643261.40845  21159148.6334                   21159157.1374
 108958892.38648  84903051.74746  20734189.2584                   20734195.1054
 11  7 23 18 12 30.0000000  0 11G06G11G19G13G16G07G10G08G28G03G23
 120299253.98547  93739742.93544  22892187.1174                   22892195.3284
 130131964.704 6                  24763285.125
 110600498.56347  86182296.20346  21046570.6564                   21046576.8714
 105305522.01048  82056464.70246  20039013.8674                   20039020.3954
 124173857.67746  96758871.48243  23629504.7034                   23629512.6884
 114990351.367 7  89602871.058 7  21881923.555
 125824273.10746  98045058.43552  23943594.7344                   23943604.8874
 125420597.74946  97730375.34043  23866742.9454                   23866752.1914
 128850815.970 5                  24519478.750
 111240270.98148  86680797.85745  21168315.0864                   21168324.0044
 109025332.15248  84954822.95246  20746832.0394                   20746838.8914
 11  7 23 18 13  0.0000000  0 11G06G11G19G13G16G07G10G08G28G03G23
 120368252.11147  93793507.68044  22905316.6724                   22905325.4694
 130055305.196 6                  24748696.586
 110574874.73848  86162329.61046  21041695.2194                   21041701.1134
 105312413.20148  82061834.46246  20040324.6644                   20040331.9884
 124265286.55546  96830114.73244  23646903.0704                   23646910.6294
 114934738.602 7  89559536.461 7  21871341.375
 125850133.34246  98065209.28742  23948515.8754                   23948526.2504
 125350145.06647  97675477.22343  23853335.6174                   23853346.1604
 128777794.560 5                  24505582.063
 111289013.58048  86718779.07945  21177590.7424                   21177599.1524
 109092263.81448  85006977.43446  20759569.1334                   20759575.0394
 11  7 23 18 13 30.0000000  0 11G06G11G19G13G16G07G10G08G28G03G23
 120437667.45647  93847597.50644  22918526.0394                   22918534.4924
 129978508.95845 101281979.77852  24734081.6954                   24734096.0554
 110549843.28647  86142824.57746  21036931.4304                   21036937.2304
 105319897.41148  82067666.29546  20041749.2974                   20041756.1214
 124356707.85946  96901352.05543  23664299.7814                   23664308.0944
 114879191.360 7  89516252.935 7  21860770.289
 125876414.13646  98085687.70642  23953517.1804                   23953528.4804
 125279640.06147  97620538.29343  23839919.8134                   23839929.1604
 128704981.600 5                  24491726.227
 111338325.34448  86757203.80145  21186974.4454                   21186982.6334
 109159685.37848  85059513.66546  20772399.1414                   20772405.0234
 11  7 23 18 14  0.0000000  0 11G06G11G19G13G16G07G10G08G28G03G23
 120507497.66847  93902010.63644  22931814.2274                   22931822.8754
 129901578.25646 101222033.94042  24719442.8364                   24719456.7424
 110525405.54847  86123782.20446  21032281.2274                   21032287.2194
 105327974.89948  82073960.41646  20043286.1564                   20043293.8284
 124448120.00946  96972582.27244  23681694.5164                   23681704.0004
 114823710.712 7  89473021.259 7  21850213.055
 125903113.38746  98106492.27342  23958598.1954                   23958608.7154
 125209082.96947  97565558.75343  23826493.2194                   23826502.7894
 128632377.325 5                  24477910.070
 111388204.55848  86796070.70745  21196467.1564                   21196474.4924
 109227595.35848  85112430.48646  20785321.8754                   20785327.9384
 11  7 23 18 14 30.0000000  0 11G06G11G19G13G16G07G10G08G28G03G23
 120577740.62147  93956745.37644  22945180.7504                   22945189.6604
 129824515.31045 101161985.09642  24704777.2664                   24704792.1954
 110501562.71447  86105203.39146  21027743.7664                   21027750.0944
 105336645.88148  82080717.00246  20044935.9614                   20044943.1374
 124539521.50946  97043804.12944  23699088.8284                   23699096.8404
 114768297.446 7  89429842.118 7  21839668.492
 125930229.03846  98127621.26642  23963756.9224                   23963769.2304
 125138473.97447  97510538.82444  23813055.7424                   23813066.0704
 128559982.055 5                  24464134.172
 111438649.61148  86835378.50945  21206066.5004                   21206074.2734
 109295991.96248  85165726.48246  20798337.1024                   20798342.9884
 11  7 23 18 15  0.0000000  0 11G06G11G19G13G16G07G10G08G28G03G23
 120648394.33347  94011800.18244  22958625.9924                   22958634.1564
 129747322.96346 101101835.44842  24690088.3444                   24690103.2234
 110478316.35047  86087089.35646  21023320.8754                   21023326.6054
 105345911.49947  82087936.95046  20046699.0864                   20046706.1564
 124630911.03846  97115016.66943  23716479.3674                   23716488.0314
 114712952.934 7  89386716.536 7  21829136.453
 125957759.73346  98149073.73242  23968997.1174                   23969008.4064
 125067813.54647  97455478.81443  23799609.7424                   23799619.6134
 128487796.810 5                  24450398.117
 111489658.61148  86875125.77245  21215772.9144                   21215780.7854
 109364873.80548  85219400.59146  20811445.1254                   20811451.2384
 11  7 23 18 15 30.0000000  0 11G06G11G19G13G16G07G10G08G28G03G23
 120719456.21546  94067173.01544  22972148.7814                   22972157.4774
 129670002.86946 101041586.20343  24675374.9614                   24675388.9694
 110455667.19747  86069440.68046  21019010.5554                   21019016.3714
 105355771.48248  82095620.02746  20048575.7034                   20048582.7774
 124722287.05246  97186218.68343  23733867.6484                   23733876.4024
 114657677.563 7  89343644.836 7  21818618.273
 125985703.05446  98170847.70452  23974314.1254                   23974325.4924
 124997101.70047  97400378.73443  23786154.0394                   23786162.8324
 128415821.024 5                  24436702.070
 111541229.22448  86915310.64745  21225586.4694                   21225594.5824
 109434238.52947  85273450.97846  20824644.7894                   20824650.5784
 11  7 23 18 16  0.0000000  0 11G06G11G19G13G16G07G10G08G28G03G23
 120790924.05547  94122862.22844  22985748.8204                   22985757.1454
 129592557.66746 100981239.48743  24660638.9064                   24660651.8324
 110433616.42547  86052258.26246  21014813.6724                   21014820.5664
 105366225.78248  82103766.21146  20050565.0234                   20050572.6884
 124813647.39146  97257408.50943  23751252.7424                   23751261.1054
 114602472.035 7  89300627.565 7  21808112.922
 126014057.11046  98192941.65242  23979710.3444                   23979721.5204
 124926338.33747  97345238.47943  23772688.5784                   23772696.7424
 128344055.095 5                  24423045.391
 111593359.80748  86955931.86645  21235506.8284                   21235515.0004
 109504084.38247  85327876.26445  20837935.7424                   20837942.2664
 11  7 23 18 16 30.0000000  0 11G06G11G19G13G16G07G10G08G28G03G23
 120862795.78047  94178866.15144  22999425.1094                   22999434.1254
 129514990.03646 100920797.42043  24645877.3914                   24645891.3014
 110412165.50447  86035543.26946  21010732.2344                   21010738.5474
 105377275.82448  82112376.60846  20052667.9384                   20052674.8244
 124904991.00547  97328585.30643  23768634.8364                   23768642.7664
 114547337.801 7  89257665.842 7  21797620.844
 126042819.98746  98215354.17042  23985184.0394                   23985195.0354
 124855524.48147  97290058.91843  23759213.1024                   23759220.3134
 128272500.116 5                  24409428.984
 111646048.17648  86996987.71045  21245533.2974                   21245541.4064
 109574409.52948  85382675.02146  20851318.4774                   20851325.0514
 11  7 23 18 17  0.0000000  0 11G06G11G19G13G16G07G10G08G28G03G23
 120935068.89747  94235182.85544  23013178.7814                   23013186.5864
 129437301.96646 100860261.45342  24631093.4534                   24631107.4144
 110391315.19047  86019296.27746  21006764.6414                   21006770.5394
 105388920.66148  82121450.49246  20054883.9304                   20054890.7194
 124996316.29746  97399747.80143  23786013.8444                   23786021.4924
 114492275.248 8  89214759.970 7  21787142.914
 126071989.27045  98238083.41842  23990734.0784                   23990745.5474
 124784659.62246  97234839.59343  23745727.2034                   23745735.6214
 128201156.016 6                  24395851.883
 111699292.49948  87038476.76945  21255664.7734                   21255672.8714
 109645211.81048  85437845.57846  20864790.9694                   20864797.8324
 11  7 23 18 17 30.0000000  0 11G06G11G19G13G16G07G10G08G28G03G23
 121007741.23147  94291810.60444  23027007.0634                   23027016.4224
 129359496.14346 100799633.77943  24616287.7034                   24616300.2894
 110371066.69547  86003518.25246  21002911.1414                   21002917.3054
 105401160.69948  82130988.16446  20057213.0314                   20057220.1804
 125087621.82847  97470894.90243  23803389.3364                   23803396.6294
 114437285.665 7  89171910.959 7  21776678.219
 126101563.17046  98261127.91442  23996363.3134                   23996373.2154
 124713743.96346  97179580.71143  23732231.9774                   23732240.8874
 128130022.609 5                  24382315.016
 111753090.76948  87080397.46745  21265902.0234                   21265910.5164
 109716489.54748  85493386.60445  20878355.9924                   20878361.5394
 11  7 23 18 18  0.0000000  0 11G06G11G19G13G16G07G10G08G28G03G23
 121080810.51547  94348747.64644  23040911.5944                   23040920.9654
 129281574.61746 100738915.91543  24601459.3134                   24601472.2304
 110351421.02447  85988209.95346  20999172.2814                   20999179.3874
 105413996.40748  82140990.00346  20059655.0864                   20059662.9844
 125178906.35646  97542025.67443  23820759.6644                   23820768.0944
 114382370.064 8  89129119.589 7  21766228.609
 126131539.46815                  24002066.047
 124642778.05547  97124282.62743  23718728.0944                   23718737.4224
 128059100.709 6                  24368819.680
 111807440.93348  87122748.20945  21276244.7504                   21276253.4454
 109788240.85648  85549296.65445  20892009.0864                   20892015.4534
 11  7 23 18 18 30.0000000  0 11G06G11G19G13G16G07G10G08G28G03G23
 121154274.58747  94405992.35744  23054891.3134                   23054900.8594
 129203540.00246 100678109.94643  24586609.7894                   24586623.3484
 110332379.51147  85973372.41246  20995548.8914                   20995555.1604
 105427428.18847  82151456.28946  20062211.5474                   20062218.6764
 125270168.06146  97613138.68243  23838126.2664                   23838134.9774
 114327529.613 8  89086386.802 7  21755792.852
 126161916.559 6                  24007847.203
 124571762.48846  97068945.89543  23705214.4454                   23705223.5594
 127988390.929 6                  24355363.414
 111862341.05747  87165527.47945  21286692.1334                   21286700.5394
 109860463.91748  85605574.31545  20905753.1024                   20905759.2034
 11  7 23 18 19  0.0000000  0 11G06G11G19G13G16G07G10G08G28G03G23
 121228131.11847  94463542.84144  23068946.5314                   23068955.8164
 129125395.05046 100617217.99443  24571739.5554                   24571752.1994
 110313942.90947  85959006.24346  20992040.6954                   20992047.0514
 105441456.22747  82162387.21246  20064881.1484                   20064888.0904
 125361405.90647  97684233.04343  23855488.2894                   23855496.6094
 114272764.952 8  89043713.036 7  21745371.266
 126192691.98245  98332140.22253  24013702.4064                   24013714.5204
 124500697.03647  97013570.31743  23691690.0784                   23691700.5944
 127917893.363 5                  24341949.063
 111917789.32747  87208733.89945  21297243.6804                   21297251.5594
 109933156.58648  85662217.89245  20919586.0554                   20919592.2234
 11  7 23 18 19 30.0000000  0 11G06G11G19G13G16G07G10G08G28G03G23
 121302377.79647  94521397.34844  23083074.8364                   23083083.7154
 129047141.65346 100556241.48343  24556848.7664                   24556860.6764
 110296112.23547  85945112.22246  20988647.6174                   20988653.5784
 105456080.22248  82173782.52746  20067663.9304                   20067671.3284
 125452618.12346  97755307.46143  23872845.2894                   23872853.0514
 114218076.917 8  89001099.005 7  21734964.586
 126223863.56345  98356429.67042  24019634.3134                   24019646.5164
 124429581.97646  96958156.01743  23678158.4384                   23678167.4654
 127847608.268 5                  24328572.477
 111973783.33047  87252365.56045  21307898.7194                   21307907.1134
 110006316.93648  85719225.91746  20933507.8444                   20933514.3404
 11  7 23 18 20  0.0000000  0 11G06G11G19G13G16G07G10G08G28G03G23
 121377012.30247  94579554.05644  23097276.4304                   23097286.8164
 128968782.76046 100495182.80843  24541936.3914                   24541949.1214
 110278889.08447  85931691.57946  20985370.5234                   20985376.7734
 105471300.68948  82185642.60746  20070560.4384                   20070567.2974
 125543803.73446  97826361.13043  23890197.7344                   23890205.2304
 114163467.058 8  88958545.882 7  21724572.828
 126255429.10645  98381026.22842  24025640.6414                   24025652.3484
 124358418.23346  96902703.86543  23664615.8134                   23664625.5314
 127777536.014 5                  24315239.703
 112030321.18247  87296420.99745  21318657.7734                   21318665.5394
 110079943.44848  85776597.16346  20947519.0634                   20947525.4924
 11  7 23 18 20 30.0000000  0 11G06G11G19G13G16G07G10G08G28G03G23
 121452032.24347  94638011.10044  23111553.1174                   23111563.0744
 128890320.83146 100434043.89343  24527005.1174                   24527019.0124
 110262273.81448  85918744.62246  20982208.5784                   20982214.9344
 105487117.94248  82197967.71446  20073570.1564                   20073577.1804
 125634960.89446  97897392.63443  23907544.1484                   23907552.3984
 114108935.926 8  88916054.107 7  21714195.750
 126287386.74456  98405928.14552  24031723.4454                   24031734.4104
 124287205.96647  96847213.79444  23651065.0004                   23651074.2464
 127707676.419 4                  24301945.500
 112087400.70947  87340898.51345  21329519.4534                   21329527.3094
 110154033.49348  85834329.59945  20961618.0164                   20961623.9344
 11  7 23 18 21  0.0000000  0 11G06G11G19G13G16G07G10G08G28G03G23
 121527435.43147  94696766.76444  23125901.9454                   23125911.4804
 128811758.00546 100372826.27242  24512055.9534                   24512068.7854
 110246267.36347  85906272.05746  20979162.3284                   20979168.9264
 105503531.67948  82210757.63246  20076693.7814                   20076700.7464
 125726088.50846  97968401.13343  23924884.1414                   23924893.2304
 114054484.716 8  88873624.644 7  21703833.680
 126319734.02446  98431133.75342  24037877.5634                   24037889.5554
 124215945.22447  96791686.02943  23637504.4304                   23637514.0984
 127638035.32215                  24288694.234
 112145019.81847  87385796.47845  21340484.4064                   21340492.0204
 110228585.32748  85892421.87346  20975804.4774                   20975810.8364
 11  7 23 18 21 30.0000000  0 10G06G11G19G13G16G07G10G08G03G23
 121603219.18047  94755819.01844  23140323.9844                   23140332.5514
 128733096.71446 100311531.87242  24497086.7114                   24497099.1134
 110230870.23147  85894274.30646  20976232.6174                   20976239.0744
 105520541.70247  82224012.18446  20079930.1174                   20079937.3754
 125817185.03646  98039385.36143  23942219.8914                   23942227.8054
 114000114.320 8  88831258.115 7  21693487.656
 126352468.82746  98456641.40442  24044108.1414                   24044118.3444
 124144636.23346  96736120.62243  23623934.4924                   23623943.9224
 112203176.42847  87431113.27745  21351550.7974                   21351558.8094
 110303596.91648  85950872.39546  20990078.9774                   20990085.3554
 11  7 23 18 22  0.0000000  0 10G06G11G19G13G16G07G10G08G03G23
 121679381.56046  94815166.28044  23154816.8834                   23154826.1214
 128654339.71046 100250162.86142  24482099.9844                   24482111.9844
 110216083.60648  85882752.24946  20973418.5474                   20973424.8164
 105538148.15548  82237731.47346  20083281.1954                   20083288.3954
 125908249.08846  98110344.31443  23959549.1484                   23959556.9414
 113945825.855 8  88788955.419 7  21683156.742
 126385589.50246  98482449.66043  24050410.5164                   24050422.1294
 124073279.53946  96680518.03443  23610356.1724                   23610365.6884
 112261868.52947  87476847.35245  21362719.9614                   21362727.6214
 110379066.07248  86009679.47046  21004440.1254                   21004446.3244
 11  7 23 18 22 30.0000000  0 10G06G11G19G13G16G07G10G08G03G23
 121755920.20347  94874806.76044  23169381.5554                   23169391.3554
 128575489.58646 100188721.48042  24467094.8054                   24467107.1414
 110201908.58148  85871706.77646  20970721.9064                   20970727.9104
 105556351.36747  82251915.76446  20086744.7814                   20086752.1094
 125999279.58346  98181277.12343  23976871.3054                   23976879.4924
 113891620.737 7  88746717.668 7  21672841.797
 126419093.38046  98508556.53142  24056786.4304                   24056796.7734
 124001875.76346  96624878.80843  23596768.8364                   23596777.5984
 112321094.04647  87522997.07245  21373990.2974                   21373998.2584
 110454990.93148  86068841.65245  21018887.8984                   21018893.8714
 11  7 23 18 23  0.0000000  0 10G06G11G19G13G16G07G10G08G03G23
 121832832.71647  94934738.54144  23184017.6564                   23184026.7664
 128496548.58046 100127209.16642  24452072.4384                   24452085.1134
 110188345.81247  85861138.38646  20968140.6564                   20968146.4884
 105575151.11047  82266564.90046  20090322.1414                   20090329.3874
 126090274.97446  98252182.57443  23994187.7034                   23994196.4184
 113837499.983 8  88704545.680 7  21662543.125
 126452978.63546  98534960.48743  24063235.0084                   24063245.6884
 123930425.25546  96569203.10543  23583171.3674                   23583180.2664
 112380850.63047  87569560.61945  21385361.2424                   21385369.8874
 110531369.58248  86128357.42646  21033422.6564                   21033428.9774
 11  7 23 18 23 30.0000000  0 10G06G11G19G13G16G07G10G08G03G23
 121910116.70746  94994959.81844  23198724.1884                   23198733.2664
 128417519.48346 100065628.19842  24437033.5474                   24437046.5984
 110175396.42148  85851047.94746  20965676.2974                   20965682.2464
 105594547.55147  82281678.98346  20094013.3204                   20094020.3954
 126181234.18446  98323059.81043  24011496.1334                   24011505.4614
 113783464.474 8  88662440.130 7  21652260.156
 126487242.67946  98561659.66842  24069755.1174                   24069766.3244
 123858928.40046  96513491.30243  23569566.0634                   23569574.0634
 112441136.09947  87616536.28145  21396833.7424                   21396841.8754
 110608199.75148  86188225.03345  21048043.1884                   21048049.9104
 11  7 23 18 24  0.0000000  0 10G06G11G19G13G16G07G10G08G03G23
 121987769.59846  95055468.51344  23213501.1644                   23213509.7974
 128338404.54946 100003980.22042  24421977.8754                   24421991.1454
 110163060.47448  85841435.51846  20963328.9774                   20963334.8754
 105614540.01147  82297257.50746  20097818.0004                   20097825.0514
 126272155.40847  98393907.50143  24028798.9304                   24028807.6994
 113729514.690 8  88620401.354 7  21641994.000
 126521883.29245  98588652.31542  24076347.2274                   24076357.3094
 123787385.09647  96457743.31044  23555951.0474                   23555960.0274
 112501948.04447  87663922.17845  21408405.0704                   21408413.2074
 110685479.05748  86248442.61845  21062749.2664                   21062754.8484
 11  7 23 18 24 30.0000000  0 10G06G11G19G13G16G07G10G08G03G23
 122065789.18147  95116262.96044  23228347.4534                   23228356.2934
 128259206.80946  99942268.02152  24406907.4304                   24406920.0784
 110151338.68347  85832301.66046  20961098.6484                   20961104.9494
 105635128.57347  82313300.51546  20101735.5704                   20101743.3204
 126363037.38546  98464724.58243  24046093.3984                   24046101.7114
 113675652.204 8  88578430.630 7  21631744.383
 126556898.20545  98615936.60842  24083009.2894                   24083020.7344
 123715795.87747  96401959.53244  23542328.1254                   23542337.6684
 112563284.18247  87711716.52545  21420077.0944                   21420086.0664
 110763205.51148  86309008.63345  21077539.6174                   21077546.0434
 11  7 23 18 25  0.0000000  0  9G06G11G19G13G16G07G08G03G23
 122144173.30046  95177341.41944  23243263.7894                   23243272.9224
 128179928.40546  99880492.90842  24391820.9694                   24391833.7424
 110140232.27548  85823647.32846  20958984.9694                   20958991.1764
 105656313.56747  82329808.28246  20105766.8754                   20105774.1844
 126453879.68646  98535510.71643  24063379.3834                   24063388.1174
 113621878.469 8  88536529.033 7  21621511.500
 123644161.43847  96346140.54644  23528696.8204                   23528706.0594
 112625142.91747  87759918.10845  21431849.1024                   21431857.0744
 110841377.15048  86369921.54145  21092415.4924                   21092421.9454
 11  7 23 18 25 30.0000000  0  9G06G11G19G13G16G07G08G03G23
 122222920.21746  95238702.60644  23258248.8594                   23258258.3014
 128100572.77046  99818657.58643  24376719.6884                   24376732.3634
 110129742.64247  85815473.59446  20956988.9774                   20956994.3444
 105678095.55948  82346781.23746  20109912.3674                   20109919.3954
 126544681.29346  98606265.19343  24080659.2424                   24080667.3594
 113568195.203 7  88494697.945 7  21611296.313
 123572483.41347  96290287.58644  23515056.8914                   23515066.6564
 112687522.62547  87808525.63945  21443719.4694                   21443727.7854
 110919992.87148  86431180.48745  21107375.4224                   21107381.8204
 11  7 23 18 26  0.0000000  0 10G06G11G19G13G16G07G10G08G03G23
 122302024.94046  95300342.64544  23273302.0944                   23273311.5474
 128021140.24746  99756762.28543  24361604.3594                   24361617.1724
 110119867.47947  85807778.66646  20955109.4144                   20955115.4184
 105700471.55248  82364217.05646  20114170.2344                   20114177.0394
 126635438.12046  98676984.76843  24097929.5944                   24097938.0004
 113514600.629 7  88452935.958 7  21601097.422
 126664086.62715                  24103422.563
 123500759.41147  96234398.79344  23501409.0084                   23501417.9184
 112750418.09747  87857535.06545  21455687.7734                   21455696.3324
 110999047.78748  86492781.65745  21122418.9844                   21122425.8954
 11  7 23 18 26 30.0000000  0 11G06G11G19G13G16G07G10G08G28G03G23
 122381487.09446  95362261.16943  23288423.0314                   23288432.2854
 127941635.28746  99694810.53943  24346475.6334                   24346487.5784
 110110609.65647  85800564.78146  20953347.7034                   20953353.5044
 105723443.30948  82382117.09946  20118541.4144                   20118549.0514
 126726151.13246  98747670.19543  24115191.5164                   24115200.3754
 113461098.516 8  88411246.027 7  21590916.117
 126700576.447 6                  24110367.047
 123428991.40747  96178475.71744  23487751.7424                   23487760.8754
                                  24145595.930
 112813829.34247  87906946.38945  21467755.2034                   21467762.8054
 111078541.59348  86554724.81545  21137546.5784                   21137553.0084
 11  7 23 18 27  0.0000000  0 11G06G11G19G13G16G07G10G08G28G03G23
 122461302.42146  95424454.89643  23303611.3674                   23303620.9964
 127862058.22446  99632802.60342  24331332.2194                   24331344.6024
 110101967.91347  85793830.96046  20951703.3834                   20951709.2074
 105747008.84048  82400479.81846  20123026.2274                   20123032.9694
 126816817.17646  98818318.99743  24132444.5784                   24132452.9344
 113407687.557 7  88369627.130 7  21580752.414
 126737427.668 6                  24117378.773
 123357178.08947  96122517.35044  23474085.9694                   23474094.5594
 126819050.61914                  24132832.992
 112877751.88847  87956756.14445  21479919.0004                   21479927.4414
 111158470.25048  86617006.81445  21152756.5784                   21152762.4264
